GFSSGP_con_sbcape_000.txt.gz
CAPE
1204 1230 1387 1393 168 32 59 101 141 239 363 377 378 409 646 635 699 712 548 974 831 771 862 1123 2492 2776 2631 2868 2719 2675 2612 2809 3158 3133 3082 2977 2851 2681 2666 2970 2871 2806 2393 2310 2360 2364 2354 2309 2402
1326 1258 1736 787 39 49 267 95 93 131 516 632 572 544 556 663 545 511 863 1211 1135 955 972 1255 2033 2449 2788 2877 3107 2989 2481 2676 3243 3229 3083 3139 2952 2838 2771 2419 2535 2555 2555 2377 2234 2315 2435 2229 2192
1339 1430 1508 73 64 37 203 310 438 457 326 76 457 518 391 581 594 670 1042 1263 1205 1262 1334 1755 2479 2831 2894 2855 3107 2782 2771 2968 2931 2989 3073 2966 2787 2838 2434 2363 2434 2395 2380 2413 2355 2327 2289 2197 2159
1514 1590 1160 140 147 203 315 429 428 239 114 158 213 557 706 769 805 794 1240 1264 1415 1841 1885 1609 2306 2903 2992 3314 2772 2463 2489 3076 3304 3326 3023 2717 2352 2407 2430 2431 2460 2427 2365 2312 2324 2307 2187 2074 2132
1501 1291 123 124 380 391 346 211 101 69 66 143 145 373 797 1068 859 1015 1328 1343 1446 1672 2024 1933 2671 3089 3011 3276 2740 2806 2558 2541 3087 2889 2402 2312 2295 2403 2363 2249 2255 2347 2373 2310 2333 2352 2275 2224 2152
1066 601 127 126 431 593 587 482 76 181 329 369 419 681 1223 1058 886 1136 1165 1243 1409 1660 1883 2117 2294 2837 3172 2798 2697 3287 3092 2774 3032 2816 2357 2314 2400 2418 2368 2301 2412 2405 2262 2174 2142 2157 2139 2263 2348
572 131 90 114 549 672 736 645 188 121 203 366 473 716 1071 1023 945 1059 1188 1341 1175 1514 1650 2002 2014 2404 2669 2685 2707 3065 3084 2697 2859 2622 2454 2510 2608 2569 2474 2462 2378 2279 2122 2087 2114 2173 2109 2169 2354
614 135 50 60 81 549 780 530 388 354 576 683 590 543 1197 1015 1008 1013 1119 1268 1511 1449 1588 1981 2074 1893 2008 1973 2619 2384 2579 2560 2346 2465 2569 2694 2672 2654 2643 2594 2491 2451 2285 2403 2492 2702 2215 2129 2019
215 48 28 11 69 573 765 633 958 681 1200 1417 1241 668 1136 1033 974 1012 1116 1186 1441 1370 1632 1885 2006 2096 2086 1966 2104 2372 2358 2285 2128 2234 2293 2340 1657 2182 2153 2096 2597 2413 2390 2477 2497 2532 2583 2444 2205
24 15 2 23 57 480 678 777 995 1076 1578 1670 1456 1444 1304 976 983 977 995 1126 1363 1480 1455 1477 1624 1966 2147 1812 2142 1947 1729 1486 1491 1633 2097 1944 2062 2265 2408 2568 2659 2606 2641 2630 2760 2405 2414 1850 1588
0 0 189 483 501 621 754 898 829 818 883 1528 1542 1494 1186 942 953 943 943 943 1069 1386 1422 1526 1793 1984 1849 1763 1973 1897 1941 1835 1981 2351 2459 2285 2272 2315 2249 1912 2067 2050 2343 1779 2023 1833 1793 1281 1362
0 466 464 854 720 549 513 604 1298 1301 1274 1594 1433 1398 1315 1049 825 778 840 896 1048 1297 1393 1637 2007 2262 2228 2018 1876 1833 1779 1909 1849 1965 2301 2830 2349 2066 2020 1854 1826 1914 1710 1684 1700 1636 1690 1677 1300
90 645 900 924 598 461 225 613 1438 1683 1630 1626 1615 1580 1500 1225 993 874 858 877 1067 1339 1505 1632 2075 2271 2357 2448 1934 1770 1719 1693 1631 1783 1982 2249 2036 2008 1972 2147 2024 1656 1700 1945 2098 1908 1812 1738 1193
245 614 704 462 112 85 166 475 370 1848 1822 1753 1695 1691 1626 1462 1343 1125 896 909 1060 1179 1316 1770 2115 2355 2460 2877 2490 2463 2089 1960 1886 1745 1785 2196 2372 2038 1866 2041 1783 1786 1693 2096 2046 2126 1958 1813 1564
542 677 843 424 646 130 12 228 843 1817 1942 1767 1673 1840 1806 1820 1848 1825 1699 1659 1666 1717 1665 1854 2261 2294 2400 2424 2601 2568 2129 1856 1775 1712 1951 2158 2502 2271 2474 1934 1805 1967 2039 1688 1790 2017 1920 1838 1622
138 167 309 456 581 356 950 328 1003 1318 1491 1719 1741 1832 1884 1962 1927 2058 2122 2202 2223 2218 2498 2525 2454 2175 2574 2768 2878 2470 2191 1969 1657 1407 1370 1786 2212 2461 2722 1748 1751 1748 2006 1555 1561 2153 1731 1964 1549
29 54 64 272 633 626 621 367 817 936 911 1160 1508 1767 1829 1921 2023 2083 2179 2417 2334 2086 2460 2905 2818 2459 2236 2453 2469 2298 2185 2125 1992 1804 2090 2129 2540 2587 2802 2660 1574 2095 1581 1507 1328 1590 1677 2169 1939
0 15 31 39 314 545 451 720 578 740 607 766 1073 1286 1520 1611 1739 2018 2202 2287 2563 2711 2936 2945 2758 2808 2863 2666 2840 2990 3081 3407 3351 2890 2248 2262 2417 2145 2348 1914 1937 2014 1658 1377 1421 1912 1662 1579 1476
0 0 26 18 92 247 381 938 537 533 649 523 542 1200 1219 1317 1447 1815 2164 2318 2375 2475 2674 2873 2973 2996 2877 2856 2722 2630 2588 2477 2464 2336 2318 2442 2360 2475 2654 2618 2226 2673 2493 2004 2053 2155 1688 1425 1320
0 0 0 26 125 253 804 910 906 652 329 587 587 1001 1103 1326 1426 1920 2026 2245 2334 2535 2697 2938 3123 3240 3296 2906 2834 2647 2362 1841 1988 2358 2249 1954 1658 1697 1649 1710 1430 1454 1426 1686 1890 2270 1849 1200 1714
0 0 0 7 285 338 814 917 1414 1036 956 722 990 995 1375 1519 1614 1793 1910 2118 2188 2415 2847 2983 3181 3181 3442 3164 2306 1570 999 1430 825 853 672 1043 1213 1069 1128 1166 1250 1336 1354 1243 1450 1714 1549 1417 1048
0 0 0 0 341 123 479 132 1425 1307 1345 1196 957 1428 1462 1662 1760 1725 1701 2061 2045 2342 2742 3656 3851 3501 2460 1503 925 982 228 340 515 443 370 752 547 791 792 946 983 1248 1135 1183 1083 1178 1375 1465 1263
1 1 27 70 265 267 706 302 138 1047 1255 1179 1189 1074 1179 1473 1689 1650 1396 1601 1873 2755 3121 2895 2355 1731 1180 1053 597 182 217 63 179 155 201 394 381 477 534 754 724 956 912 825 819 998 1181 1204 1175
3 60 83 103 67 75 48 118 21 142 680 748 1096 1287 1367 1355 1506 1724 1556 1815 2457 2275 1960 1288 1374 1136 901 432 358 385 312 169 54 89 183 46 86 161 283 309 392 553 598 631 718 819 1009 1415 1395
0 0 10 14 18 13 20 15 4 18 417 487 760 1306 1496 1315 1375 1581 2020 2306 2054 2026 1131 750 1049 1132 841 83 36 83 110 152 154 207 1 111 7 11 11 54 90 139 327 435 621 886 873 1054 1184
0 0 3 4 3 4 36 0 0 188 206 173 529 1018 1354 1245 1131 1453 2173 1987 1980 1547 863 672 1010 915 308 172 325 296 225 4 16 22 81 3 3 6 33 25 73 165 228 316 467 573 624 840 1098
0 0 0 3 0 0 5 0 16 131 170 194 592 953 1414 912 1012 1435 1832 1744 1622 877 836 876 973 771 351 215 492 436 357 302 104 180 246 20 112 1 3 52 127 196 279 462 568 494 540 571 915
3 3 3 6 11 9 6 0 4 0 2 197 341 862 1505 811 928 1322 1471 1486 950 670 762 790 868 760 417 342 335 60 78 159 126 125 172 197 231 211 225 211 216 258 330 330 456 584 522 733 757
0 4 5 19 5 15 14 14 8 0 0 20 400 882 1387 831 669 1118 1416 1507 674 619 606 699 724 597 434 403 235 146 83 54 11 24 158 251 274 358 354 476 519 513 533 514 524 490 277 391 476
6 12 26 47 88 30 1 1 0 0 11 19 80 833 1151 1346 402 374 1234 1373 602 659 357 413 435 389 232 194 137 65 63 103 45 52 125 190 224 369 431 525 784 728 695 699 741 628 537 508 408

GFSSGP_con_sbcape_003.txt.gz
CAPE
1144 1592 1320 1368 162 99 88 77 65 124 172 183 269 300 675 682 331 731 539 520 599 650 712 889 2342 2129 2176 2570 2700 2541 2638 2494 2758 3184 2820 2607 1911 2028 2354 2413 2304 2455 2174 2266 2355 2342 2403 2514 2595
1607 1245 1620 1349 128 106 92 56 47 122 312 227 202 377 544 672 633 950 829 852 826 622 854 1087 2596 2523 1988 2528 2586 2877 2783 2577 2748 3073 2785 2551 1880 2186 2453 2291 2473 2556 2400 2243 2307 2472 2404 2149 2191
1683 1409 1806 112 89 120 125 141 167 117 9 176 131 248 502 678 683 1070 1153 1230 1038 1036 1828 1807 2389 2565 2259 2405 2408 3064 3006 2424 2456 2888 2582 2221 2016 2085 2373 2390 2371 2411 2363 2373 2366 2289 2216 1995 1918
1812 1896 161 114 91 93 173 234 52 4 4 50 164 481 734 689 967 1136 1402 1406 1529 1411 1580 2094 2482 2630 2694 2603 2488 2385 2865 2507 2469 2401 2135 2194 2064 2250 2208 2290 2351 2392 2359 2335 2320 2214 2131 2021 2012
1828 1288 175 240 92 143 156 118 55 52 33 34 205 560 760 818 1038 1333 1427 1420 1622 1627 1512 1666 2973 3058 2970 2563 2482 2383 2902 2410 2642 2101 2120 2142 2363 2313 2214 2246 2275 2297 2256 2160 2123 2103 2045 1931 2043
1479 137 148 213 254 364 176 75 109 166 114 167 344 730 837 874 947 1323 1329 1484 1507 1669 1621 1578 2403 3018 3155 2500 2657 2501 2456 2315 2337 2173 2162 2246 2362 2296 2232 2202 2348 2267 2054 1919 2010 2011 1922 1956 2014
1103 85 114 120 346 448 393 142 135 182 220 266 400 845 813 817 814 836 1295 1089 1137 1365 1832 1812 1689 1991 2609 2688 2843 2971 2842 2420 2206 2165 2205 2333 2535 2438 2391 2372 2311 2167 2081 1997 2020 2100 1971 2038 2051
308 170 32 128 220 383 441 243 240 361 359 400 496 470 916 856 791 782 1202 999 1434 1705 1803 2513 2046 1864 1963 1979 2209 2639 2677 2453 2237 2245 2320 2513 2532 2525 2449 2617 2482 2298 2150 2257 2444 2440 2383 1929 1884
158 136 67 110 135 364 425 587 761 828 666 652 718 473 837 803 781 802 1149 1419 1307 1627 1574 1668 1570 1711 2485 2082 2310 2611 2731 2437 2252 2223 2232 2192 1560 2283 2297 2525 2176 2362 2249 2193 2263 2450 2389 2394 2160
31 59 18 69 175 300 507 679 885 1328 1599 979 994 793 867 835 849 828 832 1511 1143 1331 1497 1644 1735 2063 2425 1684 2205 2030 1720 1554 1527 1493 2495 1767 2417 2957 2104 2291 2422 2426 2463 2545 2372 2603 2386 1993 1526
41 6 3 57 149 279 319 243 326 269 1429 1080 1229 920 895 906 876 842 843 921 1046 1198 1164 1130 2026 1709 1682 2886 1853 1804 1692 1790 1732 2055 2793 2612 2367 2713 2339 1961 2817 2502 2362 1820 2357 2626 2208 1868 947
41 14 111 20 68 276 131 240 557 1358 1409 1344 977 803 859 901 903 800 830 915 1147 1268 1173 1298 1729 2076 1722 2120 1396 1867 1826 1306 1626 2067 2462 2296 1674 2791 2302 1942 2455 2064 1401 1546 1800 1796 1505 1248 1289
92 91 51 42 140 52 54 482 1223 1407 1234 1115 1029 932 843 805 796 808 795 864 1044 1230 1269 1420 1950 2306 2311 2517 1427 1599 1735 1273 1346 1422 1776 1672 2725 2639 2091 2091 1657 1835 1297 1827 1966 2421 1873 1939 1356
26 111 40 52 0 27 277 365 1180 1487 1214 1243 1235 1217 1129 948 823 801 792 805 946 1122 1244 1403 1816 2504 2324 2619 2580 2195 1234 1901 1859 1870 1874 2438 1627 2833 2239 2221 1805 2424 1806 1917 1789 2275 1840 1883 1425
14 53 41 51 110 11 0 118 1010 1656 1365 1442 1525 1593 1608 1520 1368 1065 821 771 895 1063 1303 1975 2542 2876 2574 2609 2936 3055 1722 1272 1596 2106 2417 1372 2000 2501 2836 2182 1749 1766 1777 2134 1912 1802 2100 1658 1282
25 40 104 103 54 149 9 387 893 1301 1526 1572 1689 1799 1785 1776 1692 1694 1487 1596 1448 1524 2246 2234 1847 2337 2569 2610 2864 2653 2054 1818 2200 1285 1210 1409 1867 3068 2955 1614 1202 1656 1955 1777 1951 1671 1526 1510 1544
33 64 51 74 37 214 15 340 670 617 808 1176 1373 1416 1384 1438 1446 1661 1749 1929 1961 2077 2315 2532 2218 2114 2825 2866 2829 2660 3052 1916 1813 2535 2383 2046 2460 2148 2850 1878 1527 1852 1589 1358 1488 1502 1361 1627 1483
38 49 76 80 68 47 39 79 650 523 309 788 957 1014 1013 1185 1317 1324 1586 1806 1904 2032 2412 2471 2449 2601 2437 2812 2779 2702 3071 2346 2317 2369 2176 2908 2839 2443 3072 2894 2342 2598 2491 2439 1943 2134 1739 1555 1504
19 1 27 32 29 74 105 151 505 590 365 364 613 925 818 850 918 1144 1385 1673 1948 2218 2668 2785 2963 3422 3314 3177 3094 3571 2711 3061 2549 3054 2537 2265 2457 2284 2498 2651 2267 2630 2154 2419 2293 2048 2328 1896 1855
0 0 22 25 43 31 40 314 199 323 413 311 338 567 544 601 742 1229 1510 1705 1825 2088 2387 2806 3002 3526 3441 3187 3230 3237 2746 1774 1444 1770 1978 2103 1513 1952 1580 1723 1550 2042 882 2208 1548 1950 1510 1473 1170
0 0 1 19 16 7 93 106 409 186 250 321 241 331 407 527 530 865 1288 1415 1484 2084 2655 2875 3153 3324 3700 3595 3351 2464 2056 1953 1029 697 676 991 866 645 999 1190 1193 1505 1489 479 1274 1288 1485 1313 1674
0 0 0 2 37 54 8 67 484 599 194 130 308 323 371 410 372 422 649 948 1093 1682 2345 3003 3422 3762 2941 1998 1253 1265 576 188 589 230 150 492 282 464 585 686 762 967 1082 1169 1049 911 1094 1258 1139
3 0 0 0 10 25 48 67 291 29 670 430 161 329 510 557 542 532 276 688 849 1559 2092 2950 3257 2052 1430 948 545 170 135 0 0 0 84 457 933 383 368 591 715 963 794 1106 854 953 1261 1408 1274
0 0 1 6 22 67 101 50 117 540 940 868 500 160 276 575 617 746 589 780 1104 1691 2229 2582 1938 1614 1072 524 372 250 160 121 28 111 121 40 6 71 286 269 352 543 541 549 600 677 774 1316 1554
0 2 11 23 53 73 16 41 96 17 139 42 346 442 339 380 569 823 935 1218 1663 1789 2003 1436 1542 1436 1029 368 60 8 101 171 273 327 32 188 5 10 49 170 198 147 267 311 658 908 635 713 793
0 1 16 22 40 49 8 0 0 0 21 87 162 307 580 803 749 828 1188 1524 1936 1754 1642 825 1439 1543 975 289 403 449 407 47 45 68 199 35 6 6 93 140 113 164 184 262 661 459 421 874 760
0 0 1 3 7 8 25 29 7 24 17 68 92 207 840 947 1074 962 1181 1945 1759 1705 1301 889 1368 1489 733 306 861 727 510 409 332 338 355 86 200 73 42 102 196 265 249 228 512 296 501 562 951
3 0 0 1 0 35 30 18 17 44 2 0 54 140 372 1124 1318 1016 1080 1948 1623 1625 888 645 886 1047 678 485 584 102 30 187 320 296 324 335 340 328 275 202 210 280 367 776 653 689 681 808 406
0 1 14 27 36 51 41 46 21 6 0 3 7 25 289 938 1436 950 1153 1557 1553 1310 739 365 679 780 740 620 499 187 87 97 179 149 125 274 384 427 433 306 315 467 529 637 772 760 719 523 844
2 2 9 35 50 26 31 29 2 2 5 28 15 22 162 1185 1615 1104 1285 1441 1418 950 688 326 315 433 501 383 366 160 208 233 136 157 136 187 214 334 375 389 640 520 533 967 665 701 658 737 618

GFSSGP_con_sbcape_006.txt.gz
CAPE
1094 1116 1552 1261 898 53 18 18 78 26 110 99 178 359 0 90 217 312 318 589 656 407 522 1221 2512 2348 2101 2214 2250 2371 2313 2792 2919 2818 2589 2638 2781 3187 3086 3030 3061 2963 2659 2300 2256 2226 2295 2313 2242
653 1620 1303 1405 127 1 22 11 0 0 1 168 280 480 572 510 412 513 589 556 507 447 517 856 2540 2611 2604 2345 2266 2435 2459 2580 2858 2763 2680 2785 2871 2908 2818 2761 2598 2550 2565 2200 2283 2193 2014 1890 1916
494 1394 1381 423 32 26 37 15 12 17 19 49 178 324 422 674 677 752 633 687 869 1362 1350 1859 2752 2678 2531 2577 2895 2957 2853 2931 2944 2855 2652 2618 2440 2015 2166 2141 2236 2323 2396 2280 2174 2048 1902 1803 1735
1500 887 1258 1 0 16 0 0 0 22 4 104 201 229 579 870 897 882 837 1044 1394 1448 1248 2239 2712 2605 2799 2699 2769 2986 2880 2885 2893 2738 2699 2450 2291 2174 2100 2179 2217 2244 2278 2246 2189 2011 1863 1761 1653
1541 1106 227 16 40 50 34 6 1 5 0 68 267 319 586 1336 1244 1194 1239 1149 1166 1280 1333 1923 3266 3294 3092 2987 3025 3088 2892 2743 2683 2513 2105 2510 2483 2085 2136 2205 2150 2095 2070 2006 1901 1811 1687 1576 1689
560 634 135 88 41 72 8 7 20 3 42 107 268 396 564 1045 928 1313 1435 1444 1235 1226 1256 1530 2793 2716 2842 2875 2742 3076 2824 2664 2613 2510 2522 2573 2207 2056 1963 1984 2060 1963 1760 1739 1834 1805 1634 1581 1631
51 103 121 121 83 1 3 1 5 4 43 331 290 454 471 655 653 1361 1413 1454 1453 1472 1652 1830 1731 2294 2599 3128 2713 2867 2894 2624 2386 2435 2322 2220 2106 2052 2078 2074 1991 1703 1816 1821 1937 2104 1911 1950 1963
467 469 39 79 321 58 18 0 8 26 98 271 399 377 468 470 778 870 1174 1250 1492 1553 1961 2316 2147 1961 2225 2278 3075 2740 2940 2657 2354 2039 1987 2038 2168 2186 2191 2107 2289 2027 1863 1965 2107 2347 2307 2380 2482
507 89 59 2 120 257 296 216 121 85 238 370 510 412 534 423 733 842 1318 1526 1800 1561 1576 1551 2027 2489 2748 2247 2002 2939 2485 2589 2185 2012 2095 2309 1736 1425 183 0 880 2174 2090 2021 2157 2575 2835 2718 2704
5 0 18 7 109 233 18 173 413 474 516 436 178 546 524 499 527 1186 749 997 1185 1546 1611 1689 1802 2142 2315 1553 2304 2576 2195 1974 2080 2009 2521 2213 2176 2186 1113 145 961 2193 2192 2451 2599 2558 2931 2119 1554
1 0 1 118 175 278 47 637 452 566 559 498 404 585 537 566 584 537 1171 889 1451 1632 1385 1429 2631 2782 2450 2077 2301 2475 2210 1931 2066 2993 2992 2923 2831 895 2389 1242 1512 2738 2971 2266 2938 2557 2345 1823 1685
17 77 5 5 170 42 99 444 198 209 235 773 406 529 544 564 534 501 616 642 1230 1047 1538 1874 1767 2566 2812 1649 2101 2236 2207 2330 1313 2342 3252 3405 2650 2887 2678 2342 2406 2881 1995 2949 2599 2130 2616 2188 2099
22 4 0 43 37 6 96 391 464 49 534 419 316 498 575 533 510 485 513 598 1112 1127 1265 2113 2568 2869 3229 2386 3270 1674 1705 1486 2006 2587 2508 2621 3105 2958 2722 2853 2634 2747 2718 2023 2360 2592 2376 2149 2038
6 27 6 28 0 10 67 272 457 796 658 505 458 526 542 594 623 604 570 810 1003 1168 1231 1773 2524 3421 2988 3378 3664 3700 1786 1724 2404 2563 1922 1923 2274 2848 2690 2340 2597 2807 2062 2923 2382 2851 2469 2249 2164
0 6 18 2 31 16 3 252 587 782 825 792 818 782 722 677 628 660 598 919 1099 1073 1437 2063 2322 2941 3360 3431 3774 3453 3051 1491 2415 2052 2385 2843 2873 3358 2758 2581 2351 2243 2635 2886 2725 2535 2234 2198 1807
11 28 12 46 64 0 74 445 771 726 965 1106 1040 1001 1033 1064 986 855 673 822 919 1321 2131 1912 1420 2576 3068 3483 3396 3121 2640 2476 2908 3114 2207 2614 2955 3033 2843 2537 2086 2170 2484 2111 2598 2415 1955 1989 1851
11 21 18 65 33 18 34 322 714 671 653 681 1018 979 1149 1143 1485 1394 1347 1369 1979 2509 2657 2222 2361 2834 3274 3359 3581 3257 3255 3069 3128 2644 3155 2651 3056 2616 2649 2539 2626 2671 2047 1914 1849 1830 1795 1590 1277
0 10 59 68 30 66 81 210 377 328 422 531 623 584 790 843 765 1489 1650 1430 1746 2200 2207 2835 2578 3572 3143 3721 3385 3217 3025 2728 3025 3252 2838 3122 3060 2934 2257 2229 2305 1937 2052 2034 1698 1591 1614 1652 1742
32 13 1 24 89 149 69 109 200 94 213 489 558 485 454 407 1056 1173 1747 1970 1976 2119 3423 2863 3155 4129 4307 3601 3059 3403 2957 3658 2943 3465 3163 3132 3097 2351 2429 2506 2493 2349 2012 2150 2163 2045 1786 1357 1767
0 1 3 8 37 90 175 163 178 108 100 320 570 595 464 554 588 788 1000 894 1262 2688 3372 3828 4332 4411 4232 4382 4214 3687 3395 3417 3278 2782 3342 2719 2168 2378 2731 2787 2044 1727 1646 1685 1726 1923 1395 1315 1174
0 0 0 9 24 5 53 151 73 116 139 141 217 458 480 522 536 964 1165 1200 1454 2237 3063 3632 4331 4243 4007 4188 4413 3956 3395 3328 2525 2564 1686 1646 1253 1505 2114 2060 1927 1938 1875 1004 1297 1326 938 965 1327
0 0 0 0 12 14 0 3 177 112 55 120 89 159 236 339 542 687 981 1411 1534 2262 2772 3791 4279 4650 4461 3824 2842 2878 1591 907 2015 1709 1626 1096 1294 1383 1261 1595 1757 1790 1474 1405 1308 922 989 1152 916
0 0 0 0 0 0 1 3 169 172 66 60 68 97 126 194 295 431 594 959 1147 2007 2305 3482 4426 4190 3423 2774 1408 1503 1526 771 845 953 1127 1314 1427 1637 1185 1552 1706 1386 1251 1136 1120 1088 828 843 854
0 0 0 0 0 12 0 34 106 127 676 99 101 161 184 174 303 362 568 836 960 1637 2145 3276 3681 3281 2782 2097 1622 843 331 740 644 1178 921 838 919 949 1624 1114 1232 1358 1123 1028 773 1130 943 850 869
0 0 8 6 9 0 5 21 136 120 72 268 392 147 169 295 526 695 572 761 1213 1759 2363 3146 2887 2807 2425 1738 1367 491 352 578 717 1138 1060 957 697 960 1378 1200 1203 941 1012 968 946 803 747 656 557
0 0 2 29 14 15 23 22 122 70 176 371 678 576 220 162 709 883 1233 1114 1689 2090 2852 2480 2537 2465 2141 1780 1506 1055 818 1053 1165 1737 1103 696 720 844 892 701 919 1047 1083 1050 971 749 729 756 633
0 0 0 2 1 4 4 11 0 0 0 0 23 0 267 180 351 829 1258 1331 1951 2144 2535 2508 2498 2536 2142 1557 2332 1960 1784 1314 1065 845 935 816 1308 545 801 788 945 1171 1175 945 1135 757 688 782 646
0 0 0 0 27 31 19 9 27 124 5 0 0 0 59 443 558 553 860 1570 2260 2209 2383 2171 2373 2557 1804 1684 1723 1625 1716 1566 1456 1146 980 1081 1336 1221 1164 1030 1040 1081 1200 1194 940 729 576 534 553
0 0 0 0 5 32 28 13 62 156 38 1 0 0 0 52 502 1164 1179 1877 2413 1944 1996 1512 1799 2084 1579 1476 1764 1511 702 824 1345 1072 1030 1119 1512 1471 1396 1297 1168 1087 986 1161 900 972 746 481 674
0 3 11 10 63 36 80 2 2 0 0 0 0 0 0 133 448 1620 1415 2184 2253 2015 1711 1037 956 1266 1219 1295 1775 1573 1251 953 919 1066 951 1106 1289 1463 1418 1413 1248 941 972 974 693 760 765 738 673

GFSSGP_con_sbcape_009.txt.gz
CAPE
1347 1218 1112 1159 1418 601 0 47 99 34 25 60 108 21 203 421 166 34 191 230 384 727 1301 1401 2085 2167 2310 2440 2222 1990 2163 2640 2727 2787 3078 3189 3121 3151 3300 3233 3188 3037 2892 2244 2254 2334 2339 2210 2152
646 563 1126 1277 480 0 2 13 17 120 130 131 36 359 495 295 298 375 404 315 358 620 1206 1570 2113 2240 2175 2338 2239 2651 2516 2617 2802 2896 2942 3096 3151 3130 2940 2309 2343 2849 2562 2149 2192 2156 2047 2024 1890
769 610 1449 1262 1 0 0 5 24 183 166 328 350 376 360 358 451 424 358 394 454 597 1481 1795 2726 2572 2488 2438 2593 3038 2774 2994 2860 2940 3055 2905 2766 2356 2024 2169 2160 2217 2506 2147 2077 2060 2008 1955 1763
21 497 1134 137 0 0 0 1 22 159 131 317 773 767 693 550 567 551 1151 1175 906 1005 1550 2676 3033 3014 2964 3051 3115 3254 3124 2938 2919 2834 2624 2562 2511 2111 2006 2048 2105 2177 2172 2140 2074 1978 1935 1870 1756
874 508 228 0 0 0 0 0 0 108 153 860 914 817 807 789 692 888 1106 1113 1047 1206 1659 2150 2913 2941 2893 3132 3160 3108 2978 2878 2930 2703 2501 2692 2796 2173 2208 2069 1987 1905 1903 1850 1776 1728 1671 1728 1717
1 49 122 0 0 0 0 0 51 298 315 846 1199 1071 1037 891 743 835 1058 1114 1042 1216 1913 2246 3031 3181 3241 2814 2559 3158 2821 2638 2747 2723 2992 2801 2823 2577 2398 1924 1874 1768 1605 1617 1735 1832 1724 1704 1815
7 192 42 19 0 0 0 0 0 122 317 416 1328 1136 908 1102 1083 1061 1028 1056 1058 1146 1496 2077 2285 2345 2823 3066 2926 2704 2887 2671 2879 2864 2790 2759 2308 2044 2009 1958 1921 1639 1609 1743 1871 2380 2369 2398 2569
231 80 24 140 41 0 0 0 20 221 287 431 476 638 583 1035 1197 1340 1133 1058 1043 1176 1417 1429 1809 2077 2411 2513 2873 2364 2759 2395 2784 2652 2310 2580 2154 1838 1616 1262 1836 2045 1939 1891 2177 2679 2643 3020 2944
303 247 60 40 20 10 44 0 55 210 309 415 348 490 424 1246 1282 1172 1230 1314 1224 1402 1303 1275 1175 1533 1784 2213 2473 3038 2639 2851 2681 2365 2488 2361 1565 173 170 933 800 1527 2305 2220 2455 2488 2262 2934 2359
544 445 17 44 17 38 278 425 413 271 343 345 390 303 652 767 971 1176 1430 1241 1160 1233 1424 1350 1383 1492 1528 1673 2050 2081 2043 2021 1813 1763 1678 1513 1163 778 942 713 619 1121 2522 2808 2922 2413 2567 2652 1666
487 184 81 69 7 226 361 320 285 647 186 310 375 257 344 793 967 1198 1369 1293 1196 1133 1069 966 1325 1380 1617 1440 1521 1780 1679 1558 1600 1593 1561 1478 1434 881 1357 554 1204 1429 1945 1761 1955 2224 1869 1870 1542
5 97 122 35 179 295 61 40 0 60 157 450 355 304 353 336 672 682 592 769 1127 1036 1098 1382 1758 1711 1453 1531 1625 1653 1521 1411 1339 1538 1773 1748 1470 1288 1427 1171 1273 1422 1355 1663 1177 940 1613 1424 1139
6 2 24 13 4 195 181 2 0 12 20 418 354 391 397 325 270 464 426 723 538 1050 1431 1470 1559 1999 1398 1236 1809 1342 1483 1671 1306 1676 1762 1817 1608 1488 1243 1458 963 1437 1417 1049 1443 1473 1215 1403 1488
1 1 24 3 67 297 453 14 69 25 63 293 298 348 339 341 312 307 459 686 581 760 1453 1660 1620 2095 1917 2119 2036 2178 1837 972 1389 1685 1688 1866 1875 1697 1597 1207 1278 1603 1193 1583 1312 1301 1269 1165 1283
3 0 0 0 0 192 277 439 609 351 174 234 311 327 357 350 373 385 451 569 582 645 1639 1822 1942 2112 1827 1986 2199 2427 2112 1683 918 1310 1361 967 1022 1555 1479 1135 1308 1158 1192 1535 1570 1642 1592 1433 1361
6 0 0 0 0 107 307 419 583 425 293 258 327 377 436 398 476 402 555 515 651 459 1062 1791 2195 2204 2014 2125 2410 2299 2109 1710 1747 1722 1400 1495 1809 1279 1550 1268 1196 1237 1277 1188 1058 1089 1036 905 887
0 0 2 0 0 0 131 443 503 507 540 606 588 589 654 607 537 444 617 491 565 1171 1164 1072 1543 2185 2155 2372 2379 2248 2249 2060 1944 1626 2078 1923 2144 1802 1482 1546 1644 1659 1379 1128 1099 1233 858 804 779
0 0 1 5 0 0 70 451 405 479 661 692 747 863 948 952 824 756 751 932 1125 1438 1187 1525 1449 2057 2293 1912 2108 2300 1888 1660 1718 1989 1536 1568 1643 1621 1339 1278 1162 1163 1177 1086 1048 889 818 920 870
0 0 4 0 0 0 8 232 357 273 238 274 422 524 608 818 921 1042 1045 1036 1469 1288 1390 1537 1807 2312 1856 1925 1732 1972 1242 1809 1710 1737 1930 1815 1646 1656 1568 1307 1455 1317 1129 1074 1077 1000 988 627 652
0 7 5 33 3 25 12 88 121 92 69 192 296 257 356 334 1232 1215 1137 896 1284 1316 1909 1781 2206 2423 2118 2250 2229 2283 2212 1946 1995 1927 2090 1653 1615 1607 1716 1472 802 585 692 389 193 352 300 473 527
0 0 16 60 71 54 56 77 105 98 44 146 279 179 183 463 950 1259 1366 1196 1430 1868 2006 2158 2450 2342 2477 1982 2656 2327 2002 1804 1029 717 573 222 119 494 425 420 431 604 498 331 357 331 312 314 326
0 0 0 8 64 28 85 61 28 7 0 99 233 168 145 265 169 377 389 611 1910 1972 2303 2692 2398 2278 2507 2489 2223 1682 1196 20 415 307 166 91 416 210 199 250 502 331 346 353 297 376 241 269 198
0 0 0 0 0 3 30 2 46 19 0 45 86 207 113 157 217 445 430 591 1294 1937 2119 2649 2329 2735 2440 441 642 76 0 0 27 8 0 0 1 204 382 491 216 233 160 152 250 77 164 130 136
0 0 0 0 0 0 0 0 37 8 54 38 51 43 68 142 281 392 573 674 1241 1633 2367 2734 2876 1679 950 117 16 0 0 0 0 4 0 19 0 63 440 184 73 191 213 198 64 145 92 19 6
0 0 0 0 0 0 0 0 13 61 50 4 15 8 1 60 238 327 487 648 1251 1668 2251 2815 1668 978 568 118 113 0 0 0 0 0 27 30 0 107 108 51 217 0 24 35 95 39 11 28 0
0 0 0 0 0 0 0 0 3 118 99 65 22 6 22 2 50 125 192 294 1120 1542 2409 2230 1248 1143 602 387 46 0 0 0 6 318 60 0 0 1 60 2 106 93 146 178 125 28 7 24 12
0 0 0 0 0 0 1 2 33 60 58 75 77 9 0 0 32 36 113 245 965 1539 2298 1670 1260 1135 747 458 49 18 28 18 133 28 0 0 141 0 26 27 44 136 243 273 71 43 66 6 0
0 0 0 0 0 0 1 29 17 1 14 43 127 9 15 1 74 130 149 501 1072 1740 1799 1455 1194 1032 879 514 351 349 326 186 92 46 0 13 0 79 51 136 155 155 76 143 209 11 0 0 0
0 0 0 0 0 0 12 9 86 20 0 0 0 12 26 66 94 333 546 755 1219 1669 1621 1312 1196 1062 782 573 476 471 605 322 177 89 5 23 97 303 256 229 154 108 160 212 232 80 85 64 46
0 0 0 0 0 8 19 25 0 0 0 0 0 0 0 45 44 283 308 573 1324 1509 1333 1202 1251 991 438 590 538 408 0 6 133 46 17 11 51 105 161 130 193 175 105 115 109 6 81 91 70

GFSSGP_con_sbcape_012.txt.gz
CAPE
2311 1307 884 819 768 0 22 111 20 61 53 139 130 126 279 458 33 22 83 395 882 1080 1224 1571 2206 2358 2033 2471 2067 2229 2696 2833 2929 2979 2990 3209 2913 2987 3113 2953 2560 2602 2347 2275 2419 2439 2276 2129 2129
898 948 1004 1143 367 0 0 41 104 55 61 139 263 437 349 429 302 255 310 651 1077 1000 1242 1612 2323 2560 2018 2183 2508 2726 2455 2378 2927 3077 3107 3117 3131 3025 2375 2200 2332 2288 2233 2290 2234 2127 2100 2020 1898
650 430 1096 1076 60 0 55 137 246 71 120 233 364 387 339 395 440 358 367 741 1099 1150 1195 1505 2427 2589 2214 2472 2879 2702 2677 2458 2845 2981 3078 3117 2483 2142 2262 2147 2078 2204 2200 2146 2123 2057 2026 1948 1784
487 397 311 252 0 17 179 455 420 194 104 591 787 612 519 565 536 431 419 638 1082 1350 1413 2406 2645 2148 2395 2793 2772 2871 2534 2735 2643 2832 2360 2236 2015 1865 2093 2110 2170 2212 2199 2094 2028 1997 1986 1911 1830
390 55 31 0 0 34 226 411 285 536 720 729 664 719 703 781 987 714 714 759 975 1430 1768 1997 2356 2425 2615 2728 3198 2944 2729 2312 2577 2444 2241 2352 2310 2073 2127 2096 2021 1966 1941 1885 1838 1770 1720 1770 1775
37 7 38 11 0 0 150 196 636 1030 926 745 776 725 642 935 1176 1108 973 849 1113 1440 1807 1879 2383 2399 2664 2756 2495 2866 2546 2125 2440 2549 2559 2633 2276 2150 2027 1934 1926 1861 1702 1664 1711 1770 1707 1740 1731
23 25 2 35 0 45 289 325 989 1108 1047 975 872 626 658 813 1009 1128 1091 1042 1378 1852 1994 2084 2068 2153 2428 2995 2507 2344 2336 2131 2321 2495 2336 2423 2073 1888 1840 1864 1893 1749 1590 1661 1812 2006 2298 2228 2239
75 63 0 0 0 0 126 120 484 1006 1113 1052 866 882 708 637 879 1088 960 1046 1285 1643 1914 1984 1968 2127 2329 2435 2718 2023 2184 2148 2148 2147 2210 2193 2028 1937 1835 1430 2043 2049 1942 1956 1952 2242 2368 2470 2511
86 24 0 0 2 0 1 179 317 623 1177 894 830 853 985 929 1002 1032 997 1040 1127 1521 1581 1672 1817 2035 2065 2129 2111 2795 2252 2403 2279 2164 2116 2691 1766 1243 224 592 1194 1499 2058 1945 2418 2243 2063 2381 2160
177 64 43 4 4 107 77 198 223 494 729 531 577 881 1280 1273 1116 1105 1092 1104 1116 1214 1115 1280 1559 1780 1808 2379 2067 2149 1845 2051 1898 1833 1665 1676 1264 817 502 740 1330 1027 1164 2197 2425 2246 2401 2082 1750
137 109 16 11 22 222 248 274 312 358 359 493 714 1232 1333 1317 1214 1268 1273 1180 1266 1252 1193 922 1119 1330 1486 1704 1635 1705 1690 1638 1501 1354 1258 1209 1140 837 1192 897 577 858 1452 1490 1634 1588 1531 1395 1366
1 0 3 17 388 130 119 49 16 254 295 317 1084 1301 1357 1252 1217 1335 1171 1160 1077 1182 1173 1103 1161 1385 1261 1464 1541 1575 1493 1356 1363 1220 1268 1217 1153 721 565 862 794 953 1062 1221 869 817 1025 1178 1071
0 0 24 187 113 51 7 0 36 203 283 180 626 901 1022 995 1144 1336 1129 1059 1111 1012 979 1169 1391 1410 1224 1325 1335 1374 1521 1418 1180 1144 1137 1457 1360 1109 904 1003 797 729 909 709 1072 1120 913 913 894
19 8 73 227 160 54 0 0 79 323 278 214 197 365 474 847 682 368 734 910 904 1058 1312 1586 1550 1321 1019 1043 1473 1210 1334 1553 1219 1196 1179 1411 1488 1400 873 1025 671 1101 876 1097 1182 1094 1036 1053 1050
35 10 90 218 321 348 192 316 155 175 317 286 262 219 180 137 229 357 583 347 620 1198 1432 1482 1597 1462 1236 1640 1495 1645 1449 1126 778 1223 1263 1384 1395 1309 1174 805 759 755 813 1035 1167 923 897 863 851
0 0 0 32 308 319 473 459 146 210 260 227 288 281 255 160 122 268 371 213 351 1059 1297 1385 1644 1537 1162 1435 1738 1952 1718 1382 1069 934 1004 1139 893 985 1088 664 771 808 799 963 592 697 772 720 617
0 0 0 0 17 186 299 380 169 96 197 243 242 240 243 171 94 195 287 256 173 752 1252 1546 1484 1419 1414 1592 1855 1870 1784 1617 1319 1163 1277 1420 1657 1593 1152 883 977 1035 678 623 643 780 607 612 547
0 0 0 0 0 54 247 321 255 140 125 186 208 185 223 208 174 189 244 302 202 372 902 1499 1439 1673 1709 1817 1765 1839 1670 1514 1172 1376 1166 1420 1055 1042 940 920 767 784 751 639 538 511 357 593 518
0 0 0 0 0 115 146 238 357 291 230 213 230 250 304 259 160 230 323 321 531 624 525 767 1143 1589 1593 1528 1463 1333 1273 1033 1126 1044 1256 1089 1119 1180 899 691 952 935 685 396 97 288 435 323 246
0 0 0 8 0 4 117 204 251 316 361 416 402 490 459 476 369 447 503 737 832 755 648 952 1209 1703 1484 1425 1093 1369 1208 1020 1160 1169 1392 1245 1212 1062 1101 851 462 314 214 46 101 62 50 65 156
0 0 2 15 8 9 105 50 58 150 283 123 358 585 607 658 550 566 650 759 903 814 1117 1073 1592 1364 1302 1370 1489 1588 1404 1141 471 313 531 161 175 294 133 120 68 130 15 62 65 76 72 37 9
0 0 4 37 42 32 28 32 10 40 15 1 79 263 354 763 743 766 749 553 973 1096 1361 1368 1674 1661 1653 1325 1893 1674 663 529 21 17 0 2 9 0 0 5 77 52 18 31 58 73 54 36 3
0 0 0 57 58 34 27 30 34 0 0 8 8 68 107 822 906 980 879 683 1118 1379 1663 1598 1520 1592 1759 1654 1385 1002 6 0 0 0 0 0 0 0 48 77 0 0 0 0 2 0 4 2 19
0 0 0 0 0 9 20 2 0 14 30 3 0 104 76 570 901 1044 1045 696 1253 1425 1741 1859 1408 1505 1526 312 78 0 0 0 0 0 0 0 0 7 9 0 0 0 0 0 0 0 0 0 0
0 0 0 0 0 0 0 43 5 1 20 13 0 91 76 223 483 835 645 755 1388 1469 1703 1987 1504 1473 642 0 0 0 0 0 0 0 0 0 0 0 0 0 0 0 0 0 0 0 0 0 0
0 0 0 0 0 0 0 0 0 3 22 2 0 82 82 165 136 257 141 451 1356 1382 1493 2062 1611 1257 181 0 0 0 0 0 0 0 0 0 0 0 0 0 0 0 0 0 0 0 0 0 0
0 0 0 0 0 0 0 0 0 1 11 6 0 25 41 76 82 166 269 337 1052 1371 1540 1822 1441 802 118 0 0 0 0 0 0 0 0 0 0 0 0 0 0 0 0 0 0 0 0 0 0
0 0 0 0 0 0 0 0 0 36 26 16 0 0 0 23 59 103 231 364 990 1442 1651 1881 1222 641 52 0 0 0 0 0 0 0 0 0 0 0 0 0 0 0 0 0 0 0 0 0 0
0 0 0 0 0 0 0 0 0 6 15 15 37 28 0 0 32 134 194 239 914 1236 1780 1805 1189 524 46 24 0 0 0 0 0 0 0 0 0 0 9 0 0 0 0 0 0 0 0 0 0
0 0 0 0 0 0 0 0 0 0 0 2 37 34 0 0 0 47 68 102 721 1112 1882 1609 1101 460 158 95 0 13 71 63 10 8 0 0 0 5 4 0 0 0 0 0 0 0 0 0 0

GFSSGP_con_sbcape_015.txt.gz
CAPE
1661 1192 569 507 421 35 79 58 47 62 32 90 181 232 264 182 34 0 37 229 399 381 529 1242 1675 1571 1638 1962 2095 1983 2203 2231 2756 3061 2777 2846 2562 2467 2512 2562 2481 2362 2226 2286 2307 2139 1975 1974 2002
1501 1070 849 828 0 45 50 66 59 12 76 233 394 349 349 226 230 229 207 642 839 980 1089 1413 1937 2235 1752 2269 2501 2564 2432 2213 2948 2893 2997 2792 2424 2473 2312 2376 2308 2159 2186 2167 2045 1974 1912 1888 1876
936 848 989 705 0 16 33 11 0 0 122 283 336 348 327 266 241 225 329 955 941 1061 1299 1711 2238 2322 1939 1954 2549 2510 2397 2204 2407 2498 2373 2396 2160 2016 2111 2041 1947 2025 2069 2083 2014 1944 1905 1852 1739
406 335 94 0 21 21 95 34 2 124 205 584 486 464 553 527 384 362 616 1012 996 1109 1285 2168 2214 2027 2103 2184 2398 2130 2099 2259 2604 2706 2316 2018 2020 2152 2073 1957 2069 2128 2081 2004 1944 1899 1862 1846 1820
136 0 0 0 46 307 331 166 64 178 454 599 534 520 704 727 380 463 780 836 947 1160 1528 1784 2671 2599 2518 2066 2277 2130 2095 2236 2417 2288 2003 2008 1923 2024 2008 2047 2023 1973 1955 1922 1861 1767 1688 1721 1712
4 0 0 0 79 371 393 248 248 743 752 642 557 607 848 543 517 618 767 864 1297 1476 1590 1707 2249 2571 2621 2081 1955 2063 1854 1882 2022 2236 2317 2246 2134 2162 2087 1966 1886 1828 1762 1754 1654 1798 1822 1716 1739
9 0 0 0 43 246 354 635 831 654 526 597 543 605 993 872 772 769 635 936 1231 1638 1612 1520 1558 1815 2372 2892 1943 1964 1995 1972 2046 2444 2383 2280 2168 2057 2010 1963 1921 1799 1709 1672 1848 2051 2288 2310 2267
5 0 0 0 90 146 555 678 731 803 885 629 578 585 762 1071 1062 1056 874 1084 1487 1709 1848 1791 1687 1703 1906 2218 2281 2003 1976 1776 2190 2341 2309 2262 2031 1865 1977 1866 1840 1892 1941 2015 2102 1853 2213 2331 2353
10 0 0 0 0 43 162 674 919 921 813 446 584 646 785 1149 1046 894 962 1243 1510 1845 1799 1778 1806 1891 2020 1995 1927 2389 2018 2188 2208 2133 2273 2519 1817 1557 1321 1299 1450 1577 1887 1759 1732 1979 2296 2228 2178
131 3 1 0 0 90 52 623 665 495 694 694 703 642 789 1051 983 922 956 1083 1370 1604 1644 1703 1727 1831 1896 2202 1874 1980 1544 1897 1907 1895 1816 1863 1562 1204 625 549 1208 1539 1384 1605 2290 1951 2197 1823 1355
83 136 1 0 14 22 185 291 410 663 565 699 931 837 871 965 1021 962 988 907 1030 1275 1350 1462 1657 1660 1790 2034 1770 1869 1682 1619 1545 1445 1338 1449 1166 825 1141 1148 693 637 1243 1271 1415 1370 1473 1274 969
88 2 0 0 185 106 143 172 376 484 389 679 1016 1056 1028 1052 1062 1037 1000 901 899 967 1034 921 1204 1463 1574 1468 1660 1622 1637 1472 1308 1210 1117 1042 1020 982 577 762 655 710 943 894 785 647 758 972 895
0 0 0 26 25 66 6 9 282 275 418 675 1186 1257 1234 1125 1082 1136 1102 1039 1044 1057 1040 833 957 1227 1244 1305 1548 1447 1498 1539 1276 1170 1008 1123 1091 1083 748 733 799 733 890 607 937 808 774 780 797
0 0 19 28 0 0 1 65 240 311 944 1134 1309 1276 1276 1204 1171 1214 1051 1005 985 1028 923 962 1077 1193 1022 1201 1206 1210 1279 1467 1379 1087 1177 1003 1202 1326 794 666 708 657 746 891 955 827 975 966 837
0 7 45 34 29 0 40 142 268 254 957 1105 1301 1267 1262 1095 1136 1209 967 898 930 829 891 1252 1345 1095 953 927 1045 1063 1156 923 1000 1032 1154 1127 1141 1212 1072 875 502 567 546 739 862 604 592 637 574
0 0 62 88 79 46 215 216 281 195 350 576 646 945 971 853 790 543 726 751 787 704 1021 1350 1647 1203 916 916 1127 1205 1302 1066 812 789 780 1001 1114 933 868 634 519 550 564 748 576 608 688 628 472
0 0 9 142 86 191 212 155 190 157 101 130 168 460 273 322 188 240 475 346 437 734 1023 1227 1415 1262 947 1022 1229 1281 1335 1097 884 903 826 950 971 1075 1090 544 549 643 508 500 558 721 538 439 329
0 0 12 98 172 50 151 164 106 129 78 74 96 119 142 87 57 186 303 101 431 764 912 1035 1163 1094 926 1056 1334 1288 1293 1147 1088 1003 1030 1125 1050 1121 691 608 670 525 430 296 221 254 237 363 418
0 0 21 61 16 109 136 137 96 110 69 71 80 77 86 92 53 91 182 98 104 625 788 1002 1004 1041 1124 1225 1275 1176 1413 1207 888 758 878 886 918 939 803 445 453 418 186 26 22 63 180 140 133
0 0 0 0 12 107 103 192 75 60 64 90 112 105 98 105 75 65 109 120 87 267 497 688 968 1141 1257 1127 896 870 775 633 707 771 935 1196 878 872 519 440 341 147 6 0 2 0 0 22 67
0 0 0 0 17 58 106 142 164 133 112 93 103 110 85 92 89 75 128 138 209 239 223 477 694 1114 1308 1112 879 1094 1081 866 557 189 576 793 840 992 894 201 6 0 0 0 0 0 0 0 3
0 0 0 1 7 10 78 101 109 136 207 212 217 178 153 142 147 132 206 260 349 367 360 454 810 1042 1178 1049 1128 1289 1273 685 73 22 0 0 2 0 0 0 0 0 0 0 0 0 0 0 0
0 0 0 5 2 25 22 17 43 25 79 178 179 156 284 235 248 174 242 350 430 429 691 770 1083 1129 1191 1024 1263 1219 486 10 0 0 0 0 0 0 0 0 0 0 0 0 0 0 0 0 0
0 0 0 0 0 7 26 10 0 8 99 90 101 37 292 307 446 312 287 287 406 590 823 1113 1191 1231 1187 1089 927 1044 300 0 0 0 0 0 0 0 0 0 0 0 0 0 0 0 0 0 0
0 0 0 0 0 0 0 3 0 0 68 84 57 0 139 238 537 548 529 415 423 792 973 1238 1217 1239 1164 991 472 149 0 0 0 0 0 0 0 0 0 0 0 0 0 0 0 0 0 0 0
0 0 0 0 0 0 0 0 13 0 6 57 37 0 54 99 551 690 726 588 480 846 1057 1284 1350 1209 959 341 15 0 0 0 0 0 0 0 0 0 0 0 0 0 0 0 0 0 0 0 0
0 0 0 0 0 0 0 0 0 0 0 16 9 0 19 52 505 777 849 719 571 858 1088 1334 1386 1202 799 66 0 0 0 0 0 0 0 0 0 0 0 0 0 0 0 0 0 0 0 0 0
0 0 0 0 0 0 0 0 0 0 2 0 6 0 12 64 218 611 861 672 788 1067 1160 1316 1526 1286 695 0 0 0 0 0 0 0 0 0 0 0 0 0 0 0 0 0 0 0 0 0 0
0 0 0 0 0 0 0 0 0 0 0 0 0 0 4 50 117 206 501 441 578 1218 1287 1330 1604 1207 154 1 0 0 0 0 0 0 0 0 0 0 0 0 0 0 0 0 0 0 0 0 0
0 0 0 0 0 0 0 0 0 0 0 0 0 0 21 60 66 110 181 272 235 818 1237 1384 1483 1035 279 32 0 0 0 0 0 0 0 0 0 0 0 0 0 0 0 0 0 0 0 0 0

GFSSGP_con_sbcape_018.txt.gz
CAPE
1619 998 556 646 32 0 2 9 17 36 45 76 179 138 131 110 33 2 14 106 166 239 402 1002 1304 1169 1218 1159 1042 988 1480 1668 2285 2516 2683 2575 2193 2308 2351 2513 2380 2308 2178 2155 2089 2022 1904 1951 1895
1217 622 671 646 0 0 0 0 3 10 40 213 275 237 181 106 172 107 131 412 427 470 529 852 1384 1538 1641 1671 1935 2140 1963 1889 2775 2911 2799 2667 2427 2316 2370 2307 2154 2065 2096 2014 1956 1964 1856 1806 1779
1035 768 795 283 0 0 0 0 0 132 247 285 273 256 182 133 168 136 209 683 885 724 817 1256 1710 2104 1801 1873 2300 2490 2394 2226 2499 2507 2272 2213 2132 2063 2169 2036 1898 1971 2030 2019 1973 1920 1861 1788 1738
777 342 42 0 0 13 0 0 0 128 315 342 277 363 389 149 233 288 743 849 1031 1102 1232 1648 1899 1640 1793 1865 2235 2187 2238 2117 2317 2334 2174 1919 1957 2056 1998 1859 1969 2001 2002 1972 1899 1837 1789 1840 1871
85 0 0 0 45 252 78 20 104 176 491 411 389 478 489 386 357 675 806 796 921 1120 1570 1677 2063 2221 2174 2244 2368 2408 2080 1836 2262 2258 1925 1924 2037 2052 1975 2002 1982 1926 1925 1898 1815 1692 1641 1551 1567
14 0 3 16 222 317 200 59 200 626 600 448 379 450 532 314 366 744 759 787 1112 1269 1422 1713 2046 2306 2271 1905 1951 2172 2156 2228 2186 2044 2052 2018 2025 2020 2011 1877 1796 1802 1766 1794 1676 1875 1954 2030 1866
17 0 0 7 257 372 280 196 627 624 544 421 376 459 432 378 515 676 684 1062 1371 1488 1380 1495 1758 1816 1901 2507 1869 1931 1931 1948 2129 2276 2272 2186 2141 2098 1999 1931 1910 1881 1848 1821 2005 2048 2128 2133 2035
0 0 0 0 271 237 377 714 509 400 518 445 474 361 407 515 640 517 795 965 1344 1454 1392 1307 1397 1598 1804 1885 1823 1795 1887 1870 2212 2370 2254 2120 2012 1887 1890 1960 1888 1967 1892 1787 1940 2103 1868 2209 1957
0 0 0 0 77 67 470 709 497 617 484 361 537 404 653 778 784 658 886 1168 1401 1572 1455 1453 1432 1444 1692 1759 1643 2057 1926 1784 2140 2146 2223 2503 1563 1598 1928 1722 1590 1597 1641 1957 1982 2301 2218 1985 1787
0 0 0 0 0 106 201 585 647 468 390 562 564 916 1044 994 822 712 728 588 791 1210 1473 1486 1480 1530 1661 2056 1716 1706 1420 1711 1792 1793 1552 1713 1651 1392 1503 791 1502 1500 1700 1777 2103 2318 2203 1764 1488
14 1 0 0 0 96 86 546 297 249 567 533 599 930 1111 943 855 745 655 608 636 941 1232 1528 1509 1534 1691 1768 1592 1540 1405 1391 1538 1468 1418 1243 1368 947 1036 1253 1048 736 1144 1456 1600 1487 1701 1516 1239
7 26 0 0 0 0 220 182 359 470 295 498 564 878 1084 985 846 681 739 788 941 1229 1342 1457 1451 1449 1478 1528 1609 1419 1518 1363 1303 1218 1133 986 882 875 791 590 825 755 969 1036 956 824 1128 1184 977
0 0 0 35 0 0 54 120 343 419 358 583 568 821 915 960 925 803 790 683 708 941 974 1094 1150 1305 1320 1249 1440 1386 1415 1360 1054 1091 965 912 916 993 887 557 792 851 914 679 1077 1114 1117 952 1052
0 0 9 0 2 0 33 65 320 230 695 826 745 774 856 923 1004 957 877 764 758 739 780 737 913 1033 1026 1121 1164 1281 1174 1230 1247 1149 1175 900 952 1134 775 632 742 520 982 936 1055 981 1167 1158 916
0 18 3 0 0 1 23 75 121 399 790 978 1005 984 1002 1006 963 1011 962 855 868 823 800 728 799 869 910 1012 981 943 997 1094 1086 919 937 1008 781 938 1230 631 613 522 605 655 842 749 703 851 782
0 1 25 16 0 0 56 75 140 760 813 1021 1037 1086 1120 1042 1005 1001 972 805 767 791 617 870 1018 939 847 807 829 816 833 929 752 598 585 855 1003 967 902 916 548 507 478 737 769 737 836 723 541
0 0 2 40 0 0 55 45 168 693 789 961 1051 1047 1118 1005 910 947 985 722 625 682 572 834 1132 1117 884 749 714 855 1054 981 802 669 768 685 965 1022 930 967 334 639 587 580 673 688 556 452 422
0 0 0 35 45 45 58 70 137 242 559 655 788 883 881 753 686 711 532 679 520 451 519 850 1117 1134 870 664 789 920 858 963 941 927 827 904 1024 1279 904 677 716 769 341 214 98 114 148 268 347
0 35 27 16 36 64 88 97 119 91 135 179 155 260 542 307 186 236 185 325 245 374 593 768 897 832 653 820 925 972 1197 1074 844 742 893 873 954 919 620 763 425 301 107 16 0 27 90 114 71
0 1 8 4 0 59 67 106 45 86 66 56 54 46 95 86 0 11 104 67 164 479 615 706 793 661 812 817 720 696 704 592 590 553 696 917 926 868 473 355 447 90 0 0 0 0 0 7 39
0 0 0 4 10 25 48 94 51 76 80 54 33 29 24 27 0 0 45 56 75 322 518 686 749 727 867 724 541 612 571 557 455 297 646 909 812 816 700 363 30 5 0 0 0 0 0 0 0
0 0 0 0 12 3 50 15 32 47 81 68 74 67 55 50 39 5 25 60 79 112 345 531 626 694 841 701 729 899 941 1041 534 59 17 104 223 242 241 10 0 0 0 0 0 0 0 0 0
0 0 0 0 7 20 35 6 9 40 53 96 90 73 76 48 49 27 25 47 94 120 111 189 316 537 799 842 925 800 613 316 0 0 0 0 0 0 0 0 0 0 0 0 0 0 0 0 0
0 0 0 0 0 0 0 0 0 2 128 131 154 158 136 101 85 78 46 62 90 130 165 196 302 487 639 805 810 821 623 0 0 0 0 0 0 0 0 0 0 0 0 0 0 0 0 0 0
0 0 0 0 0 0 0 0 15 0 47 111 135 160 192 163 139 140 97 100 128 162 231 393 404 541 738 839 829 876 557 0 0 0 0 0 0 0 0 0 0 0 0 0 0 0 0 0 0
0 0 0 0 0 0 0 0 14 19 4 27 82 93 139 123 212 222 133 136 144 246 303 432 593 679 807 900 808 466 174 0 0 0 0 0 0 0 0 0 0 0 0 0 0 0 0 0 0
0 0 0 0 0 0 0 0 0 0 0 0 0 27 41 52 257 295 272 191 179 220 377 503 664 790 837 958 640 2 0 0 0 0 0 0 0 0 0 0 0 0 0 0 0 0 0 0 0
0 0 0 0 0 0 0 0 0 0 0 0 0 0 16 0 167 320 428 377 337 319 425 611 710 845 813 762 193 3 0 0 0 0 0 0 0 0 0 0 0 0 0 0 0 0 0 0 0
0 0 0 0 0 0 0 0 0 0 0 0 0 0 1 0 44 285 563 609 563 496 501 682 887 967 789 357 43 3 0 0 0 0 0 0 0 0 0 0 0 0 0 0 0 0 0 0 0
0 0 0 0 0 0 0 0 0 0 0 0 0 0 0 0 9 154 562 711 745 636 608 784 980 1196 989 383 59 0 0 0 0 0 0 0 0 0 0 0 0 0 0 0 0 0 0 0 0

GFSSGP_con_sbcape_021.txt.gz
CAPE
1307 1023 706 1006 100 17 19 17 37 38 114 230 175 76 156 211 57 71 139 231 160 302 580 796 1193 1181 1195 1057 1084 861 1124 1545 2112 2171 2324 1895 1904 2259 2368 2386 2366 2221 2190 2032 1986 1862 1847 1905 1951
1189 691 1019 1127 20 31 57 35 55 66 310 373 350 296 241 144 126 170 288 386 352 284 610 635 1194 1456 1312 1180 1161 1380 1361 1470 2290 2668 2539 2199 2149 2302 2344 2206 2063 2144 2107 1975 1945 1889 1900 1812 1797
698 868 1346 232 18 46 47 55 99 241 416 341 310 237 108 143 124 180 383 611 813 899 1045 1198 1394 1677 1621 1527 1349 1483 2083 1949 2260 2498 2249 2233 2250 2233 2207 1993 1936 2037 2064 2009 1892 1753 1763 1783 1838
930 798 287 10 20 149 46 64 440 505 540 376 118 196 206 159 172 308 642 808 845 1125 1139 1549 1442 1538 1557 1646 1627 2072 2401 2307 2509 2380 2075 2024 2010 2092 1925 1875 2002 2016 1947 1886 1780 1723 1668 1677 1680
430 54 0 60 233 272 78 82 317 512 594 353 297 207 154 723 430 581 820 777 861 1102 1422 1488 1715 1840 2116 2040 2081 2363 1852 1846 2089 2068 1937 2028 2066 2052 1966 2040 1982 1902 1842 1782 1688 1688 1766 1701 1620
406 0 59 17 219 340 111 216 619 793 645 457 296 209 480 756 441 576 786 970 912 1118 1420 1502 1691 1887 2441 1952 1739 2146 1836 1808 2033 1944 1948 1992 2105 2057 2058 1897 1814 1787 1762 1777 1790 2024 1927 2055 2006
134 33 50 239 307 310 258 307 654 762 590 463 353 234 561 457 456 628 706 903 1017 1273 1422 1598 1766 2075 1985 2409 2040 2124 2199 2146 2078 2121 2197 2157 2117 2117 2018 1925 1901 1873 1839 1986 2124 2011 1690 1422 1522
33 1 158 239 134 108 429 643 804 688 514 523 346 295 421 637 474 631 735 936 1006 1209 1531 1988 1989 1780 1555 1809 2044 2040 2013 2121 2232 2312 2277 2195 2082 1905 1893 2072 1781 1808 1925 1755 1847 1988 1591 1492 1495
1 7 169 238 263 140 599 664 713 746 630 448 666 468 440 702 480 567 775 974 1325 1430 1562 1658 1727 1745 1849 1767 1692 1869 1952 1923 2213 2269 2233 2123 1622 1747 1875 1899 1668 1224 1568 1759 2035 2020 2011 1704 1702
173 2 20 105 281 273 721 750 780 746 445 519 861 781 858 664 590 414 649 813 972 1181 1474 1438 1523 1493 1746 1344 1770 1836 1665 1393 1745 1932 2277 2076 1948 2026 1868 1727 1399 2031 2009 2013 2072 2036 1869 1674 1722
109 34 0 1 192 411 691 809 698 457 349 502 940 935 856 764 622 441 455 590 789 1041 1202 1516 1947 2096 1901 1840 2116 2068 1821 1605 1934 2273 2242 2271 1914 1865 1862 1859 1884 1913 1531 1939 1810 1835 1675 1887 1790
11 48 6 9 183 438 692 706 448 276 302 495 846 873 917 920 866 631 544 575 700 1015 1144 1329 1643 2133 2143 1833 1646 1734 1618 1722 1643 1631 2093 1920 1695 1820 1789 1919 1675 1962 1918 2195 1943 1807 2089 1888 1868
0 1 0 2 56 328 510 456 163 196 629 800 897 1007 978 964 1084 1141 832 711 881 1009 1126 1497 1768 1956 2265 2376 1646 1428 1695 1476 1635 1560 1539 1513 1406 1669 1705 2118 2085 1985 1967 1809 2423 2134 2074 1968 1842
0 3 73 6 74 322 285 419 307 331 724 859 948 959 990 1083 1189 1148 942 966 1054 1119 1196 1463 1781 2075 2280 2181 2326 1964 1892 1729 1782 1735 1520 1768 1564 1724 1795 2106 2173 2556 1834 1876 2132 2126 2259 1941 1803
0 49 119 50 118 183 214 375 443 483 678 723 820 981 1043 1125 1254 1197 996 1065 1038 1095 1093 1166 1439 1735 2089 1963 1953 1930 1957 2007 1805 1761 1995 2118 1779 1982 2000 2609 2338 1970 1845 2004 1904 2133 1738 1869 1645
7 15 71 83 47 98 98 156 377 683 734 656 636 785 936 1066 1244 1403 1221 1312 1126 1064 1067 1125 892 1216 1735 1843 1918 1913 1878 1889 1912 2453 2243 2368 2345 2412 2471 2269 2680 1802 1802 1641 1890 1725 1505 1384 1135
3 2 49 139 28 112 201 196 245 636 756 813 708 746 959 1184 1251 1362 1463 1475 1460 1421 1357 1320 1315 1411 1677 1966 1995 2135 2347 2277 2048 2137 2727 2235 2258 2343 2449 2650 2767 1672 1797 2149 1517 1342 1292 867 751
13 6 29 170 102 115 159 217 269 693 717 862 903 787 1084 1257 1402 1411 1465 1511 1480 1486 1594 1544 1537 1856 2127 2064 2191 2144 2329 2311 2330 2324 2333 2365 2514 2326 2520 2461 2116 1876 1792 1315 858 807 586 610 564
19 39 64 156 130 103 125 182 223 646 787 844 999 1028 1016 1164 1267 1341 1422 1471 1478 1476 1553 1601 1763 2492 2270 1999 1973 2039 2193 2281 2402 2378 1976 2389 2243 2142 2211 1855 1774 1738 1329 844 764 464 441 278 561
20 37 58 65 113 75 87 70 217 316 700 765 859 973 1055 1168 1224 1284 1308 1261 1398 1473 1539 1693 2094 2594 2462 2178 2103 1986 2211 2167 2300 2308 2357 2431 2384 2495 2052 2099 1705 1479 937 924 579 472 71 230 565
0 29 41 53 75 123 101 66 162 248 328 439 591 596 656 914 986 857 917 1071 1091 1272 1502 1844 2434 2707 2413 2301 2157 2098 1988 1948 2016 2107 2203 2226 2272 2359 2224 1720 1481 1421 895 296 416 287 360 20 173
0 0 61 97 81 112 127 70 108 301 397 383 360 374 344 385 572 589 549 773 933 1066 1400 1971 2186 2610 2270 2392 2163 2262 2046 1956 2025 1938 1833 2282 2304 2106 1920 1585 1484 1208 469 377 338 185 162 152 4
0 0 9 81 99 81 82 95 71 172 362 446 424 393 323 283 333 359 376 534 722 881 1104 1476 2205 2500 2768 2370 2621 2249 2153 2143 2089 1479 1250 1359 1536 1871 1858 1543 1031 700 268 519 264 177 213 107 87
0 0 0 9 47 33 16 52 21 116 330 405 305 364 358 314 295 309 325 409 621 728 905 1268 2078 2630 2639 2222 2254 2473 2610 2342 1637 1183 911 812 588 385 659 568 583 597 445 238 149 127 150 144 198
0 0 0 0 10 0 0 26 86 74 145 221 287 269 324 327 305 414 481 445 725 980 1141 1345 2023 2370 2410 2115 2379 2393 2537 2505 2074 1489 792 507 301 138 292 566 645 532 345 221 141 181 72 106 88
0 0 0 0 0 0 0 0 58 121 117 85 157 278 302 301 415 471 853 899 960 1066 1469 1597 1751 2014 2307 2014 2565 2682 2655 2276 1651 1641 752 274 237 126 386 568 598 422 203 137 100 85 118 107 136
0 0 0 0 0 0 0 0 0 7 15 21 58 91 260 412 555 467 526 750 1056 1304 1476 1703 1927 2063 2220 1963 2549 2477 2677 2368 1696 1443 446 253 234 151 316 421 463 207 63 110 225 94 264 222 270
0 0 0 0 0 0 0 0 0 0 5 35 40 35 145 382 526 569 830 1040 1225 1244 1559 1714 1948 2126 2174 2001 2255 2147 2145 1905 1667 491 42 99 137 181 350 391 275 183 172 202 293 145 90 195 206
0 0 0 0 0 0 0 0 0 0 24 24 30 17 35 183 434 720 1101 1200 1271 1285 1236 1511 1747 2139 2280 2362 2491 2461 1804 1310 48 253 9 1 22 94 302 257 198 283 288 249 290 253 174 235 300
0 0 0 0 0 0 0 0 0 0 0 2 0 0 9 101 263 583 842 1064 1238 1517 1214 1317 1689 1794 2104 2248 2352 1932 967 35 422 61 92 30 27 13 59 193 269 317 327 267 332 299 102 258 291

GFSSGP_con_sbcape_024.txt.gz
CAPE
1192 1340 1092 1654 1020 51 136 110 172 241 327 214 42 34 152 351 418 333 421 430 372 455 666 717 1097 775 732 981 1140 1231 1326 1242 1237 1726 1620 1668 2116 2415 2422 2334 2241 2235 2091 1963 1899 1863 1862 1795 1822
1502 1032 1134 1235 265 57 170 175 213 328 384 330 333 279 311 306 266 304 444 410 667 557 715 771 1234 1209 1230 1262 1178 1352 1333 1173 1827 1933 1778 1980 2223 2408 2273 2042 2158 2203 2068 1969 1882 1798 1754 1774 1752
1056 951 1637 228 63 66 59 153 300 518 418 280 422 280 267 280 276 439 511 482 539 751 760 1157 1191 1415 1392 1403 1479 1628 1753 1742 1842 2029 1845 2110 2286 2257 2044 1884 2049 2108 2010 1826 1703 1676 1700 1683 1782
1062 1439 1073 62 13 26 12 151 468 598 618 339 280 378 291 341 395 628 781 893 938 1024 974 1339 1538 1677 1717 1622 1772 1924 2026 1915 1814 1754 2102 2106 2061 2025 1795 1994 2042 1918 1847 1748 1678 1610 1604 1504 1447
1210 605 32 0 0 0 86 295 543 668 639 353 295 252 590 605 595 887 1004 916 977 1035 1116 1555 1863 1805 1813 1624 1825 1842 1804 1793 1923 2029 1982 1949 2044 1955 2001 2033 1858 1776 1711 1724 1708 1830 1801 1801 1767
997 238 13 2 0 18 106 256 564 714 748 481 345 647 842 666 985 1144 1081 948 911 916 1192 1191 1454 1772 1863 1693 1776 1882 1775 1959 2022 1926 1981 2103 2109 2012 2023 1832 1732 1720 1756 1873 2009 1926 1572 1544 1534
496 182 34 6 0 2 81 349 549 748 651 395 245 639 853 767 1036 1118 1067 900 881 1283 1119 1274 1502 1757 1846 2035 1681 1653 1721 1831 1893 1929 1992 2104 2069 2068 1935 1862 1814 1919 1962 1960 1860 1808 1349 1191 1342
537 116 86 15 19 27 129 297 517 552 726 449 276 480 847 691 869 920 906 954 1006 1204 1231 1786 1923 1609 1199 1434 1859 2102 2139 2070 2043 2309 2223 2145 2054 1877 1799 1922 1882 1636 1724 1837 1895 1917 1445 1368 1538
177 142 107 53 18 96 295 428 626 642 749 549 535 223 531 555 603 646 789 914 1122 1333 1272 1666 1748 1457 1427 1501 1898 2068 2032 2150 2248 2272 2175 1897 1395 1461 1485 1785 1395 1150 1711 1830 1824 1831 1559 1565 1660
265 195 75 51 31 86 301 317 740 660 589 598 810 424 572 518 650 716 843 1093 1167 1341 1443 1319 1204 1376 1533 1264 1758 1624 1506 1438 1568 1578 1878 1619 1305 1629 1662 1770 1807 1918 1895 1946 1721 1553 1618 1616 1493
370 330 44 44 123 125 412 411 410 303 370 507 887 813 688 579 649 731 865 1013 1151 1267 1222 1193 1145 1443 1522 1324 1469 1479 1437 1321 1565 1975 1984 1572 1593 1770 1891 1760 1954 1963 1926 1497 1747 1810 1597 1746 1814
207 35 0 16 218 118 427 362 268 219 151 325 727 859 659 576 551 589 771 911 1112 1297 1246 1331 1533 1591 1565 1498 1401 1383 1343 1374 1269 1193 1750 1665 1703 1688 1879 1627 1827 1735 1836 1779 1772 1771 2055 1936 1855
65 0 0 0 184 293 409 473 110 290 725 357 764 781 658 655 599 546 564 666 922 1219 1281 1470 1753 2236 2148 2071 1373 1184 1308 1178 1107 1123 1213 1331 1514 1758 1918 1908 1467 1527 1548 1788 1766 1814 1897 2074 1855
0 0 7 0 129 411 480 524 130 278 913 608 807 815 750 699 742 752 704 744 860 971 1089 1333 1680 1914 2057 2061 1998 1544 1345 1101 1184 1038 1108 1702 1767 1855 2134 1587 1704 1521 1588 1906 1902 1849 1951 1983 1912
0 0 60 79 319 531 381 595 629 585 884 773 830 868 708 728 815 1109 1131 1049 1109 1095 1055 1248 1664 1823 2195 2143 2158 1959 1355 1280 1255 1498 1877 2051 2083 1891 2345 1588 1416 1365 2079 2169 1783 1820 1817 1621 1401
0 0 66 278 448 516 438 525 569 735 926 884 731 717 640 750 865 1042 1017 1101 1133 1188 1272 1326 1208 1494 2048 2092 2083 1840 1609 1739 1714 1848 1699 2060 1928 2458 2283 2777 1313 1337 2020 1882 1689 1737 739 391 302
0 16 26 324 329 434 446 343 601 860 921 984 679 561 612 858 991 1165 919 1148 1276 1290 1370 1454 1342 1237 1743 2128 2189 2261 2269 2751 2123 2655 2192 1855 1935 1749 1887 1595 1651 2094 1860 1681 1453 646 611 160 30
0 6 15 107 290 414 433 421 491 847 875 912 895 549 568 820 1081 1237 1231 1186 1464 1486 1525 1644 1459 1695 2005 2031 2548 2994 3503 3455 2201 2227 2837 2084 1864 1870 1938 1525 1678 1641 2106 1747 894 1049 276 17 34
26 18 38 78 299 353 312 367 474 819 801 731 866 800 649 831 956 1192 1364 1398 1496 1671 1803 1924 1965 2225 2528 2473 2303 2119 2108 3264 2353 2467 2438 2213 2114 1884 2095 1595 1573 1515 1785 1181 1074 384 0 0 57
0 16 38 126 279 286 238 347 382 410 890 735 641 806 833 828 976 1188 1405 1406 1554 1812 1974 2201 2278 2513 2836 2483 2427 2064 2036 1995 2024 2311 2500 2568 2499 2323 1871 1990 1757 1742 789 1353 810 90 0 0 92
0 8 31 112 265 276 168 228 283 158 385 897 776 623 744 918 815 1020 1235 1427 1483 1810 2103 2288 2661 2658 2981 2913 2585 2732 2612 2649 2428 2263 2309 2241 2539 2405 2318 1981 1847 1965 1398 266 155 39 60 0 0
0 0 20 115 212 197 265 163 125 230 432 661 928 598 629 885 1044 946 1016 1260 1481 1621 2042 2424 2748 3100 2969 3379 3286 3002 2295 1828 1365 1506 1163 1342 2095 2199 2247 2302 2087 2134 638 107 23 19 49 87 0
0 0 5 82 149 182 208 267 145 175 339 540 791 636 367 436 449 565 705 827 1174 1429 1657 2196 2874 3793 3608 3615 3715 2949 2855 1999 1915 1888 1970 2043 2164 2411 1867 2332 1993 1571 166 229 252 99 50 0 28
0 0 0 41 111 156 126 142 100 164 471 312 465 663 396 176 199 219 333 461 797 1087 1340 1738 2979 4246 3922 3433 3357 3545 3479 2723 1993 2365 2131 1169 930 1700 2250 2126 1843 870 105 558 275 96 55 133 126
0 0 41 67 70 83 101 61 19 13 46 151 100 477 581 387 152 204 282 244 505 841 1209 1562 3473 4277 3906 3292 3194 3327 3316 3241 3049 2953 2383 934 578 524 1347 1521 1115 785 919 671 217 198 78 89 72
0 0 11 54 53 68 37 6 10 108 92 56 32 79 391 637 532 357 528 610 715 975 1577 1999 3267 4050 3559 3097 3644 3863 3684 3044 2953 3048 2212 1179 328 342 884 935 904 883 828 628 331 93 144 81 90
0 0 0 50 68 72 13 5 0 43 78 15 36 60 141 572 706 672 674 859 978 1416 2235 2791 3433 4070 3964 3131 4068 3621 3608 3245 3036 2844 2966 1604 1101 374 602 857 827 873 822 450 331 180 218 162 108
0 0 0 18 77 71 9 31 0 36 22 0 9 42 108 226 585 728 798 934 1286 1356 1767 2116 3113 3824 3390 2795 2991 2817 3020 3197 3303 3193 2818 1797 1202 626 492 715 702 686 611 352 588 192 156 228 47
0 0 0 1 11 44 24 1 0 0 0 0 0 2 28 79 382 715 852 968 1359 1452 1615 2034 2375 2634 2763 3335 3494 3730 2929 2933 3104 2861 2536 1840 1032 809 936 1018 637 726 443 525 688 440 81 190 289
0 0 0 1 9 17 33 9 0 1 0 0 0 0 0 12 117 466 843 1042 1174 1582 1642 1867 2125 2372 2586 3273 3941 3259 3181 3081 2967 2625 1815 1101 732 485 693 601 734 692 658 661 569 441 97 238 307

GFSSGP_con_sbcape_027.txt.gz
CAPE
967 1068 1325 1120 1661 207 80 103 114 206 149 62 59 132 271 227 161 10 217 175 348 395 450 678 850 951 1083 1131 1211 1045 1046 1047 1324 1688 1747 2050 2213 2331 2273 2180 2154 2029 1936 1858 1840 1787 1742 1695 1638
1025 1329 1549 1222 664 18 109 145 124 225 225 79 290 258 206 375 377 398 386 466 326 290 380 315 1171 1064 1242 1356 1453 1491 1305 1148 1380 1647 1819 2101 2294 2215 1941 2053 2119 2044 1945 1763 1690 1712 1712 1772 1697
1628 1429 1247 1291 201 22 96 109 403 310 351 278 266 242 321 259 518 469 591 393 448 596 566 772 1196 1328 1437 1475 1645 1534 1492 1433 1547 1562 1890 2188 2253 2096 1761 1942 1988 1917 1750 1645 1630 1579 1558 1481 1504
1695 1190 1462 195 54 77 204 255 346 381 307 253 365 314 336 412 500 514 638 669 872 888 829 799 1224 1454 1573 1653 1887 1814 1888 1944 1610 1701 2108 2101 2058 1781 1829 1923 1815 1732 1649 1585 1547 1606 1642 1594 1469
1365 1315 487 23 26 125 212 290 345 296 285 377 418 540 407 556 648 722 535 563 1027 1027 1082 1070 1538 1727 1843 2004 2111 2124 2059 1936 1643 1900 1998 1957 2003 1828 1917 1702 1567 1568 1687 1820 1855 1812 1539 1661 1637
1182 576 78 19 4 48 236 315 345 352 381 325 498 694 665 731 773 882 940 686 890 830 1281 1467 1957 1994 1904 2046 1904 1865 1794 1783 1882 1920 1903 2036 2005 1870 1692 1464 1489 1626 1829 1983 2012 1642 1284 1288 1402
876 282 66 25 2 12 44 108 274 316 243 483 647 693 810 855 862 824 864 660 696 875 1012 1302 1576 2046 1889 1890 1738 1734 1812 1926 1890 1854 1934 2055 1912 1812 1508 1538 1633 1766 1878 1838 1785 1640 1300 1256 1369
700 387 40 92 48 1 6 111 59 185 387 261 775 796 835 985 842 758 678 787 630 1138 1034 1318 1389 1499 2013 1531 1558 1614 1760 1800 1779 1965 2047 1961 1886 1640 1501 1588 1767 1417 1479 1656 1787 1775 1452 1287 1559
426 211 216 46 94 1 5 21 123 266 318 212 332 679 799 773 763 965 914 747 1586 1289 1472 1323 1281 1063 1217 1186 1406 2110 2086 1950 2027 2233 2047 1702 1561 1673 2219 1668 1241 1117 2132 1783 1854 1832 1643 1608 1737
441 21 146 106 86 99 15 16 171 164 260 296 266 663 828 803 770 683 684 1162 1088 1221 1326 1246 1394 1140 1242 1112 1993 1684 1501 1466 1408 1330 1995 1377 1520 1702 1587 1470 1631 1873 2055 1916 1882 1752 1885 2331 1885
231 116 180 64 106 114 52 11 70 145 127 305 372 657 769 791 764 680 667 749 872 1429 1253 1498 1399 1317 1142 2092 1280 1487 1441 1388 1368 1712 1809 1499 1624 1979 1711 1923 2672 2314 2467 2235 2094 2018 1958 2109 1851
303 242 15 96 14 109 93 12 5 12 72 167 366 601 605 686 708 689 735 894 1054 1111 968 881 1138 1560 1448 1432 1119 1134 1042 1026 1045 1403 1909 1895 1773 1537 2021 2398 2020 2391 2203 1837 2768 2228 2240 2412 2358
277 88 9 8 16 114 193 23 5 20 33 104 387 641 544 606 575 615 677 832 1053 1132 984 1000 1242 1738 1721 1895 1275 1070 994 1019 925 1087 1465 1372 1542 2617 2531 2674 1761 1715 1485 2388 1995 2424 2681 1749 2108
101 79 37 5 43 77 88 96 8 141 108 196 469 601 541 475 465 516 587 752 1024 1214 1162 1212 1478 1848 1940 2383 2128 1466 1364 1187 1022 1022 1002 1676 1866 2964 1970 1736 1553 2374 1606 2173 2433 2214 2140 1909 2119
40 28 13 1 58 57 125 161 3 251 225 281 472 435 382 392 422 505 529 664 847 1036 1184 1322 1539 1711 2061 2030 2055 1798 1350 1065 1085 988 1426 1572 2202 2194 2183 2297 1891 2004 2897 2486 2192 2551 2873 2452 1986
1 6 115 21 17 184 90 211 284 557 317 213 347 400 377 399 395 538 574 691 797 880 1101 1309 1297 1473 1954 2560 2218 1828 1453 1342 1560 1497 1980 2811 2340 2397 2208 1792 1610 2014 2708 2577 2362 2005 2455 574 269
0 54 53 23 5 296 135 66 258 565 474 247 228 366 402 421 492 629 755 838 867 1085 1238 1356 1424 1367 1889 2761 2307 2104 2708 1750 2034 2351 1393 2287 2082 2498 2410 1996 2829 2632 2100 1877 2397 1816 1152 266 0
30 43 121 243 14 277 156 533 531 600 542 309 240 225 355 387 523 695 748 709 921 1080 1278 1595 1521 2189 2845 2468 2862 2220 2546 2358 2295 1606 1882 2580 2349 2031 3055 2395 1780 1867 1488 2203 1421 1137 362 0 20
58 113 29 90 13 180 249 238 398 722 733 474 313 258 190 267 547 628 848 612 932 1144 1378 1677 2311 3625 2561 1952 1938 2068 1903 2825 2099 2042 2296 2489 2378 2350 2823 2414 2134 1781 1638 1700 1013 413 301 0 113
2 76 89 55 70 63 228 286 287 687 779 615 507 367 169 117 314 642 941 814 1018 1321 1751 2573 2939 3899 3209 2480 2844 2257 2227 1429 2033 1936 1953 2719 2209 3052 1989 2434 2158 2393 1467 1308 585 208 1 0 134
0 42 97 74 247 175 217 232 267 291 599 782 594 429 413 205 248 618 918 1049 1122 1352 1961 3044 3845 4101 3824 3707 3255 2577 2462 2047 1798 903 982 1361 1797 1418 2299 2245 1957 2193 903 741 488 41 9 0 0
0 1 32 81 128 239 100 274 249 210 271 476 773 714 364 365 269 412 826 1087 1055 1327 1803 3280 4001 4346 4136 4253 3153 3765 2403 1674 990 1202 882 830 1029 1054 2224 1861 1345 1544 1253 916 11 11 8 23 0
0 2 32 82 136 196 117 163 130 104 172 144 516 842 632 460 377 308 463 899 1025 1155 1493 2447 4220 4512 4423 4359 3966 3003 3087 1433 1196 1045 2701 1537 2546 1231 992 1162 2080 1498 610 769 63 33 50 0 2
0 2 71 87 118 141 188 175 221 54 214 197 348 603 790 454 552 543 449 634 937 1035 1304 2031 4092 4695 4789 4629 4616 4756 4449 2956 1937 1797 1927 1288 751 1162 1325 1333 1767 2211 683 217 240 150 25 46 107
0 2 62 81 96 88 137 217 243 144 143 166 148 219 626 733 435 597 574 480 1006 1367 1707 1923 3795 4710 4950 4685 4580 4527 4735 4675 4221 3041 1967 2257 563 526 2694 2260 2559 1544 1441 452 349 390 104 94 52
0 0 24 64 56 65 90 114 136 183 116 56 21 89 250 708 619 439 498 385 733 1199 2026 2360 3261 4572 4809 4721 4751 4896 4949 3184 2952 3368 2044 1439 583 519 2514 1860 1809 1104 1325 1212 765 181 138 217 141
0 0 0 53 79 107 94 86 51 44 50 124 87 47 74 416 645 607 467 399 341 1053 1894 2341 3057 4328 4703 4498 4932 4900 4862 4595 2957 3556 4148 2295 2246 631 1679 1504 1335 1537 810 691 513 269 216 215 265
0 0 0 14 112 132 91 80 95 119 34 79 72 20 6 41 291 616 596 601 813 589 1399 2326 3045 4308 4526 4490 4725 4514 4624 4702 4602 4695 4447 3631 2934 1595 1821 1399 1504 1447 1189 1384 1317 837 888 549 183
0 0 0 0 41 92 106 110 116 110 67 32 12 3 39 43 86 395 723 773 1136 874 1223 1879 2903 3845 4433 4436 4444 4383 4386 4116 4476 4001 4178 4025 3621 2597 1914 1882 1641 1550 966 1128 1369 1190 445 474 675
0 0 0 120 12 34 115 86 75 27 57 36 58 58 42 39 52 107 441 781 1017 1777 1292 1363 2075 2493 3563 3954 4477 4398 4515 4327 4137 4291 4215 4231 3532 2788 2086 1927 1592 1302 1147 1080 1180 840 368 352 462

GFSSGP_con_sbcape_030.txt.gz
CAPE
697 601 813 684 742 526 72 25 272 164 91 125 131 70 103 133 0 63 55 78 231 255 342 568 1114 1205 909 920 1009 1533 1754 2239 2498 2620 2790 2722 2645 2671 2666 2459 2232 2229 2045 1823 1794 1746 1717 1614 1537
685 1158 1034 465 397 110 246 275 168 102 57 222 223 147 47 4 24 67 125 216 324 215 337 311 1435 1352 1262 1491 1623 1704 1570 1698 2333 2548 2671 2647 2344 2226 1939 2005 1958 1887 1697 1644 1654 1639 1632 1665 1529
658 1016 279 289 329 20 339 404 235 222 310 186 130 156 55 11 58 120 209 205 181 214 362 912 1300 1381 1627 1940 2113 2108 1881 1995 2327 2415 2161 2091 1981 1699 1904 1920 1809 1643 1558 1531 1536 1528 1456 1351 1298
1130 1078 1063 1128 68 255 361 311 267 183 267 142 117 353 386 330 201 384 305 307 389 356 385 1170 1410 1424 1639 2191 2106 2054 2137 1906 2115 2109 1990 1979 1766 1639 1889 1699 1616 1497 1584 1578 1653 1611 1485 1395 1256
1574 1441 1312 266 96 266 162 332 228 146 332 246 149 481 408 306 437 480 460 440 538 609 448 930 1848 2014 2046 2376 2294 2278 2150 1640 2147 1915 1822 1859 1718 1761 1694 1468 1388 1505 1737 1823 1932 1548 1232 1330 1292
1443 822 878 11 1 193 248 281 72 143 292 291 278 318 481 635 505 652 750 711 918 851 741 918 1886 2226 2250 2387 2455 2280 1915 1630 1803 1796 1757 1837 1706 1697 1369 1259 1341 1593 1760 1771 1695 1363 1069 1025 1124
963 877 582 1 0 32 41 299 96 15 298 303 447 401 337 646 628 635 691 881 646 941 1212 1525 1512 1947 2163 2421 2040 1818 1719 1791 1816 1693 1772 1845 1680 1578 1331 1143 1433 1360 1529 1581 1542 1372 1087 1093 1203
784 381 225 11 0 0 0 20 75 55 238 464 364 390 533 597 745 752 795 628 725 834 1323 1903 2006 1761 1832 1604 1702 1695 1773 1740 1574 1616 1689 1873 1722 1566 1372 1719 1679 1275 1231 1395 1553 1619 1467 1511 1919
496 33 96 23 0 0 0 0 246 54 37 388 365 365 583 338 706 425 574 666 1011 821 875 981 1662 2138 1669 1382 1298 1688 1648 1644 1591 1842 1983 2218 1427 1569 1785 2108 1604 1255 1822 1794 1762 2066 2344 2452 2562
0 4 32 6 12 0 0 4 9 19 3 307 440 532 318 509 354 625 958 1071 811 864 959 857 883 1075 1565 774 1776 2083 1566 1432 1729 1995 2243 1822 1246 1824 2017 2424 2507 2005 1720 2113 2198 2540 2012 1736 1706
0 11 33 56 21 0 0 10 0 7 36 43 471 473 352 406 677 1080 820 1277 1386 1534 1243 1315 1437 1450 1196 1858 1934 1878 1832 1776 1927 2670 2927 3002 2622 1939 1554 2067 1908 2395 2052 1414 2036 1198 1378 2184 1962
3 0 0 49 88 22 8 0 24 3 65 94 466 538 489 297 255 238 868 801 1440 1316 1290 1285 1805 1878 1940 1665 1555 1931 1794 1900 1861 2199 2947 3172 3130 2607 3027 2859 1592 2747 2454 1678 730 1535 2294 2176 2574
223 74 294 38 2 54 24 0 0 36 29 133 437 594 560 417 240 222 328 483 1528 1178 1237 1678 2171 2875 3435 2834 1985 1862 2317 1399 1764 2085 2535 2220 2718 1909 2288 2004 2733 2758 2280 2382 1322 1061 2837 1905 2257
5 145 86 15 19 68 87 5 0 1 17 170 357 408 437 402 321 483 584 795 1044 1146 1070 1687 1817 2700 2943 3149 3563 3916 2941 1015 1773 1136 2274 3081 2887 1633 1927 3186 2777 1337 1752 1855 2594 2801 2787 3004 2525
0 12 42 2 4 63 81 12 0 0 9 111 276 315 288 327 371 586 672 1008 1258 1293 1240 1670 1711 2299 2691 3101 3190 3226 2791 1290 2050 1683 2630 3196 3573 3493 3166 2937 3149 2005 1920 2926 1897 2193 1916 2363 2272
0 1 63 13 0 48 3 162 10 40 0 73 160 211 233 263 244 531 667 974 1182 1270 1852 2089 1055 2046 2685 3112 3458 2359 1811 2561 1713 2242 2737 1641 3096 3003 3607 3362 2881 3012 3249 1530 1724 2320 1706 1305 618
0 2 24 5 4 60 21 175 227 153 0 14 89 114 143 275 375 487 402 815 1031 1407 2190 1769 2126 1926 2619 3077 2959 2941 2771 3135 3468 1488 2751 3140 2289 3395 2917 2713 2316 2430 2169 2300 1732 1967 1301 702 197
0 0 10 36 57 47 144 1 9 8 87 6 10 107 193 133 203 527 545 626 807 1205 2003 2263 2172 3089 2948 2754 3288 3056 2535 2485 2752 3217 2631 2886 2923 2521 2395 2788 2592 2373 2519 2218 1732 1053 1218 439 589
0 0 0 20 1 41 312 167 9 0 189 34 0 46 59 134 317 523 641 823 892 1267 2052 2369 2902 3377 3505 3220 2415 2520 2766 2739 2677 2513 3755 2874 2926 2761 2678 3406 2352 1950 2434 2115 1584 1427 578 491 1103
0 0 46 54 98 66 48 432 334 76 209 126 43 23 39 88 268 585 863 844 854 1482 1883 2764 2880 3996 3303 2854 2711 2145 2248 2045 2490 2444 2853 2394 2965 2838 3312 3379 2272 1986 1489 1864 1876 1090 646 133 1018
0 0 5 10 37 33 42 70 233 465 355 145 114 129 39 70 57 636 865 885 846 1560 2143 2590 2994 3736 2946 3385 2580 3036 3573 4053 2157 2319 2112 2947 2876 3091 3065 2566 2768 2263 2181 2112 1714 1027 481 350 937
0 0 0 38 10 32 49 97 411 287 651 329 127 104 161 90 113 178 647 1121 973 1513 2305 2671 3142 3347 3427 3101 3415 3232 2366 2712 2459 2575 1955 3036 2992 2649 2970 3293 2909 2203 2454 1871 1454 1106 564 490 197
0 0 0 0 16 106 120 67 212 474 364 529 154 197 118 286 109 70 477 925 1048 1427 1955 2745 3230 3471 3509 3227 3631 3702 2999 1657 2730 2307 3420 3093 3251 2138 2905 2583 2789 3090 2015 1567 927 1086 675 663 479
0 0 0 0 5 67 119 7 88 315 392 167 210 50 573 220 341 242 298 913 1153 1244 1809 2366 3309 3535 3685 3769 3511 3897 3118 2673 2688 3070 3088 2523 2300 2194 2855 2316 2961 2791 2010 1602 673 779 511 450 672
0 0 1 1 51 10 72 117 167 140 154 64 8 80 680 743 467 507 389 626 1309 1381 1477 2328 3531 3751 3799 3994 3903 3454 3975 3723 3100 3905 3315 2148 1323 1481 2208 2975 2795 2340 1988 1789 1435 848 1094 735 603
0 0 0 4 10 36 39 75 253 354 46 0 0 23 278 637 659 766 802 655 1310 1462 1725 2049 3366 3813 4063 3915 4199 4016 3728 3920 3662 3526 3059 1978 2169 1447 2010 2354 2619 2165 1718 1706 1221 797 500 727 668
0 0 0 0 2 35 55 64 70 218 69 23 29 71 34 74 635 679 1051 1054 1065 1592 1778 2013 3482 3719 4098 4272 4206 4292 4229 3728 3325 3630 3193 3392 2530 2848 2021 2071 2398 1999 1693 1332 1370 791 661 856 1176
0 0 0 0 12 27 38 90 120 504 115 37 24 72 130 25 572 619 614 997 1012 1387 1883 2129 2663 3897 4145 4291 4310 4127 4262 4227 3696 3475 3639 2591 3657 2635 2293 2087 2052 1829 1710 1549 1620 854 1239 1125 1094
0 0 0 0 0 18 35 42 136 191 534 389 106 98 132 11 433 676 674 756 1001 1073 1530 1916 2291 3568 4062 4274 4267 4255 4198 4370 3864 3580 3270 3449 3234 2815 2164 1950 1759 1807 1705 1546 1336 1136 1113 1039 956
0 0 0 0 0 0 8 14 28 465 414 332 117 114 97 34 25 120 773 888 1009 942 1141 1616 1995 2154 3612 4105 4146 4270 4331 4312 4233 3392 3868 3857 3226 2902 2061 1928 1854 1619 1485 1407 1323 837 489 974 1050

GFSSGP_con_sbcape_033.txt.gz
CAPE
813 485 649 345 226 231 69 10 120 66 156 105 143 83 27 19 0 2 1 17 62 62 176 508 1072 1119 1013 1444 1961 2190 2422 2348 2736 2936 2996 2886 2306 2502 2770 2336 1995 1906 1778 1750 1710 1699 1570 1518 1422
475 649 188 318 270 55 78 79 124 24 171 48 9 9 1 7 0 4 49 81 82 141 238 453 1290 1462 978 1230 1905 2133 1761 1854 2571 2970 2939 2660 2079 2415 2046 1939 1876 1705 1654 1603 1563 1543 1566 1483 1461
532 533 1 143 205 35 209 124 81 60 137 72 25 0 0 0 25 35 18 57 75 225 288 785 1378 1916 1306 1245 1689 1978 2092 1714 2058 2539 2530 2142 1762 1877 1890 1831 1655 1576 1553 1525 1506 1444 1334 1288 1286
567 1249 886 699 34 142 180 132 185 179 214 193 168 37 4 30 46 110 203 130 36 237 754 1550 1559 1649 1824 1632 1733 1477 1584 1660 2216 2606 2230 1802 1619 1785 1668 1618 1489 1486 1635 1649 1704 1548 1456 1390 1283
860 583 507 700 60 162 146 136 96 123 344 167 233 140 156 111 117 104 92 60 147 305 887 1216 2108 1911 2289 1857 1795 1853 1570 1506 2361 2443 1876 1784 1661 1749 1518 1385 1349 1532 1720 1844 1746 1428 1242 1384 1444
872 615 603 335 121 201 76 145 196 160 366 273 263 259 178 230 234 275 238 165 147 359 643 1070 1959 2070 2147 1900 1965 2065 1622 1609 2215 2334 2016 2228 1999 1876 1800 1263 1354 1547 1708 1654 1674 1449 1256 1283 1426
1007 373 391 244 126 152 99 40 193 209 212 316 299 294 300 325 323 305 302 389 373 407 579 1068 1463 1815 2222 2725 2127 1976 1715 1674 1881 1996 2095 2129 1790 1587 1483 1653 1520 1430 1521 1596 1610 1790 1608 1604 1950
179 83 219 65 8 143 72 10 54 182 282 357 545 531 405 397 472 507 457 574 536 705 844 1041 1331 1595 1645 1829 2075 1720 1881 1801 1642 1613 1661 1838 1728 1637 1494 1892 1979 1336 1278 1470 1717 2335 2468 1891 1899
0 54 62 40 3 7 31 15 150 329 326 275 284 544 515 476 450 524 541 606 861 898 1025 1078 1145 1240 1093 1098 1435 2093 1879 2010 1633 1593 1919 2010 1649 1280 1408 1788 1983 1518 1514 1835 1894 2246 2465 1917 1411
4 0 1 56 62 2 102 81 119 283 227 182 360 544 566 517 433 417 610 543 744 800 1041 1118 1056 957 868 1046 1065 1165 1220 1299 1249 1448 1391 1681 1248 868 1001 1451 1755 1740 1948 1133 2558 2207 1997 1391 1003
3 31 17 4 3 1 8 9 0 180 375 259 340 349 549 538 388 336 464 409 385 486 779 1138 1272 1060 601 522 793 1115 1023 972 969 1136 1306 1143 1357 1338 1050 731 825 964 903 1281 1636 1301 884 1608 1109
0 34 10 0 9 23 2 0 0 0 184 438 359 394 493 227 386 470 583 630 360 680 485 475 322 785 532 688 704 1116 1124 997 934 1150 1701 1593 1577 1143 1011 1104 646 1063 1548 942 654 1257 1060 1596 1716
0 0 0 1 10 0 0 0 12 27 445 338 182 126 304 145 486 620 701 895 675 708 767 708 531 788 1084 1082 702 1012 1193 1234 1050 1466 1378 1007 1023 734 1510 1263 1585 979 1645 1110 307 615 1083 1484 1456
10 12 13 0 41 3 1 0 4 69 352 355 304 189 173 49 496 603 620 586 730 780 703 1012 751 1171 884 1441 1599 2099 1372 437 1204 1335 1342 1216 1093 995 1427 1619 1787 1118 918 1252 1276 1305 1335 1722 1251
0 1 52 12 51 33 0 0 1 62 331 448 426 354 283 157 29 28 807 741 402 370 526 1100 1117 1521 1476 1418 1798 1404 1476 755 848 712 1633 1395 1397 1148 1292 1281 1329 1618 1397 1396 1020 1127 1223 1214 945
0 0 0 2 0 10 0 13 0 2 239 305 369 382 348 218 82 102 248 646 435 424 952 1074 1125 993 1053 1349 1943 1219 978 765 854 1223 1170 1753 1932 1589 1260 1514 1412 1781 1230 585 848 1015 411 199 0
0 0 0 5 0 1 42 24 0 26 46 159 195 183 197 152 66 130 359 454 495 379 840 695 901 997 1038 1552 2084 1407 1255 1572 1390 1258 1343 1007 1964 1899 1890 1716 1487 1633 1386 1290 1014 818 325 0 0
0 0 0 2 7 31 8 11 15 47 0 12 97 69 75 61 61 160 243 425 684 515 896 896 891 1263 1282 1800 1640 1704 1423 1663 1854 893 852 2043 1474 2092 1485 1677 1812 1199 1181 729 511 445 242 0 0
0 0 0 2 22 20 68 5 0 0 0 0 10 14 38 33 14 87 101 397 557 842 1037 811 1169 1632 1467 1646 1748 1830 1710 1489 1518 1657 1736 1648 1491 1333 1495 1654 1681 1523 1110 639 581 11 0 0 6
0 0 0 33 12 16 21 15 0 0 0 0 0 0 9 17 5 91 105 179 419 700 1133 874 1174 2114 1503 1660 1556 1273 1428 1342 1307 1278 1964 1553 1677 1615 1478 1520 1376 924 882 676 37 0 0 0 3
0 0 0 29 9 0 0 3 0 0 0 11 0 0 1 20 20 75 117 210 306 567 1109 1170 1483 2065 1802 1873 1588 1365 1595 1497 1601 1811 1828 1670 1623 1849 1884 1875 1130 1116 807 533 27 0 0 0 0
0 0 0 1 0 1 3 94 10 1 48 30 4 0 0 1 23 56 207 250 332 701 1156 1230 1644 2143 1721 1714 1400 1326 1106 1538 1387 1549 1571 1411 1789 1799 1640 1455 920 1124 751 300 1 0 1 0 0
0 0 0 0 17 15 7 0 161 73 173 17 0 0 0 0 0 64 217 253 359 740 1030 1571 1467 2336 1490 1635 1750 1028 1246 1237 1130 711 1431 1680 1550 1642 1448 1658 1265 986 771 212 2 0 18 21 33
0 0 0 0 0 11 0 0 0 1 158 62 20 12 0 0 0 8 102 336 311 807 1231 1622 1569 1805 1908 1249 1557 2037 1780 924 536 1475 1301 1388 708 1208 1548 1359 1310 870 79 7 19 40 0 41 26
0 0 0 0 0 0 0 0 1 8 4 248 126 14 13 0 0 0 83 312 421 561 1445 1643 1697 1689 2162 1851 1733 1939 2397 1533 1496 1552 1186 951 659 539 1296 940 1292 615 326 70 45 13 9 7 23
0 0 0 0 0 0 0 4 0 4 47 59 42 15 1 40 0 0 0 154 498 542 1184 1821 1909 1848 2113 2185 1883 1784 1949 2590 1744 1747 1885 762 771 515 793 1404 1243 858 486 153 192 36 128 67 0
0 0 0 0 0 0 0 0 0 2 46 0 3 0 0 0 39 10 12 60 497 552 1164 1548 2113 2052 2302 2360 2261 2124 1864 2051 2759 2125 1419 1656 882 701 635 1484 1361 911 434 474 287 94 30 63 13
0 0 0 0 0 0 0 0 0 38 17 16 12 26 0 1 0 79 26 38 568 673 820 1478 2462 2352 2486 2375 2615 2640 2514 2227 2301 2580 2087 1725 1692 1373 737 1492 1364 939 586 484 242 151 247 160 181
0 0 0 0 0 0 0 0 0 31 29 42 30 20 25 1 0 29 233 136 538 773 908 1126 2402 2565 2683 2670 2579 2760 2872 2816 2487 2371 2230 1915 1440 1164 1042 1440 1297 991 835 526 392 181 206 361 45
0 0 0 0 0 0 0 0 0 44 111 50 48 15 36 21 20 4 211 401 320 905 988 1217 2569 2607 2901 2923 3014 2936 2903 3206 3107 2614 2205 2077 1689 1327 1238 1159 1214 971 837 560 525 315 287 150 276

GFSSGP_con_sbcape_036.txt.gz
CAPE
591 501 489 162 190 114 70 3 110 104 56 54 11 31 0 1 0 0 0 3 2 29 133 446 1219 1437 1678 2098 2458 2298 2172 2444 2840 2751 2532 2231 2111 2205 2167 2052 1951 1854 1856 1832 1855 1807 1676 1635 1573
607 613 60 203 167 39 23 23 17 75 37 0 0 0 0 4 0 6 15 7 6 53 163 475 1288 1756 1479 1947 2415 2515 2035 2137 2643 2732 2444 2151 2143 2097 2021 1906 1759 1693 1683 1664 1658 1621 1638 1579 1597
682 107 0 117 141 40 69 68 143 32 1 0 0 0 0 7 0 1 0 11 58 149 242 610 1530 1727 1439 1537 2034 2329 2288 2025 2135 2122 1917 1920 2024 1984 1912 1738 1653 1629 1594 1655 1656 1525 1408 1387 1370
1021 1095 635 281 124 83 140 175 96 72 38 0 1 0 5 12 0 5 46 54 190 200 579 1347 1478 1206 1326 1408 1582 1695 1850 1863 2084 2062 1871 1713 1924 1806 1734 1626 1584 1697 1714 1859 1729 1588 1582 1482 1351
917 277 315 408 215 64 132 281 139 129 141 1 7 41 27 15 10 51 44 127 143 444 907 1190 2107 2185 1837 1471 1515 1571 1617 1866 2054 1989 1843 1702 1848 1691 1594 1492 1564 1708 1852 1936 1622 1399 1386 1436 1507
811 263 140 128 162 108 153 256 302 250 208 116 73 76 43 59 129 106 70 45 309 721 945 1371 2098 2478 2268 1577 1782 1657 1517 1907 1934 1932 1908 1763 1829 1653 1427 1381 1451 1650 1780 1731 1728 1394 1351 1361 1530
241 42 75 59 82 185 203 382 317 363 309 232 63 61 95 70 84 67 55 115 318 711 863 1249 1431 1694 1901 2409 1942 1804 1587 1822 1842 1854 1911 1855 1797 1698 1424 1353 1499 1539 1624 1677 1697 1776 1733 1624 1927
25 17 8 54 43 116 174 295 314 312 385 280 178 170 152 128 123 123 109 145 266 512 833 1087 1329 1528 1746 1964 2090 1848 1666 1790 1847 1830 1864 1958 1810 1710 1561 1930 1830 1565 1434 1511 1752 1940 1941 1897 1622
0 7 13 0 108 105 147 312 363 398 398 145 395 253 178 230 246 216 310 219 418 562 765 1093 1226 1297 1452 1448 1630 2011 1801 1839 1803 1600 1755 2193 1561 1310 1575 1606 1975 1902 1425 1951 1810 1988 2167 1529 515
2 1 5 4 7 12 54 217 390 448 478 502 370 424 361 344 374 373 543 467 642 599 778 980 1085 1032 888 1345 1089 1353 1296 1493 1264 1292 1241 1666 1372 1099 1371 1543 2159 1705 1759 686 2154 1876 1716 1755 400
10 1 0 6 0 41 198 345 370 471 431 463 478 406 432 453 487 505 611 699 693 664 896 979 966 816 657 817 771 863 908 943 829 844 980 967 1243 685 1396 777 1088 596 1632 1096 1543 1351 873 1279 1073
6 24 1 11 0 0 87 386 473 346 384 499 543 451 438 424 396 506 569 681 582 807 799 849 775 664 496 206 666 634 761 696 571 539 831 969 865 711 840 538 619 530 1288 831 328 982 756 1046 1293
4 9 7 30 2 4 2 154 403 381 442 500 631 546 437 339 313 437 477 490 465 786 714 831 821 597 480 277 329 549 856 745 600 595 754 1080 642 917 821 797 841 997 1005 628 221 497 728 1288 1163
7 8 8 45 7 16 0 10 141 348 415 529 620 507 442 283 261 303 380 248 274 550 302 652 382 674 358 460 297 519 736 916 797 811 959 922 556 704 1126 1023 967 580 1085 726 946 1049 1125 1259 1022
0 0 0 10 0 1 0 90 405 465 314 506 613 495 307 167 291 289 521 337 284 477 368 419 202 493 590 635 485 753 1224 506 828 909 902 988 673 537 876 762 887 1066 901 1084 815 802 453 135 4
0 0 0 0 6 0 0 50 444 368 181 179 452 406 157 137 305 399 461 566 375 478 522 573 562 639 669 793 1025 708 675 326 441 583 884 961 898 847 822 751 758 1215 634 398 535 606 123 0 0
0 0 0 0 0 0 0 0 404 283 260 168 122 125 152 91 316 274 484 508 405 405 332 727 545 851 809 660 1091 686 580 371 562 769 849 1044 1459 1083 945 935 932 1261 1045 612 551 457 0 0 0
0 0 0 0 0 0 0 0 142 358 377 359 290 209 185 104 57 84 524 488 268 122 536 743 606 593 552 682 1126 761 595 848 1152 758 783 1033 1563 1551 1151 1156 1385 956 1160 653 338 102 1 0 0
0 0 0 0 0 2 0 0 0 149 307 376 306 269 230 108 99 22 466 511 196 355 638 687 716 524 426 956 1038 970 868 852 956 644 533 1080 1200 1386 1283 809 1302 820 573 471 161 0 0 0 0
0 0 0 0 13 7 3 0 0 0 155 203 195 152 145 80 37 29 160 327 232 204 508 449 653 671 621 840 939 880 995 1032 669 800 1214 1021 1113 1034 1263 836 977 829 916 354 0 0 0 0 0
0 0 0 0 0 5 6 9 0 0 0 0 52 82 59 43 5 25 47 225 352 216 475 425 629 896 814 973 954 746 823 691 918 969 1347 1252 1142 1262 1095 922 791 571 142 180 0 0 0 0 0
0 0 0 0 0 0 0 0 5 0 0 0 0 6 24 23 0 6 53 138 285 340 498 379 585 1235 995 1036 1068 990 970 1047 748 804 1146 1319 1166 1285 1353 1149 758 542 363 11 0 0 0 0 0
0 0 0 0 0 0 3 0 0 0 0 0 0 0 7 2 5 0 41 54 164 262 546 532 565 1368 1242 1212 1028 946 689 670 1038 818 1328 919 1107 1117 1274 948 403 591 231 9 0 0 0 0 0
0 0 0 0 0 0 0 0 0 0 5 0 0 0 0 0 0 0 20 25 38 234 551 686 727 1142 1283 1328 1092 937 773 603 704 610 661 733 1088 953 1144 1112 414 257 97 1 0 0 0 0 0
0 0 0 0 0 0 0 0 0 0 7 8 0 1 0 0 0 0 0 22 46 178 538 774 849 1091 1137 1335 1204 809 657 593 442 344 742 865 597 672 946 938 662 195 0 0 0 0 0 0 0
0 0 0 0 0 0 0 0 0 0 0 19 23 9 4 0 0 0 0 30 35 171 637 995 853 1042 1130 1027 1178 1312 1262 1116 661 412 627 763 581 608 863 577 564 34 0 0 0 0 0 0 0
0 0 0 0 0 0 0 0 0 0 0 1 14 42 0 0 0 0 0 1 77 188 700 981 976 939 1315 1202 915 938 1241 1782 1709 1021 775 297 202 105 615 499 626 132 38 0 0 0 0 2 0
0 0 0 0 0 0 0 0 0 0 0 0 12 33 0 0 0 0 0 10 145 178 694 939 1052 1013 1233 1435 1304 1123 994 1379 1791 1452 1092 821 297 362 274 519 559 337 109 22 4 0 0 0 0
0 0 0 0 0 0 0 0 0 0 0 0 25 78 11 0 0 0 0 0 73 323 504 1220 1195 1127 1211 1460 1573 1459 1184 1029 1375 1865 1745 1076 833 439 226 770 750 554 201 113 24 2 3 0 0
0 0 0 0 0 0 0 0 0 0 0 0 0 10 22 1 23 6 19 21 19 358 421 1102 1545 1423 1400 1637 1693 1754 1597 1512 1241 1405 1814 1674 1104 828 514 517 993 765 447 156 124 11 55 90 3

GFSSGP_con_sbcape_039.txt.gz
CAPE
504 501 313 135 108 126 53 40 62 46 82 6 0 0 1 0 0 0 0 12 13 73 290 676 1457 1636 1793 1676 2159 2287 2229 2037 2101 2012 1873 1967 2030 1930 2035 1923 1831 1799 1785 1837 1796 1659 1645 1621 1550
586 509 44 193 139 16 19 48 62 86 1 0 0 0 0 1 7 12 17 0 45 62 147 527 1329 1805 1790 1968 2183 2509 2035 2191 2150 2170 2246 2136 2031 1955 1835 1721 1671 1646 1605 1554 1502 1544 1509 1560 1561
565 190 0 95 160 51 112 63 136 33 9 4 0 0 0 22 6 11 0 0 22 106 226 612 1378 1958 1627 1782 2002 2310 2158 2037 1881 1778 2008 2034 1929 1815 1726 1596 1589 1571 1650 1662 1513 1413 1343 1364 1370
885 671 448 123 114 151 145 148 108 33 0 6 13 26 37 13 1 0 0 9 70 210 464 827 1392 1332 1456 1631 1788 1844 1881 1943 1926 1782 1826 1946 1857 1755 1658 1639 1636 1699 1799 1863 1696 1586 1558 1468 1406
435 263 59 98 181 84 173 236 106 107 34 16 25 4 51 67 35 0 11 78 136 318 654 864 1770 1770 1526 1555 1630 1670 1705 1884 1982 1840 1722 1908 1791 1679 1630 1572 1657 1789 1928 1860 1536 1359 1423 1455 1526
126 117 16 52 55 141 262 201 170 132 77 38 0 47 64 91 62 85 95 152 277 592 876 1093 1540 1879 1621 1477 1578 1628 1689 1906 1981 1939 1797 1872 1830 1625 1529 1474 1551 1765 1802 1751 1550 1352 1329 1359 1492
0 0 0 85 52 145 241 192 221 161 67 68 30 65 109 121 102 110 161 222 463 933 1068 1280 1343 1249 1499 1670 1607 1521 1740 1837 1954 1968 1957 1884 1897 1642 1470 1450 1555 1595 1650 1711 1731 1810 1534 1504 1679
0 22 0 35 45 193 329 289 283 178 230 93 82 61 100 190 161 135 131 247 516 883 996 1181 1298 1303 1392 1470 1837 1629 1704 1821 1875 1900 1968 1932 1784 1732 1629 1819 1704 1804 1510 1508 1794 1833 1547 1474 1663
2 2 1 50 36 260 417 338 264 228 155 115 185 53 106 203 190 122 153 173 418 616 928 1038 1195 1246 1455 1582 1656 1933 1646 1806 1901 1737 1831 2174 1426 1322 1608 1673 2075 1999 1545 1989 1829 1844 1697 1192 1611
12 0 0 0 0 230 429 291 253 184 125 335 139 99 164 191 163 162 175 195 240 438 811 967 1031 1177 1305 1705 1392 1403 1156 1538 1543 1340 1193 1525 1263 1059 1355 1604 2086 1691 1719 1499 1285 2346 1805 1367 586
5 0 0 0 0 147 385 273 279 121 165 279 99 169 251 257 261 287 243 287 257 481 729 943 1006 912 1052 1300 852 1022 991 1021 973 827 778 782 1190 831 882 1121 677 522 1465 595 1292 1126 721 916 896
11 1 0 13 0 103 293 312 352 165 182 272 131 208 310 330 331 429 381 439 490 521 614 823 972 840 632 454 715 771 713 625 610 513 542 690 747 718 753 729 280 370 890 650 131 715 550 756 935
29 3 2 27 0 37 360 379 369 309 359 322 294 396 340 392 387 467 503 564 560 599 680 764 808 714 525 191 367 364 539 580 464 350 311 751 779 844 686 462 419 525 654 668 336 273 521 825 884
1 0 6 19 0 22 413 443 464 331 502 484 380 450 427 435 466 434 518 582 521 585 632 712 645 598 419 155 166 156 381 527 487 494 440 809 701 467 527 637 674 566 767 645 552 631 658 782 625
0 0 0 3 0 4 0 92 479 324 533 508 373 356 414 445 423 473 526 593 488 538 557 592 555 441 309 161 113 112 274 755 727 766 573 856 617 371 784 839 815 692 739 664 721 592 122 0 0
0 0 0 0 0 0 0 0 300 386 499 558 460 365 415 376 388 419 489 422 347 441 424 574 683 477 395 221 209 233 399 696 770 1018 670 760 724 439 498 426 392 745 503 454 353 335 51 0 0
0 0 0 0 0 0 0 0 327 350 467 601 587 408 393 281 289 314 418 256 216 266 229 310 363 253 450 308 502 342 552 179 187 237 494 753 749 670 583 523 584 930 628 309 249 292 0 0 0
0 0 0 0 0 0 0 0 388 304 369 628 570 512 465 232 228 252 399 437 160 172 235 194 273 187 370 479 578 410 242 143 689 561 470 662 830 1090 649 722 614 806 902 786 342 2 0 0 0
0 0 0 0 0 0 0 0 337 288 231 441 525 465 401 165 142 245 318 413 356 217 187 300 329 318 401 387 630 564 446 341 723 373 588 709 1159 1429 1075 540 992 627 812 537 56 0 0 0 0
0 0 0 0 0 0 0 0 245 230 195 122 189 267 233 103 57 174 179 379 350 105 111 300 432 297 406 426 632 586 493 376 411 793 398 585 965 1189 1236 640 677 730 483 227 10 0 0 0 0
0 0 0 0 0 0 0 0 27 175 175 183 141 75 61 109 9 0 93 357 370 177 179 320 434 334 299 389 404 448 485 398 595 519 754 885 875 923 1008 732 613 467 360 139 0 0 0 0 0
0 0 0 0 0 0 0 0 0 3 0 38 126 120 95 75 52 5 59 291 349 179 225 315 374 403 268 279 504 528 508 568 505 739 646 876 1028 920 909 738 590 431 68 29 0 0 0 0 0
0 0 0 0 0 0 0 0 0 0 0 0 0 56 33 58 61 25 0 82 241 195 168 286 241 404 409 465 566 584 491 507 318 390 768 823 893 884 1003 910 789 306 98 0 0 0 0 0 0
0 0 0 0 0 0 0 0 0 0 0 0 0 0 21 16 17 21 5 25 105 168 60 285 211 457 506 520 656 684 601 316 422 443 534 783 706 789 893 906 425 252 135 0 0 0 0 0 0
0 0 0 0 0 0 0 0 0 0 0 0 0 0 0 14 0 5 0 1 44 143 157 263 250 506 694 699 715 676 588 319 356 394 519 469 635 641 819 848 361 104 12 1 0 0 0 0 0
0 0 0 0 0 0 0 0 0 0 0 0 0 0 0 0 0 0 0 0 3 68 130 308 281 405 819 901 824 690 587 470 395 229 255 446 492 654 849 830 636 154 0 0 0 0 0 0 0
0 0 0 0 0 0 0 0 0 0 0 0 0 0 0 0 0 0 0 0 0 5 71 268 415 414 711 923 939 790 624 545 416 165 105 332 472 557 594 645 661 111 0 0 0 0 0 0 0
0 0 0 0 0 0 0 0 0 0 0 0 0 0 0 0 0 0 0 0 0 0 10 159 420 491 624 853 983 975 801 663 580 341 397 316 230 192 483 490 520 192 6 0 0 0 0 0 0
0 0 0 0 0 0 0 0 0 0 0 0 0 0 0 0 0 0 0 0 0 10 7 223 469 519 612 786 871 925 968 1031 1061 1028 744 457 176 67 226 422 454 306 47 0 0 0 0 0 0
0 0 0 0 0 0 0 0 0 0 0 0 0 0 0 0 0 0 0 0 0 0 14 304 539 672 629 879 885 830 784 758 1091 1342 1365 857 443 111 86 316 386 346 137 36 7 0 0 0 0

GFSSGP_con_sbcape_042.txt.gz
CAPE
334 420 195 172 84 84 76 33 32 72 41 11 12 0 3 5 1 5 3 0 39 59 213 352 1376 1835 1676 1951 2226 1994 1845 1752 1837 2004 2055 2122 1940 1942 1881 1787 1772 1774 1796 1781 1675 1673 1577 1561 1554
420 362 81 163 107 47 56 20 43 25 0 0 0 0 0 2 5 4 19 0 62 143 292 354 1711 2160 1786 1917 2231 2218 1725 1746 1812 2015 2176 2065 1994 1891 1711 1615 1562 1557 1531 1518 1591 1569 1648 1587 1482
451 306 2 45 104 53 71 34 13 0 0 0 0 0 0 17 5 12 0 7 6 135 195 519 1855 2384 1660 1754 1974 2218 2279 1905 2214 2257 2053 1995 1887 1762 1633 1587 1544 1625 1683 1601 1441 1353 1377 1420 1393
719 488 145 77 83 96 57 80 19 0 0 0 0 4 8 5 1 0 0 27 60 210 373 1141 1706 1653 1620 1857 1957 2132 1924 1790 1732 1967 1985 1858 1773 1678 1649 1671 1711 1758 1986 1702 1600 1620 1526 1377 1363
254 121 8 19 35 62 45 90 1 8 3 17 17 10 23 38 0 0 13 44 120 295 484 1020 2074 2015 1783 1772 1943 1896 1913 1872 1788 1737 1880 1821 1688 1626 1602 1629 1757 1869 1904 1648 1386 1410 1453 1498 1470
5 105 27 19 28 37 102 82 82 37 35 0 0 5 84 11 5 20 35 67 234 402 658 945 1627 1842 1674 1665 1675 1690 1807 1886 1899 1725 1804 1860 1631 1574 1490 1485 1596 1779 1741 1667 1408 1283 1312 1426 1488
0 0 25 14 38 66 168 80 99 28 0 7 32 51 86 26 28 44 82 159 297 673 745 856 864 1169 1457 1568 1613 1640 1747 1874 1963 1933 1832 1866 1728 1510 1449 1466 1540 1537 1543 1621 1653 1695 1463 1464 1681
0 0 36 50 76 76 209 159 90 1 28 0 19 18 73 73 69 98 169 261 551 791 831 973 947 921 996 1183 1532 1517 1722 1815 1938 1906 1746 1809 1769 1645 1596 1777 1701 1869 1590 1502 1647 1586 1441 1554 1707
8 0 2 61 65 137 246 228 126 42 0 20 54 15 32 99 116 131 207 317 644 782 797 933 1064 890 1053 1131 1343 1772 1690 1802 1827 1712 1834 1855 1344 1251 1632 1783 2141 2077 1671 1788 1523 1752 1704 1158 1878
0 0 0 27 25 304 301 202 145 78 0 127 31 112 117 118 141 142 143 157 405 598 831 883 970 988 1154 1604 1418 1299 968 1231 1449 1378 1166 1413 1282 1004 1443 1872 2206 2365 2045 1967 1592 1654 1733 994 933
0 5 0 0 8 245 365 207 177 97 11 126 111 153 220 182 156 143 136 141 209 421 780 939 936 994 1112 1496 1095 985 879 967 1065 928 793 695 1175 860 755 938 898 676 948 949 1279 1081 1065 1240 1183
2 0 0 0 0 247 307 194 253 67 37 167 128 177 205 180 171 147 127 102 90 275 659 889 900 932 827 758 847 741 806 692 687 545 422 418 507 644 666 808 571 534 733 1090 374 984 695 980 1074
27 66 12 1 0 211 242 297 288 101 251 99 146 225 208 188 185 173 162 175 91 271 408 716 842 836 694 419 450 444 530 636 464 353 236 394 599 529 669 753 610 544 786 1193 852 546 717 973 893
8 7 0 8 13 54 266 302 298 193 192 174 219 207 218 216 240 285 284 299 280 283 333 497 721 728 460 378 124 249 295 339 321 244 173 250 672 509 598 649 686 598 750 1013 737 953 973 743 620
0 0 0 3 1 0 238 305 321 277 308 283 251 250 258 242 265 384 409 391 443 379 379 458 523 572 324 145 2 1 110 316 340 374 372 518 645 632 668 731 707 689 462 833 836 759 315 0 0
0 0 0 0 0 0 253 247 341 346 442 338 368 345 307 304 355 351 458 449 452 406 385 407 544 433 181 74 0 24 47 143 461 776 763 648 784 618 529 705 645 547 704 755 518 485 134 0 0
0 0 0 0 0 0 73 4 4 364 458 371 280 340 372 343 375 375 411 485 464 375 335 330 403 343 198 59 5 53 84 237 318 294 655 600 750 727 501 499 418 687 597 547 400 385 0 0 0
0 0 0 0 0 0 0 0 14 339 403 399 276 230 325 344 349 348 386 444 433 310 320 220 368 286 206 110 75 163 122 151 72 95 226 553 692 846 628 613 563 880 948 505 357 54 0 0 0
0 0 0 0 0 0 0 0 184 276 367 412 336 218 241 244 212 214 238 352 252 205 196 105 239 114 136 227 243 352 340 202 290 516 494 511 690 1203 1008 931 799 799 895 753 340 0 0 0 0
0 0 0 0 0 0 0 0 202 181 289 425 421 394 240 185 119 97 128 223 164 97 152 154 137 130 44 242 350 439 408 141 342 609 428 503 780 1131 1035 882 652 783 475 290 82 0 0 0 0
0 0 0 0 0 0 0 0 125 187 137 233 362 385 340 261 155 32 75 144 311 120 99 165 152 126 122 146 171 154 158 230 257 358 537 346 702 1040 1419 1055 456 597 495 295 24 0 0 0 0
0 0 0 0 0 0 0 0 0 91 143 63 74 267 299 228 105 17 49 71 179 237 101 93 124 193 152 149 226 376 521 622 438 351 444 699 665 814 1088 787 582 462 214 145 0 0 0 0 0
0 0 0 0 0 0 0 0 0 1 99 81 53 32 50 62 54 6 0 34 54 156 134 51 72 196 152 189 284 303 453 307 163 308 461 374 703 858 925 816 656 448 119 98 0 0 0 0 0
0 0 0 0 0 0 0 0 0 0 23 60 42 68 82 50 21 11 0 0 4 126 156 52 117 204 198 131 229 284 340 139 202 160 369 422 568 715 833 881 748 548 261 59 0 0 0 0 0
0 0 0 0 0 0 0 0 0 0 0 0 0 0 22 90 53 18 9 0 12 81 145 62 120 171 244 200 211 312 336 215 325 221 278 263 468 590 775 816 606 372 255 89 0 0 0 0 0
0 0 0 0 0 0 0 0 0 0 0 0 0 0 0 0 15 32 11 0 0 35 123 68 129 132 230 313 326 393 442 360 386 251 284 320 512 715 876 821 769 388 173 51 0 0 0 0 0
0 0 0 0 0 0 0 0 0 0 0 0 0 0 0 0 0 0 5 0 0 2 68 57 101 128 168 405 436 459 494 504 405 360 102 237 449 606 681 837 875 439 153 11 0 0 0 0 0
0 0 0 0 0 0 0 0 0 0 0 0 0 0 0 0 0 0 0 0 0 0 22 80 73 115 155 445 529 554 561 525 503 406 97 154 242 488 530 725 839 497 180 4 0 0 0 0 0
0 0 0 0 0 0 0 0 0 0 0 0 0 0 0 0 0 0 0 0 0 0 0 27 85 159 157 539 657 714 681 630 546 477 288 207 200 249 401 603 718 598 206 32 0 0 0 0 0
0 0 0 0 0 0 0 0 0 0 0 0 0 0 0 0 0 0 0 0 0 0 0 0 31 199 256 338 717 801 799 712 605 554 490 377 282 147 234 503 646 670 324 111 48 6 0 0 0

GFSSGP_con_sbcape_045.txt.gz
CAPE
308 546 313 604 219 158 102 91 140 61 74 35 26 10 17 25 18 96 22 15 27 108 442 657 1543 2041 1895 2435 2550 2383 2097 1975 2341 2207 2197 2233 1934 1949 1914 1864 1837 1851 1818 1691 1716 1571 1591 1619 1438
443 268 223 129 183 91 153 121 136 146 53 13 4 0 12 26 12 47 66 73 60 179 234 816 1914 2198 1859 2164 2450 2411 1688 1807 2036 2165 2039 1907 1914 1777 1700 1670 1616 1540 1498 1520 1556 1663 1658 1440 1388
481 361 23 89 178 127 130 129 100 64 2 0 0 0 2 20 24 40 55 95 93 172 248 1406 2122 2312 1861 1871 1974 2142 1780 1956 2108 2097 1944 1964 1827 1719 1662 1646 1711 1763 1765 1568 1416 1400 1414 1442 1390
878 774 412 251 40 163 125 113 23 0 0 0 0 1 16 20 34 31 100 118 118 175 333 1614 2020 1631 1793 1918 2001 2057 1861 2114 2079 2018 1988 1869 1773 1727 1733 1762 1830 1590 1788 1713 1610 1533 1411 1372 1346
535 175 122 86 30 105 151 145 21 14 5 0 0 14 28 69 33 45 143 150 103 189 617 1259 2237 2072 2015 1832 2092 1799 1701 1691 1916 2031 1902 1832 1741 1676 1676 1756 1821 1892 1775 1428 1384 1429 1470 1354 1277
57 129 96 11 27 48 165 81 62 66 10 0 1 19 88 77 42 86 144 181 193 324 771 998 1810 2058 1996 1874 1860 1776 1825 1870 1777 1893 1942 1779 1652 1596 1527 1520 1743 1788 1696 1445 1289 1273 1352 1448 1376
47 23 79 42 32 163 327 227 181 33 0 0 0 25 43 34 57 109 164 256 402 588 1005 1095 1015 1459 1622 1610 1672 1757 1817 1944 1946 1845 1877 1859 1625 1449 1434 1491 1591 1517 1512 1550 1609 1565 1410 1422 1539
11 5 47 72 151 226 354 309 172 43 27 0 2 26 72 35 96 148 176 333 485 746 1101 1250 1116 1125 1309 1463 1666 1695 1763 1886 1965 1922 1763 1783 1738 1607 1665 1957 1686 1791 1582 1541 1579 1491 1378 1369 1645
41 162 67 109 143 241 430 440 139 93 1 12 55 54 52 92 139 199 262 395 599 749 789 878 1001 1235 1320 1418 1374 1574 1722 1763 1814 1759 1748 1695 1821 1831 1795 1693 1921 1903 1605 1746 1648 1650 1790 1226 1781
370 281 22 28 105 313 496 528 308 161 8 64 126 58 81 117 223 237 303 356 436 623 662 736 655 824 1201 993 1498 1604 1347 1256 1555 1630 1824 1779 1721 1693 1588 1993 1944 1909 1819 1756 1758 1941 1838 1668 1556
146 68 1 9 31 217 580 506 319 188 53 106 248 197 118 140 194 209 223 235 374 363 465 643 845 998 1046 1013 1410 1690 1219 1313 1499 2002 1812 1557 1598 1650 1554 1805 1680 1629 1423 1722 1653 1723 1738 2018 1757
4 18 16 35 33 119 493 524 413 154 25 47 234 177 133 189 193 159 162 217 299 355 521 730 1119 1441 1281 1167 1395 1562 1204 1238 1147 1155 1589 1368 1224 1564 2033 1872 1880 1734 1889 2232 1518 1748 2008 2032 2052
1 34 80 67 52 19 460 449 571 272 322 243 221 205 190 201 166 141 146 171 242 292 428 752 1147 1559 1603 1662 1460 1586 1437 962 861 1122 973 893 1208 2112 2073 2222 1973 1931 1955 2071 2116 1768 1864 1797 1732
33 106 83 0 4 152 510 541 459 370 333 311 310 292 255 184 177 185 176 158 169 209 314 642 990 1308 1631 1543 1684 1536 1372 1030 1072 793 745 1026 1147 2063 2032 2216 1905 1918 1952 1986 1900 2416 1859 1678 1374
0 0 0 0 0 35 427 517 595 408 411 384 327 393 332 247 216 231 225 235 179 170 305 551 916 1114 1622 1596 1408 1334 961 744 592 560 918 939 1193 1870 2337 2127 1919 1676 2050 2194 1985 2167 1983 271 7
0 0 0 0 10 30 214 118 536 512 492 468 356 339 336 308 306 323 308 352 357 230 354 534 540 860 1243 1411 1358 1064 634 454 495 460 683 1177 1452 1950 2208 2068 1970 2004 2028 2314 2617 1601 1373 34 0
0 0 0 0 0 20 210 32 184 647 637 593 420 415 348 380 354 390 451 515 551 596 556 593 694 764 1043 1255 1165 947 605 537 401 593 1272 1705 1974 1980 2130 2041 1921 2070 1796 1921 1596 1446 800 34 56
0 0 0 0 0 1 95 23 8 702 754 729 519 503 456 402 392 447 522 604 681 784 925 969 910 1027 1084 1007 1050 709 435 412 886 1111 1344 1719 2107 2203 2236 1410 1571 1897 1900 1498 1079 1458 396 33 33
0 0 0 0 0 0 0 0 0 521 764 759 656 598 479 421 399 518 647 664 669 781 938 1104 1111 1443 1048 883 675 519 280 584 1085 1392 1712 1703 1984 2164 2314 1761 1834 1592 2409 1888 2046 1264 710 91 51
0 0 0 0 0 0 0 0 0 333 657 767 710 633 522 397 427 608 698 740 773 825 986 1199 1293 1496 1219 923 995 490 741 774 1226 1508 1825 1978 1914 2204 2241 2209 2072 2081 1869 2041 1863 1097 327 1 7
0 0 0 0 0 0 0 0 18 288 573 666 715 650 428 518 465 515 625 688 792 906 1205 1521 1728 1829 1389 1427 994 957 967 1201 1225 1286 1704 1777 1981 2132 2354 1804 1652 2213 2089 1727 1862 1188 413 15 42
0 0 0 0 0 0 0 0 0 162 507 608 733 715 592 478 514 404 467 609 701 1058 971 1413 1456 1798 1427 1770 1336 1632 922 1033 1166 1471 1489 1679 1934 2030 2218 2338 2234 2312 1863 1928 1686 965 281 65 35
0 0 0 0 0 0 0 0 0 35 326 468 588 710 692 617 554 469 386 665 612 835 794 880 1373 1710 1721 1684 1650 1419 1531 1138 1236 1458 2085 2410 2312 2103 2067 2283 2368 2354 2060 1928 1696 834 234 23 0
0 0 0 0 0 0 0 0 0 2 234 399 424 495 655 645 622 632 535 443 603 609 777 769 1391 1657 1736 1709 1702 1855 1772 1777 1283 1558 1445 1468 1397 1595 2206 2174 2354 2344 2172 1974 1665 1164 611 246 2
0 0 0 0 0 0 0 0 0 0 5 65 292 417 403 570 681 729 709 497 829 861 1065 1181 1436 1540 1735 1647 1677 1789 1884 2030 2121 1947 1411 1637 1213 1247 2103 2371 2421 2293 2355 2008 1630 1160 652 400 17
0 0 0 0 0 0 0 0 0 0 0 0 0 98 330 420 548 638 1017 897 672 881 1067 1232 1334 1463 1558 1608 1674 1798 1960 1652 1698 1800 1323 1244 1269 1361 2002 2222 2314 2400 2238 2083 1674 1113 718 420 203
0 0 0 0 0 0 0 0 0 0 0 0 0 0 96 323 468 457 493 760 694 716 1001 1259 1386 1426 1541 1566 1679 1718 1833 1860 1716 2070 2174 1392 2081 1394 1656 1964 2149 2296 2229 2119 1717 1206 795 275 267
0 0 0 0 0 0 0 0 0 0 0 0 0 0 5 124 189 368 679 815 789 626 899 1248 1385 1488 1511 1507 1588 1620 1707 1862 1915 2074 2136 2055 2255 1954 1721 2163 2460 2520 2253 2117 1759 1370 1043 469 227
0 0 0 0 0 0 0 0 0 0 0 0 0 0 0 0 12 50 340 841 922 813 529 1010 1275 1430 1521 1522 1637 1728 1726 1828 1990 2011 2138 2147 2308 2424 2408 2248 2382 2394 2223 2095 1810 1535 1077 648 537
0 0 0 0 0 0 0 0 0 0 0 0 0 0 0 0 0 0 3 151 541 853 707 799 1104 1114 1381 1457 1671 1768 1922 1974 1992 2050 2108 2162 2220 2330 2430 2453 2244 2258 2220 2146 1859 1604 1158 905 716

GFSSGP_con_sbcape_048.txt.gz
CAPE
134 257 401 725 423 364 263 257 318 318 358 216 82 152 59 160 85 523 88 18 82 304 324 726 1652 1750 2066 2420 2612 2431 2210 2022 2159 2137 2349 2103 2010 2129 2072 1994 2018 2070 1853 1692 1728 1691 1747 1631 1596
405 289 672 470 623 347 357 315 337 423 307 204 100 95 123 49 32 40 287 16 115 277 687 1066 1547 2074 2068 2310 2452 2384 1830 2059 2233 2344 2088 2020 1887 1803 1683 1692 1585 1550 1589 1718 1825 1736 1501 1412 1318
412 416 290 277 361 331 281 378 453 385 137 94 95 165 238 78 73 158 101 68 408 464 600 1090 1921 2461 2080 1954 1972 1956 1889 2156 2228 2077 1991 1895 1827 1723 1761 1822 1775 1788 1597 1501 1520 1508 1514 1445 1380
858 823 638 727 277 343 354 413 292 206 96 88 127 240 58 94 142 291 138 258 337 483 769 1450 2358 1913 2008 1886 1853 1934 2138 2224 2066 1966 1897 1793 1791 1824 1929 1616 1636 1812 1771 1703 1679 1573 1458 1342 1291
1120 673 600 627 265 382 510 396 294 242 198 149 150 73 57 63 111 285 204 213 453 451 635 1326 2290 2395 2181 2218 2009 1882 2046 2081 2067 1916 1789 1779 1793 1825 1892 1677 1907 1875 1593 1550 1593 1500 1500 1364 1404
948 542 348 181 230 296 577 411 307 207 143 89 87 25 174 199 172 259 313 289 394 372 273 946 1990 2265 2060 2218 1878 1780 1728 1790 1927 1886 1795 1740 1707 1659 1640 1767 1806 1799 1643 1432 1334 1347 1406 1384 1398
765 320 205 224 230 398 627 443 379 115 122 125 136 212 296 214 216 200 327 254 326 372 264 712 956 1620 1927 1986 1835 1856 1816 1770 1775 1855 1854 1681 1527 1484 1535 1528 1712 1519 1523 1549 1584 1476 1380 1449 1513
572 237 199 99 126 168 687 606 475 93 149 146 170 194 353 371 240 277 296 370 455 483 362 619 879 1067 1264 1403 1714 1752 1788 1902 1917 1801 1740 1723 1567 1600 1824 1854 1778 1652 1525 1430 1483 1459 1369 1231 1620
476 456 241 155 265 368 690 584 341 133 155 123 180 270 333 304 161 248 360 297 406 539 437 401 591 925 1007 1005 1382 1656 1762 1838 1862 1886 1691 1605 1897 1983 1985 1391 1874 1710 1689 1711 1724 1648 1760 1272 1912
780 702 163 157 272 539 684 596 590 209 131 168 283 315 309 369 271 381 469 571 742 665 473 350 362 653 916 564 1266 1132 932 915 1277 1631 1747 1962 1996 2046 1762 1856 1848 1731 1800 1679 1737 1960 1845 1905 1599
583 500 104 86 167 382 783 735 668 309 109 236 280 410 369 451 521 549 546 658 830 620 365 271 380 634 637 486 928 1022 818 1019 1395 1907 1909 1743 1808 2049 1890 1716 1991 1980 1674 1999 1796 1774 1489 1440 1424
321 320 124 110 144 193 602 757 755 425 74 117 388 419 399 477 522 478 509 592 700 676 438 371 592 836 782 684 793 878 428 701 781 1122 1575 1702 1810 1933 2133 1830 1866 2162 1944 1619 1802 1995 1741 1491 1544
175 271 267 219 166 133 277 624 790 601 256 221 429 432 440 459 478 481 467 449 583 663 586 689 885 1153 1103 1135 754 834 582 384 349 853 1179 1229 1573 1996 2099 2468 1866 1792 1826 1449 1645 1430 1468 1313 1427
12 83 214 167 57 111 601 712 822 820 579 469 450 484 496 459 482 456 347 350 506 519 563 737 946 1190 1294 1339 1448 1416 1104 394 511 493 788 1155 1472 1807 1893 1643 1720 1548 1797 2095 1919 1617 1695 1439 1448
1 27 45 1 14 238 525 768 841 980 808 634 606 561 510 511 531 520 346 348 385 355 385 605 876 1109 1547 1570 1706 1518 737 455 271 226 653 1038 1484 1969 2691 1943 1852 1530 1943 1395 1380 1309 1192 825 116
0 0 0 2 19 96 361 264 691 995 965 857 701 561 536 528 533 524 372 332 285 283 429 610 639 907 1557 1640 1601 1062 583 327 147 194 660 1157 1484 2015 2537 2080 1819 2028 2097 1384 1026 1049 1305 428 91
0 0 0 23 40 99 232 224 425 915 1007 1056 851 720 526 536 496 520 389 321 298 338 439 665 825 773 1204 1559 1490 1182 775 571 164 441 834 1349 1898 2220 2671 2054 1880 2593 1719 1800 1667 1663 1112 677 229
0 0 1 52 24 63 171 180 94 608 802 982 955 870 638 475 465 461 456 373 386 394 484 738 781 982 1321 1216 1502 972 556 363 202 639 1023 1708 2394 2608 2859 2377 2375 2568 1624 1409 1657 1313 1146 679 399
0 0 0 0 3 1 35 57 29 46 628 784 1019 1006 841 478 378 368 443 414 413 503 713 897 1014 1982 1551 1336 1016 716 384 432 463 1067 1681 2291 2623 2763 3116 2369 2457 2327 1743 1312 1509 1224 1279 846 339
0 0 0 0 0 0 2 4 0 0 461 672 992 1083 1046 767 395 389 473 444 482 690 924 1302 1464 1832 1994 1337 1194 653 538 294 664 1267 1791 2444 2394 2778 2819 2772 2058 2387 1776 1503 1452 1387 1018 529 13
0 0 0 0 0 0 0 0 0 0 92 458 768 1021 1025 977 618 495 520 583 499 636 904 1262 2066 2171 2045 1873 1169 874 541 803 911 1345 1709 2319 2480 2490 2772 2437 2365 2406 2016 1571 1705 1704 1534 435 148
0 0 0 0 0 0 0 2 8 0 72 306 582 884 1004 1009 888 423 430 662 449 578 846 1403 2004 2310 2297 1858 1524 2154 559 468 577 1437 1361 1470 2065 2166 2272 2373 2395 2901 1956 1714 1831 1726 1518 1352 54
0 0 0 0 0 0 0 0 0 0 0 251 491 788 876 976 940 672 390 412 587 753 1005 1292 2146 2676 2702 2582 2383 1662 1612 288 749 1303 2595 3271 2898 2393 2081 2231 2094 2560 2710 2247 2498 1995 2096 971 325
0 0 0 0 0 0 0 0 0 0 3 26 246 556 833 814 847 961 435 327 618 820 1073 1303 2323 3530 3003 2515 2231 3038 2752 1784 1358 2112 1831 1891 1862 1840 2495 2212 2554 2834 2761 2573 2689 2431 2056 1628 826
0 0 0 0 0 0 0 0 0 0 0 0 11 180 652 917 847 921 959 518 520 711 1018 1459 2754 3524 3142 2515 2476 2696 2883 3013 3030 2711 2036 2557 1409 1332 2273 2524 2496 2685 3053 2667 2806 2719 1951 1967 1345
0 0 0 0 0 0 0 0 0 0 0 0 0 1 543 771 964 931 1076 1010 818 762 1757 2044 2829 3269 2625 2565 3310 3453 3643 1945 1845 2506 1737 1639 1535 1246 1637 2010 2396 2751 2560 2949 2926 2613 2171 1732 1670
0 0 0 0 0 0 0 0 0 0 0 0 0 0 0 237 824 1040 1037 1140 1195 1201 1844 2522 3020 3455 3331 2620 3615 3608 3384 3267 2229 3138 3234 2047 2801 1535 1650 1858 2359 2411 2643 2919 3017 2631 2401 1746 1840
0 0 0 0 0 0 0 0 0 0 0 0 0 0 0 0 322 853 1099 1145 1390 1328 1556 2230 2959 3462 3412 3046 3080 2769 3198 3385 3410 3557 3535 3421 3307 2958 2022 2129 2101 2434 2642 2945 3145 2748 2583 2232 1623
0 0 0 0 0 0 0 0 0 0 0 0 0 0 0 0 141 836 1001 1074 1272 1372 1347 1685 2292 2927 2835 2933 3084 3264 3139 2788 3189 2976 3599 3705 3763 3824 3255 2983 2433 2222 2688 3187 3314 3216 2556 2424 1986
0 0 0 0 0 0 0 0 0 0 0 0 0 0 0 0 3 364 650 935 1046 1213 1308 1406 1614 1856 2077 2674 3259 3331 3424 3332 3080 3317 3440 3649 3719 4009 4022 3452 3142 2733 2586 3320 3272 3074 2476 2491 2153

GFSSGP_con_sbcape_051.txt.gz
CAPE
71 89 176 267 1273 826 274 241 58 232 213 262 180 185 498 417 418 400 32 36 15 142 245 803 1699 2067 2257 2803 2809 2650 2352 1995 2130 2253 2157 2012 2187 2159 2069 2028 2203 1878 1797 1857 1825 1867 1730 1634 1524
67 302 489 693 1019 346 371 180 90 296 354 400 284 152 234 78 129 110 63 58 185 152 490 1124 1981 2397 2404 2412 2470 2391 1947 1990 2117 2126 1986 1876 1767 1648 1583 1494 1493 1666 1866 1965 1821 1624 1488 1396 1449
501 507 685 854 788 367 144 170 219 281 274 222 263 236 337 216 261 252 6 285 173 680 944 1623 1943 2595 2044 1956 2168 2338 2403 2320 2104 2024 1881 1780 1687 1777 1873 1776 1826 1655 1523 1532 1592 1592 1478 1385 1333
788 860 729 556 221 250 107 180 168 231 180 218 189 262 358 157 490 376 64 224 382 811 1029 1565 2201 1902 2047 1798 1898 1876 2128 2204 2009 1948 1803 1790 1789 1712 1675 1804 1935 1807 1709 1711 1581 1443 1286 1245 1269
876 1207 927 508 158 258 133 131 152 175 235 232 263 320 151 143 345 81 210 342 538 724 763 1394 2395 2437 2203 1908 2122 2243 2238 2031 2004 1834 1803 1841 1831 1840 1818 2016 1895 1668 1601 1615 1577 1486 1471 1499 1461
965 970 734 96 115 268 122 114 135 106 198 227 405 408 399 182 32 66 269 300 512 520 465 924 2225 2419 2530 1849 1914 1939 2033 2030 1867 1757 1763 1701 1670 1648 1732 1836 1879 1728 1523 1400 1361 1377 1417 1386 1672
751 952 354 357 77 311 80 123 180 91 201 398 201 435 467 422 207 217 268 399 355 95 277 813 1218 1719 2265 1829 1727 1664 1707 1803 1816 1717 1669 1535 1490 1526 1529 1664 1643 1542 1575 1568 1500 1385 1383 1519 1701
708 639 279 87 65 88 103 241 6 59 318 316 667 664 573 504 286 263 291 231 157 102 311 631 854 1072 1447 1559 1770 1777 1849 1766 1728 1679 1623 1544 1519 1643 1604 1714 1725 1540 1435 1471 1423 1380 1410 1587 1801
620 730 455 17 94 28 98 51 118 65 225 284 371 645 683 439 263 292 263 242 428 149 213 336 606 873 887 855 1402 1728 1808 1825 1763 1676 1639 1764 2064 2176 1936 2126 1788 1677 1750 1694 1745 1806 1636 1538 1968
631 706 143 26 39 53 132 29 11 61 119 185 491 773 588 500 246 265 305 305 420 225 170 167 296 556 742 469 1024 803 855 1046 1821 1874 1938 1941 2277 2029 1541 1811 1910 1787 1854 1637 1805 1952 2004 1812 1836
232 292 387 10 37 135 48 54 26 36 108 163 554 839 592 595 365 433 343 451 658 392 168 112 316 645 589 1042 676 709 725 918 1549 1957 1940 2166 2140 2196 1905 1862 1595 2046 1786 1892 2151 1109 1346 1838 1286
85 326 214 140 185 213 197 76 80 62 34 87 481 717 698 683 690 770 646 746 712 521 254 161 397 1059 733 724 639 491 490 785 1086 1760 2113 2025 1891 1646 1949 1899 2206 2652 2373 2010 2331 1177 1689 1521 1464
65 199 218 233 254 193 194 209 188 121 39 56 436 697 789 764 807 803 736 789 749 599 318 267 483 1163 964 926 611 499 417 442 474 1299 1670 1395 1448 2217 1615 2076 1831 1740 2034 1873 1702 2168 1713 1925 1751
36 107 328 298 243 177 145 304 690 458 277 257 425 680 759 822 888 781 683 674 751 559 392 371 612 1070 1160 1435 1183 853 731 379 378 538 1172 1483 1521 2026 2552 1840 2456 2206 1983 1412 1787 1859 1481 1709 1239
65 109 273 346 249 190 228 262 303 592 505 631 376 636 667 749 775 742 684 584 574 600 521 601 784 1018 1305 1353 1465 1374 849 513 321 326 833 1159 1481 1775 2216 1968 2371 2519 2647 1875 2200 1539 2346 608 323
25 129 217 271 178 133 147 378 281 1018 759 783 569 416 582 664 701 712 635 535 548 551 651 733 615 839 1290 1625 1575 1193 615 329 239 144 556 1278 1652 2157 2598 2566 2404 3158 2152 1356 1022 1079 478 490 85
0 2 3 101 108 138 164 66 35 946 909 964 879 449 460 577 606 678 560 470 462 539 566 712 739 626 1172 1874 1673 1380 1674 576 222 100 485 1873 1743 1889 2573 2401 1774 2521 1645 2445 1534 1221 1726 766 51
0 0 11 53 121 132 130 131 159 644 758 1020 1004 813 505 486 513 580 563 433 407 461 592 1018 795 1905 2677 1800 2155 1084 566 530 254 168 595 1758 2000 2269 2768 2307 2078 2161 1879 1861 1590 1620 930 605 61
3 0 1 72 88 153 144 182 244 464 596 799 1124 1115 775 533 387 442 454 355 332 394 629 1358 1721 2780 1921 1275 1184 981 519 632 243 235 1187 1515 2053 2482 2191 2148 2284 1831 2201 1608 1484 1283 1329 1255 179
0 4 7 36 87 133 135 137 184 167 322 435 812 1106 1102 734 486 353 418 324 301 468 1246 1988 2373 3249 2581 1532 1793 945 1059 245 262 350 1972 1881 2220 2597 2896 2828 2048 1264 1512 1952 1331 1244 1409 92 12
0 0 0 18 49 113 53 68 89 102 40 346 516 1003 1090 1054 663 320 385 326 281 678 1374 1893 2748 3037 2880 2458 2023 1794 1246 1152 422 578 1137 1820 2191 2336 2857 2684 1816 2233 2301 2255 1959 1560 1498 990 20
0 0 0 0 35 104 28 69 49 70 26 131 494 832 1057 1142 987 495 259 350 341 556 839 2111 3126 3408 3148 3409 1915 2079 795 406 309 615 866 1579 2539 2343 2287 2677 2151 2236 2138 2882 2314 1541 1585 1428 144
0 0 0 0 1 9 25 54 67 53 63 83 264 478 749 1057 1068 801 320 311 327 346 474 1488 3182 3599 3548 3546 2880 1749 1653 311 349 479 2249 2652 3642 3210 1956 2805 2875 2584 1860 2825 1835 2237 2066 1558 790
0 0 0 0 0 0 0 10 13 51 121 125 162 244 536 880 943 965 539 245 336 298 391 931 2862 3917 4146 4159 3575 3584 2555 1796 358 982 1132 1499 1613 1963 3305 2393 3552 3725 3047 3070 2849 2652 2343 2423 968
0 0 0 0 0 0 0 0 0 4 21 47 140 224 437 695 906 984 817 394 325 531 604 945 2794 3954 4250 4189 3859 3301 3673 3273 2750 2919 1542 2282 1226 1179 2775 3839 4123 2798 4098 3268 3694 3881 3051 2407 1911
0 0 0 0 0 0 0 0 0 0 0 3 26 120 242 644 795 948 1074 615 578 835 1300 1695 2783 3851 4179 4111 4178 4191 3891 2248 1959 2236 1866 1602 1352 1251 3258 4245 3274 3368 3613 3446 4103 2850 2595 3063 2163
0 0 0 0 0 0 0 0 0 0 0 0 0 5 115 366 636 861 1012 1015 649 1122 1816 2243 2905 3799 4175 3997 4190 4303 4150 3693 2466 2538 3252 1886 3021 1360 2139 2640 3178 3419 3611 4006 4322 2662 3558 2975 2711
0 0 0 0 0 0 0 0 0 0 0 0 0 0 13 314 625 709 870 1163 1407 1010 1729 2320 2804 3851 3976 3993 4076 4143 4206 4142 3632 3450 3619 3179 2983 3684 2976 3131 2956 3309 3822 4043 4491 3355 3616 3826 2467
0 0 0 0 0 0 0 0 0 0 0 0 0 0 0 78 501 651 589 1010 1530 1306 1178 2021 2842 3405 3958 4050 4050 4165 4109 4078 4204 3753 3888 3854 4379 4385 3915 4176 3516 3498 3708 4139 4523 4215 3820 4029 3665
0 0 0 0 0 0 0 0 0 0 0 0 0 0 0 0 42 164 501 946 1155 1631 1427 1597 1916 2412 3660 3726 3955 4029 4100 4107 4033 4129 3821 4196 4146 4498 4581 4078 4321 3726 3615 4104 4431 4036 2922 3857 3707

GFSSGP_con_sbcape_054.txt.gz
CAPE
20 6 47 195 505 517 279 194 215 200 226 334 159 474 313 386 396 93 1 0 0 25 395 1084 2318 2660 2769 2601 2489 2526 2535 2335 2180 2212 2200 1956 2066 2492 2354 2302 1961 1989 1962 1985 1958 1680 1612 1508 1441
8 57 401 565 447 30 218 186 179 158 176 181 248 106 210 157 1 13 8 0 0 29 204 987 2016 2399 2294 2750 2775 2695 2119 2152 2376 2576 2432 2146 2093 2038 1499 1524 1781 1977 1880 1854 1644 1599 1509 1491 1450
89 308 463 687 659 137 67 248 213 162 216 216 308 367 306 192 5 10 0 0 35 146 995 1712 1937 2294 2657 2656 2658 2589 2377 2221 2510 2352 2026 1964 1973 1934 1847 1782 1583 1522 1603 1672 1645 1550 1470 1393 1371
274 693 729 489 61 92 30 118 115 162 203 243 242 280 229 56 46 0 0 177 116 575 888 1594 1980 2183 2380 2516 2569 2538 2067 2511 2461 2133 1735 1805 1829 1764 1850 1939 1855 1732 1696 1574 1464 1380 1317 1304 1376
708 1053 775 402 67 23 109 184 171 127 270 415 398 208 208 170 0 31 58 37 242 503 979 1614 2347 2433 2446 2468 2535 2284 2454 2337 2327 1966 1824 1826 1872 1836 2063 1871 1738 1698 1679 1630 1542 1534 1517 1480 1342
1005 1136 7 57 31 109 75 158 51 195 394 493 336 234 313 376 0 117 92 209 470 663 827 1325 2045 2571 2531 2516 2222 2537 2284 1952 2044 1833 1769 1702 1701 1796 1894 1907 1771 1554 1444 1404 1419 1461 1462 1581 1634
523 714 463 1 51 179 80 116 7 37 197 546 368 283 261 197 58 173 295 515 418 169 802 1230 1054 1867 2313 2455 2028 2115 1931 1789 1718 1688 1631 1595 1575 1599 1712 1700 1653 1585 1547 1490 1412 1389 1477 1562 1757
95 208 434 103 78 99 78 26 7 269 263 445 460 342 124 90 80 365 385 369 261 136 472 1178 1279 2024 1619 1474 1911 1658 1698 1734 1660 1615 1541 1475 1494 1536 1510 2216 1952 1463 1425 1493 1461 1408 1583 1518 1892
98 220 328 240 162 139 32 54 65 45 624 720 685 416 123 61 249 230 398 125 211 281 391 515 729 1749 1420 1546 1549 1792 1692 1676 1580 1542 1546 1775 1953 1926 1908 2287 2281 1686 1600 1551 1686 1643 1324 1676 1875
76 193 437 411 1 33 26 67 33 16 90 540 703 570 256 243 393 167 285 153 99 204 309 394 412 774 1111 357 1568 1797 1384 1404 1747 1741 1299 1607 2255 2249 1575 1765 2659 2246 2139 1746 1690 1770 1534 1735 1680
147 196 133 181 1 52 18 20 16 23 43 866 768 580 305 363 313 255 194 351 384 60 117 205 651 1030 725 972 1241 1240 1140 1529 1898 2420 1046 1734 1402 2070 1960 1855 1732 2030 2099 2004 1152 923 1005 1880 1865
130 22 0 42 36 53 20 3 27 13 66 565 670 546 439 323 351 284 272 308 516 159 174 257 1125 1596 1670 1492 870 1065 975 1278 1790 2390 2613 3222 2788 1987 669 1420 1668 1315 1735 1236 956 864 1269 1406 1189
56 98 255 209 258 41 10 33 26 30 39 376 673 539 539 505 458 371 365 416 816 437 280 534 1408 2102 2530 2332 1281 889 1583 1155 1338 2335 2585 2402 1228 1369 2131 1605 1008 1888 927 1024 803 2114 1615 799 920
62 79 190 192 220 329 274 109 14 5 0 264 605 575 614 508 671 726 680 785 752 757 507 717 1416 1887 2177 2504 3589 2328 2313 1189 1728 1789 2186 2066 2277 2183 839 2270 1704 1851 1691 1314 1738 2646 2385 2615 2074
30 39 58 183 196 222 144 147 182 13 24 56 442 560 635 792 661 912 1012 947 870 923 637 809 1006 1511 2194 2422 2552 2270 2189 970 1162 1855 2655 1989 2490 3086 3010 1853 1976 2427 2529 2784 2502 2603 1242 357 1204
10 26 49 41 298 323 186 182 0 134 271 169 250 425 563 716 608 1206 1059 977 1060 429 765 1077 303 1147 1772 2131 2498 2170 1697 1328 1617 1300 1630 2334 2478 2950 3108 1868 1802 1991 1988 1105 2322 1137 1791 1455 619
30 28 60 117 105 160 91 136 117 56 253 471 278 292 424 691 804 848 543 735 718 721 1069 1068 1013 1128 1631 2383 2310 2031 2132 2255 1813 1418 1795 2517 2751 2965 2809 1425 730 687 1293 1789 1928 853 2407 1312 978
19 3 49 71 95 184 93 188 51 140 48 82 368 324 466 472 522 743 522 500 534 947 1417 1181 1297 2154 1979 2048 2475 1939 1813 1691 1535 1746 1609 2794 2978 3024 2762 2061 1113 2182 2204 1632 2078 1932 1917 1549 781
5 0 0 17 7 109 76 244 82 58 0 34 498 380 234 342 542 652 558 597 697 889 1380 1353 2016 2443 2036 2005 1836 1830 1171 1581 1722 1737 2056 3144 3345 3492 3189 2711 2384 2629 2260 2774 2661 2443 2225 318 488
0 0 0 0 52 45 71 364 80 0 92 289 383 456 465 335 365 665 681 590 582 872 1203 1562 1853 2318 2470 1878 1902 1574 1830 1272 1059 1387 2230 2919 2931 3590 3587 3010 2406 3221 1660 2205 2735 2232 1143 1717 842
0 0 0 1 78 20 87 90 202 304 806 794 571 737 702 640 478 568 674 622 556 887 1305 1600 1824 2823 2439 2126 2234 2671 2321 2398 1470 1186 1417 2348 2955 3531 3311 3249 2749 2893 3205 2540 2621 2501 2203 421 494
0 0 0 11 99 73 76 107 385 166 224 363 573 703 715 840 764 361 504 572 582 820 1171 1708 1959 2359 2381 2548 1823 2067 1100 904 713 1276 1332 2168 2755 3043 3686 3441 3382 3279 2712 2453 2426 2885 2708 2574 1212
0 0 0 2 0 7 76 84 33 82 113 63 242 645 556 933 830 587 362 477 514 701 1160 1472 2093 2191 2572 1936 2474 1752 1584 905 1445 1245 1758 2751 3189 3122 3091 3552 3546 3775 3000 2758 2133 2753 2749 3173 1662
0 0 0 0 0 1 0 9 88 47 147 128 79 328 753 605 994 899 536 487 456 606 1011 1436 2211 2316 2543 2698 2177 3014 1743 1685 703 1431 1570 2315 2404 2881 3270 3410 3537 3378 3125 3260 2922 2887 3047 2959 2806
0 0 0 0 0 0 0 0 1 60 104 79 124 282 500 952 1091 1117 845 508 565 639 806 1168 2328 2694 2705 2875 2694 2167 3209 1812 2006 2473 1544 1728 2016 2054 2523 2985 3875 3411 3491 3662 3425 3532 3706 3344 3081
0 0 0 0 0 0 0 0 0 0 28 116 226 219 275 562 1165 1259 1177 693 611 601 863 1123 2107 2639 2961 2709 3290 2828 2665 2989 1489 1720 1707 1290 2113 1792 3217 2790 2857 3407 3543 3209 3874 3956 3317 3398 3126
0 0 0 0 0 0 0 0 0 0 0 3 0 236 359 411 918 1172 1376 873 663 689 911 965 1815 2464 2838 3027 3305 3499 2683 2433 2738 1691 2118 2696 2291 1876 4660 3126 3076 3350 3657 3643 3283 3416 3478 3530 3085
0 0 0 0 0 0 0 0 0 0 2 0 0 0 185 424 713 1051 1242 1147 813 703 921 985 1688 2313 2889 3162 3232 3322 3539 2572 2177 2923 1934 1747 2692 4180 4304 3503 3392 3302 3226 3591 3502 3366 3543 3246 3079
0 0 0 0 0 0 0 4 18 45 0 2 0 0 1 358 586 870 1122 1391 1091 818 871 1089 1246 2490 2964 3288 3451 3400 3391 3541 2873 2184 2688 2278 2700 2809 3459 4057 3337 3158 3233 3253 3694 3475 3274 3351 3223
0 0 0 0 0 0 0 1 0 10 5 0 0 10 0 47 532 878 1177 1354 1467 1265 1078 1271 1477 1797 2924 3391 3513 3478 3565 3632 3521 2873 2720 2814 3059 3919 3355 3722 3893 3182 3016 3145 3469 3331 2752 3511 3376

GFSSGP_con_sbcape_057.txt.gz
CAPE
13 0 2 178 131 178 134 137 176 224 178 294 180 243 243 149 96 2 0 0 0 24 703 1428 2076 2146 1728 2250 2415 2131 1957 2069 2416 2026 2217 2160 2077 2215 2047 2073 2132 2032 2070 1973 1523 1571 1556 1510 1546
6 14 284 404 539 0 9 157 245 275 251 117 119 173 119 4 4 6 0 0 0 166 763 1587 2452 2380 1960 2194 2465 2452 2009 1937 2361 2436 2255 1807 1562 1591 1810 2037 2052 1912 1769 1696 1678 1613 1544 1509 1312
15 104 299 249 162 44 55 85 135 153 285 309 232 90 107 8 9 0 0 0 2 82 957 1522 2471 2718 2342 2411 2410 2640 2233 1991 1995 1974 1862 1946 1880 1847 1588 1441 1601 1814 1833 1721 1589 1514 1507 1469 1482
64 384 301 340 64 107 49 29 225 361 362 232 143 93 0 0 0 0 0 0 82 844 1170 1936 2101 2416 2436 2452 2378 2098 2069 2084 2090 2024 1934 1950 1881 1882 1965 2050 1648 1616 1587 1542 1517 1459 1405 1467 1470
464 274 149 61 38 46 120 210 190 284 352 226 208 38 0 0 0 0 0 2 415 796 1240 1518 2546 2764 2462 2506 2062 2179 2044 1945 2017 2149 1922 1914 1884 2098 1831 1767 1749 1757 1702 1573 1486 1469 1458 1431 1737
490 46 18 2 11 32 91 126 326 404 404 238 83 73 51 0 0 0 0 105 480 818 1230 1247 2045 2492 2635 2199 1859 2338 2070 1765 2035 2249 1828 1878 1960 2187 2573 1740 1625 1575 1587 1612 1637 1598 1720 1842 1658
522 311 22 25 33 84 130 33 397 506 371 202 223 255 1 0 0 0 9 65 487 837 964 1131 1323 1278 2008 2410 2095 2082 1800 1728 1779 1802 1724 1644 1654 1775 1883 1909 1856 1641 1604 1492 1490 1623 2080 2049 1790
400 293 80 162 169 183 77 39 413 534 400 211 170 225 2 4 0 0 66 145 208 688 778 689 1064 1250 1537 1759 1971 1889 1778 1728 1704 1653 1582 1539 1497 1516 1691 2261 2163 1515 1567 1562 1514 1620 1941 1942 1984
447 243 19 184 179 140 25 86 183 410 494 387 320 282 1 0 10 71 171 121 161 383 396 600 1283 1019 869 1023 1300 1806 1722 1845 1740 1617 1612 1785 1198 1139 1346 1780 2390 1654 1634 1610 1653 1893 1818 1906 1877
394 11 184 217 186 88 47 21 249 479 544 226 199 179 31 57 137 174 201 106 0 129 381 293 1042 835 657 962 1106 1173 1297 1362 1274 1213 981 1045 1207 1146 1607 1973 2606 2167 1808 1835 1982 1867 1813 1541 1262
18 20 98 4 50 113 7 25 38 448 542 219 132 122 175 222 129 151 148 30 0 28 191 76 581 568 512 644 829 1019 951 961 1179 133 87 844 1403 1396 1331 1305 1530 1366 1080 5 688 548 386 1429 1436
14 68 32 9 16 22 23 33 27 297 682 339 135 93 267 201 114 194 52 0 0 0 18 4 53 430 192 183 501 777 643 729 1256 717 243 711 945 1122 800 1084 1523 719 687 486 825 497 865 919 1244
0 44 28 15 28 54 99 35 22 857 736 557 291 279 303 245 149 116 89 45 1 0 0 0 68 527 266 147 222 358 392 537 1089 1439 1151 1096 799 670 1081 864 602 434 528 768 669 785 1017 895 447
0 20 67 47 18 186 247 111 29 824 658 524 418 348 328 270 291 94 101 48 3 0 0 136 62 893 830 710 1032 1187 418 459 1323 1300 1188 599 634 848 1073 1243 967 1192 833 257 313 1118 904 959 599
0 0 107 107 76 94 211 211 118 48 556 487 470 401 330 323 254 228 157 82 236 68 242 139 292 802 499 710 874 1030 783 124 244 1288 1133 921 1110 1157 1202 555 1397 1250 1172 587 1018 1585 941 322 331
0 0 5 19 65 142 148 146 25 7 20 461 544 493 460 346 330 242 181 170 211 188 452 366 285 615 742 692 808 1336 800 502 2 933 845 693 975 1649 992 691 674 651 1300 1058 1295 720 462 200 301
0 0 0 3 30 136 116 0 0 20 165 310 486 581 462 424 408 357 226 285 78 139 147 432 410 416 880 837 1185 878 944 1056 516 283 642 726 1042 1790 932 491 511 509 912 516 815 468 758 959 845
0 0 1 0 1 85 55 2 0 2 216 344 60 101 498 446 380 427 513 486 122 145 83 24 368 429 617 849 1283 748 740 1066 190 454 765 1195 1348 1736 1398 780 361 316 1380 977 1275 640 905 621 4
0 0 1 1 27 56 96 5 44 157 174 242 168 15 99 416 451 432 622 569 369 239 212 134 385 652 560 1024 838 1228 704 734 83 176 1269 1560 1550 1542 1601 1007 629 837 1125 1037 963 701 743 30 0
0 0 0 0 0 60 175 91 90 14 41 37 43 224 151 193 159 279 128 156 146 394 92 454 336 824 612 1052 624 795 802 492 297 215 288 1653 1839 2083 1769 1479 1139 1296 1055 1401 1122 1080 389 393 6
0 0 0 0 0 80 160 118 62 3 13 40 156 295 244 126 138 204 78 94 70 410 300 146 653 1238 810 985 856 739 850 380 356 220 53 1494 1268 1844 1856 1510 1343 1170 1004 1031 887 942 489 239 0
0 0 0 0 12 67 3 73 32 93 96 2 114 261 57 91 105 172 102 117 177 327 525 197 894 1182 1032 922 995 723 421 396 449 96 258 913 1656 2152 1990 1665 1472 1256 1335 1255 877 1116 809 225 185
0 0 0 0 0 2 51 49 96 72 1 14 101 311 16 122 81 148 126 154 118 266 474 470 501 1388 1230 1070 684 790 607 346 59 352 193 610 1316 1401 2529 1880 1527 1661 1348 1189 964 1329 1426 996 243
0 0 0 0 0 0 0 25 9 40 48 67 233 423 295 252 140 105 205 132 122 342 566 703 581 956 1087 944 1055 560 584 232 298 128 261 679 1836 1718 1847 2206 1782 1986 1692 1349 1291 1182 1047 684 1370
0 0 0 0 0 0 0 4 0 9 28 175 488 526 310 318 254 134 238 136 177 308 507 816 775 780 1365 934 645 1044 734 510 154 48 184 952 1736 1689 1859 2029 1969 1871 1650 1741 1579 1523 1432 1225 972
0 0 0 0 0 0 0 0 0 0 1 11 273 477 514 476 372 269 139 184 145 192 479 767 939 848 1019 1480 1027 533 924 1055 486 756 301 208 979 1388 1487 1840 2237 1910 1668 1766 1826 1545 1980 1634 1245
0 0 0 0 0 0 0 0 0 0 0 0 7 348 479 529 555 425 189 159 125 191 396 660 1004 999 1106 1203 1443 1280 631 1307 966 228 803 1223 489 1130 1445 1625 1643 2298 1856 1631 1524 2421 1982 2041 1715
0 0 0 0 0 0 0 0 0 0 0 0 0 10 132 434 670 580 324 192 161 161 310 447 1074 1199 1334 1313 1453 1584 1537 805 1382 905 505 490 856 1324 1132 1728 1617 2184 2394 2116 1738 2075 2424 1884 1946
0 0 0 0 0 0 0 0 0 0 0 0 0 0 21 152 730 714 480 251 210 151 278 438 669 1398 1595 1726 1413 1824 2079 1748 1041 1460 1151 677 648 945 2720 2255 2070 2057 2064 2260 2087 1653 2128 2354 2197
0 0 0 0 0 0 0 0 0 0 0 0 0 0 3 52 796 814 676 364 252 196 199 395 745 1261 1587 1732 1908 1607 1929 2404 1813 1095 1175 1031 884 1318 1268 2625 2507 2327 2199 1950 2260 2228 2266 2090 2278

GFSSGP_con_sbcape_060.txt.gz
CAPE
20 0 0 287 4 26 72 86 194 314 165 24 2 14 53 20 2 0 0 0 0 108 823 1351 2181 1941 1647 1837 1979 2027 1924 2076 1945 2060 2029 2050 2098 2102 2167 2104 2045 2165 1624 1406 1556 1675 1646 1625 590
0 0 71 316 260 0 20 168 261 201 219 70 187 151 41 2 3 5 0 0 9 619 1014 1303 2180 2153 1664 1728 1916 1935 1890 1962 2179 2079 1911 1825 1992 2056 2089 2160 2063 2020 2009 1758 1755 1648 1603 1457 1046
1 30 151 174 36 6 21 2 208 344 197 260 114 71 16 4 2 0 0 0 242 920 1270 1503 2216 2248 1459 1587 2041 1979 1903 2010 1727 1738 1650 1600 1514 1419 1655 2005 2107 1980 1823 1756 1673 1630 1608 1629 1540
24 403 394 275 100 68 108 127 159 251 333 231 118 13 0 0 0 0 0 0 510 1081 1461 2324 2144 1382 1703 1800 2092 2066 1897 1796 1737 2053 2180 1971 1897 1851 1893 1654 1672 1697 1732 1688 1588 1502 1500 1564 1598
252 338 98 4 38 106 146 156 69 262 286 174 81 4 12 3 0 0 0 257 696 1042 1461 1817 2355 2353 2255 1830 2135 1850 2054 1863 1841 2018 2001 2042 2195 1907 1866 1817 1798 1782 1694 1555 1455 1411 1408 1439 1504
535 28 27 14 13 41 8 96 125 328 267 24 1 20 3 0 0 0 0 503 879 1138 1354 1694 2380 2633 2439 1935 2054 1962 1854 1826 1988 1974 2083 2131 2310 2052 1884 1855 1874 1881 1812 1790 1747 1651 1589 1431 1390
249 217 6 23 44 63 115 130 149 396 289 94 129 14 0 0 0 0 90 659 840 1118 1096 1358 1469 1354 1962 1897 1983 1957 1756 1830 1964 1846 1840 1905 1968 2038 2009 1819 1733 1675 1594 1587 1660 1710 1640 1637 1587
309 132 10 0 1 104 85 198 443 413 317 197 15 0 0 0 0 0 491 569 840 907 935 923 785 1020 1711 1800 1883 1792 1741 1779 1836 1752 1702 1640 1671 1773 1732 2047 2191 1778 1757 1697 1588 1625 1694 1736 1500
335 595 26 29 130 100 53 245 436 259 278 308 232 0 0 0 0 43 322 628 653 808 731 771 895 1192 1245 1348 1581 1936 1763 1751 1775 1589 1606 1841 1021 1176 1393 1771 1816 1689 1677 1667 1607 1580 1648 1664 1530
325 381 301 102 86 98 69 248 355 312 333 348 85 0 0 9 5 66 195 507 513 494 486 767 874 722 738 1264 1067 1120 1169 1399 1376 1335 1226 893 916 895 1302 1533 1815 1841 1825 1919 2079 1804 1711 1642 930
70 287 73 94 97 115 56 118 515 379 345 277 39 10 35 10 69 99 98 339 296 252 456 872 866 409 608 800 797 804 866 1000 998 853 312 550 1064 1203 1600 1122 1410 1063 740 0 199 271 420 634 936
0 20 37 31 48 87 16 24 560 564 328 319 70 52 90 73 130 215 103 70 109 248 266 550 782 413 378 487 685 679 684 701 802 526 2 749 687 1026 932 802 1037 961 852 163 612 518 466 599 831
0 0 46 96 55 30 47 78 530 479 308 164 77 130 102 96 125 197 119 6 20 165 80 166 525 374 168 194 127 380 433 448 731 819 108 783 599 453 592 595 484 342 497 522 602 578 693 834 766
0 0 14 10 0 11 127 332 699 315 201 146 125 117 136 143 152 176 76 19 1 6 7 6 100 237 68 63 2 96 131 171 580 1059 773 760 59 404 552 470 403 608 460 463 483 495 859 561 427
0 0 0 33 0 111 99 71 627 386 162 114 110 127 159 141 186 132 57 18 0 0 0 0 14 203 104 92 71 364 351 46 620 911 818 388 336 587 533 501 571 874 614 351 233 541 628 523 77
0 0 0 2 24 69 135 47 274 479 254 122 105 194 208 159 183 126 104 4 0 0 0 0 65 420 239 400 338 759 304 6 318 814 704 652 772 830 571 784 1031 879 1015 632 771 669 233 65 195
0 0 0 0 23 84 107 84 28 545 381 287 221 210 189 193 211 114 113 41 30 0 0 4 22 424 20 300 304 574 579 422 16 473 327 546 1091 866 421 412 561 552 755 470 593 148 247 680 647
0 0 0 0 23 108 91 14 0 28 522 407 325 256 159 140 210 134 96 93 24 0 39 3 2 251 145 279 353 351 275 381 99 37 203 192 850 912 474 322 260 111 852 451 750 142 620 374 48
0 0 0 0 48 146 71 2 8 0 34 372 420 360 233 150 138 112 82 38 19 0 156 17 29 34 237 295 520 352 218 250 179 0 201 462 809 1289 829 490 419 2 814 618 621 215 261 19 0
0 0 0 0 0 42 144 113 79 1 0 127 425 449 345 240 180 140 68 18 20 0 81 65 95 35 152 155 211 421 200 89 158 0 440 640 851 1202 1131 813 569 210 852 768 725 595 148 34 0
0 0 0 0 0 61 84 60 9 0 10 78 119 144 198 275 244 229 171 136 97 12 0 0 184 152 141 292 118 312 454 78 142 4 0 779 1038 1342 1396 1149 759 921 789 777 624 359 124 42 0
0 0 0 0 0 3 79 12 2 7 27 12 0 8 33 24 260 218 221 220 208 99 0 0 275 265 190 487 280 343 610 731 109 12 0 253 1101 1382 1315 1104 892 762 730 633 442 550 113 0 0
0 0 0 0 0 0 1 13 27 35 1 1 18 11 39 26 44 194 194 284 310 177 4 96 404 361 335 611 428 312 211 196 15 11 0 1 810 1041 1527 1245 1063 957 754 906 504 805 644 144 0
0 0 0 0 0 0 0 0 0 0 0 0 0 23 73 92 28 29 38 139 99 167 72 5 314 627 489 634 560 416 259 35 53 0 2 0 304 703 1559 1477 1012 913 916 904 691 565 734 742 328
0 0 0 0 0 0 0 0 0 0 0 0 0 0 21 143 19 25 28 0 15 170 213 28 249 535 703 604 572 483 371 109 42 14 0 4 534 942 887 1674 1158 1126 1101 878 766 794 776 364 593
0 0 0 0 0 0 0 0 0 0 47 6 2 0 7 176 59 17 36 32 10 74 225 208 97 337 607 742 581 424 215 284 104 0 0 0 465 1031 1043 1277 1575 1248 1212 1088 962 868 944 846 577
0 0 0 0 0 0 0 0 0 0 0 0 0 0 2 196 141 45 46 83 42 126 228 320 217 168 609 608 656 591 631 340 241 69 0 0 99 984 1075 1159 1542 1494 1325 1060 1297 1012 1148 1366 993
0 0 0 0 0 0 0 0 0 0 0 0 0 21 125 305 308 190 69 149 101 123 242 370 377 252 270 736 569 376 332 763 978 138 39 402 177 413 1023 1064 1256 1632 1508 1232 1012 1456 1446 1486 1347
0 0 0 0 0 0 0 0 0 0 0 0 1 153 307 454 412 311 141 162 119 99 258 416 533 420 401 496 777 743 564 226 483 889 133 14 128 545 558 1067 1199 1227 1751 1409 1076 1018 1636 1449 1544
0 0 0 0 0 0 0 0 0 0 0 0 0 70 407 496 469 407 273 141 144 120 204 377 564 683 549 623 619 835 907 845 384 363 1056 398 88 53 367 1660 1341 1262 1458 1795 1607 1284 1455 1859 1519

GFSSGP_con_sbcape_063.txt.gz
CAPE
70 63 0 237 26 44 50 105 236 437 395 0 0 3 30 40 13 0 0 0 12 302 810 1756 1969 1772 1797 1761 1979 1927 1932 2009 2152 2123 2238 2189 2225 2306 2242 2263 2165 1422 1435 1867 1859 1786 1087 679 1145
27 21 53 214 136 0 42 75 177 299 274 0 46 101 25 9 1 8 0 0 170 627 915 1415 2084 2058 1710 1945 2052 2065 1983 2263 2359 2139 2204 2398 2166 2176 2193 2206 2196 2080 1824 1908 1817 1711 1352 816 1040
29 32 285 264 61 14 7 34 137 322 196 204 104 13 12 1 3 1 0 91 612 893 1061 1421 2109 2067 1660 1967 1986 1871 2041 1826 1690 1533 1465 1516 1764 2172 2206 2119 1961 1945 1946 1854 1767 1730 1591 1441 1051
32 127 382 231 115 30 77 171 288 330 217 88 1 1 0 0 0 0 11 480 892 1087 1307 2077 1875 1579 1545 1950 1990 1954 1758 1701 2103 2087 2024 2023 1701 1604 1756 1892 1993 1962 1858 1769 1693 1642 1621 1570 1243
102 210 72 1 6 70 201 124 321 263 189 89 19 3 7 2 0 0 104 748 953 1228 1259 1356 2150 1766 1676 2040 2037 1877 1778 1750 2157 2063 2276 2040 2250 2177 1834 1870 1857 1822 1717 1619 1562 1564 1556 1535 1449
500 37 2 8 8 8 10 225 201 334 158 0 0 4 7 0 0 0 308 740 1053 1363 1407 1280 1780 1982 1913 2139 1920 2091 1770 1985 2033 2080 2015 2240 1970 2001 2015 2041 2028 1952 1871 1845 1793 1770 1696 1467 1467
506 34 15 17 16 78 121 158 161 353 107 20 0 1 0 0 0 71 506 723 1077 1305 1351 1247 1435 1757 1933 2093 1988 2056 1808 2042 2021 2059 2091 2122 2101 1966 1881 1850 1831 1803 1786 1756 1759 1753 1834 1539 1513
427 90 0 0 0 62 97 142 124 279 263 37 0 0 0 0 0 183 620 764 1037 1092 1058 1114 1090 1141 1572 1754 1931 1910 1808 1970 1867 1783 1780 1830 1881 1959 1896 2046 2124 1845 1806 1726 1710 1740 1821 1756 1437
349 345 12 0 170 116 77 133 308 219 100 210 13 0 0 0 0 497 537 728 891 848 799 662 730 1199 1313 1430 1512 1848 1801 1854 1795 1587 1615 1610 936 1085 1392 1632 1822 1734 1696 1652 1678 1670 1633 1798 1401
195 249 194 76 129 104 83 458 244 185 216 48 0 0 0 0 83 411 461 273 619 739 721 516 750 1003 1146 1547 1278 1189 1252 1346 1316 1294 1294 893 787 757 1165 1475 1976 1833 1760 1770 1890 1684 1830 1340 786
196 264 232 94 87 27 71 178 373 313 265 60 0 0 0 16 212 315 426 288 470 564 757 656 729 673 790 1046 788 837 844 1027 1010 928 647 606 897 873 1285 1143 1344 1050 1017 0 131 175 298 1037 890
0 24 242 137 26 114 74 218 470 446 337 106 0 1 23 28 122 231 449 375 356 356 475 736 540 373 391 379 664 657 691 736 740 662 31 276 538 661 973 881 666 903 624 242 339 351 334 346 609
0 0 0 6 0 24 93 30 477 463 299 1 0 29 18 31 78 162 336 320 169 198 236 703 506 211 194 209 481 433 510 644 535 665 0 413 616 658 661 397 651 429 407 430 350 427 731 713 796
0 0 0 0 0 6 205 574 450 355 197 0 0 3 0 57 116 156 163 102 83 78 50 479 479 184 72 66 110 165 191 243 384 717 426 296 319 306 526 457 334 272 330 323 324 218 568 378 442
0 0 0 0 0 177 155 146 440 285 147 46 34 23 73 102 162 219 82 53 54 44 0 32 292 109 29 23 0 1 64 125 177 725 798 588 57 192 518 337 286 528 365 304 174 176 348 274 28
0 0 0 0 0 56 52 12 367 196 154 86 95 81 75 84 113 183 36 12 0 0 0 0 147 95 3 0 0 0 187 152 28 738 716 555 282 419 367 411 545 617 488 198 210 355 175 6 43
0 0 0 0 6 87 137 56 488 189 151 136 131 85 87 72 107 108 47 13 0 0 0 0 0 48 3 0 0 19 279 0 0 458 555 442 574 727 399 544 564 434 487 261 434 125 84 161 205
0 0 0 0 0 57 86 20 433 201 171 151 120 115 134 102 115 110 49 0 0 0 0 0 0 40 10 11 7 68 169 242 7 203 179 334 939 705 321 259 331 241 482 180 460 83 434 109 0
0 0 0 0 0 36 67 26 117 419 218 125 104 119 128 116 81 99 33 22 0 0 0 0 0 19 0 7 45 11 53 74 82 0 192 119 817 786 408 356 135 0 544 309 316 107 32 0 0
0 0 0 0 26 31 76 47 4 345 415 263 162 147 157 115 66 18 56 52 6 0 0 0 0 4 38 59 102 8 0 0 22 0 0 163 430 1017 681 468 279 0 414 530 371 247 87 9 0
0 0 0 0 53 154 90 99 1 1 45 270 290 211 156 98 70 62 0 2 0 0 14 0 0 0 46 23 0 52 19 0 5 0 0 359 473 966 1008 721 392 125 326 569 369 334 0 12 0
0 0 0 0 0 3 76 2 0 0 22 0 35 339 228 138 92 0 50 0 14 0 4 0 0 0 0 0 3 88 19 39 0 0 0 76 615 855 1124 1007 713 621 611 656 376 258 0 0 0
0 0 0 0 0 0 21 5 0 0 0 0 1 142 345 235 188 80 0 0 0 0 0 0 0 0 0 43 16 3 0 0 0 0 0 0 544 757 1208 1044 742 581 539 561 306 400 189 0 0
0 0 0 0 0 0 0 2 0 0 0 0 0 33 67 158 218 191 99 45 15 8 0 0 0 23 17 88 49 1 3 0 17 1 0 0 0 617 945 1203 798 647 547 542 509 360 336 304 39
0 0 0 0 0 0 0 0 0 0 0 0 0 32 61 50 63 112 184 92 85 95 35 0 0 41 85 131 155 31 2 0 7 0 0 0 0 191 589 1131 998 679 601 626 527 371 368 367 553
0 0 0 0 0 0 0 0 0 0 0 0 0 12 42 51 39 66 100 185 123 151 117 2 8 66 123 174 229 137 19 0 0 0 0 0 0 79 397 725 1217 856 766 704 636 410 438 411 266
0 0 0 0 0 0 0 0 0 0 0 0 0 0 0 5 29 58 86 79 78 208 208 32 40 83 186 179 230 233 120 48 9 0 0 0 0 141 374 567 995 1120 998 867 794 672 640 642 444
0 0 0 0 0 0 0 0 0 0 0 0 1 0 0 0 35 57 29 56 13 86 161 85 0 67 217 266 233 228 198 83 100 1 0 0 0 0 495 702 856 1265 1149 1009 859 860 680 782 794
0 0 0 0 0 0 0 0 0 0 0 0 0 9 12 1 16 65 29 29 39 31 96 171 48 0 80 292 317 263 254 261 159 32 0 2 0 0 29 639 827 1017 1276 1100 881 912 1115 921 922
0 0 0 0 0 0 0 0 0 0 0 0 0 0 0 28 52 81 14 37 47 36 88 177 158 52 22 160 248 249 215 254 497 624 48 0 5 43 136 149 746 854 1052 1272 1127 1007 1079 1248 1242

GFSSGP_con_sbcape_066.txt.gz
CAPE
57 56 19 142 49 34 63 165 109 387 49 0 0 4 20 37 21 0 0 0 44 321 764 1313 1977 1624 1591 2103 1965 2085 2080 2165 2184 2278 2300 2127 2061 1875 2021 1982 1655 1473 2030 1750 1659 879 866 1077 1246
27 56 53 219 105 0 22 45 275 202 137 0 51 32 33 4 0 5 0 0 150 500 1073 1233 2127 1887 1843 1976 2135 1927 2143 2218 2259 2229 2232 2035 2279 2251 2263 2269 1607 1866 1967 1889 1613 1260 854 1014 1155
26 37 239 301 56 1 23 32 120 132 0 2 49 5 1 1 0 0 0 112 416 760 1022 1202 1884 1941 1994 2042 1957 2278 2238 2141 1915 1942 2122 2233 2133 2237 2290 2135 2193 2085 1950 1898 1756 1563 1471 1292 1437
20 70 250 145 105 58 96 201 344 199 197 10 0 0 0 0 0 0 35 418 687 906 1128 1728 1542 1557 1625 1588 2005 1802 1608 1750 1568 1666 1544 1613 2133 2070 2189 2193 2125 2060 1918 1879 1795 1660 1232 1266 1108
26 322 70 0 17 92 110 231 361 343 180 4 0 2 6 5 0 19 345 564 746 958 1225 1278 2066 1533 1959 1699 1809 1638 1793 2062 2165 2060 1976 1963 1928 1853 1934 2016 1995 1906 1714 1779 1717 1625 1522 1197 1176
385 70 5 6 43 47 100 134 317 303 51 0 0 2 9 0 4 144 593 706 935 1072 1039 1278 1575 1549 1988 1972 1761 1699 1806 1992 2084 2191 2126 2057 2045 2003 2068 2078 2034 1936 1933 1850 1736 1658 1608 1497 1246
636 16 21 27 41 66 143 199 284 409 42 0 0 5 5 4 0 363 636 947 1178 1089 963 928 948 1300 1823 1846 2116 1708 1949 2148 2162 2316 2304 2114 2033 2076 2093 2060 2015 1979 1739 1828 1696 1565 1597 1562 1488
436 73 2 8 3 32 148 178 148 389 116 0 0 0 3 2 49 476 669 908 1047 1095 992 868 1033 1222 1533 1563 2148 1716 1991 1892 1870 1937 2014 2082 2036 1983 1983 1934 2007 1667 1805 1751 1724 1766 1484 1968 1904
323 271 19 1 110 62 64 241 210 188 17 25 0 0 0 0 328 484 495 827 1001 920 803 786 828 1110 1195 1276 1593 1661 1929 1898 1787 1610 1755 1534 957 1107 1410 1632 1743 1733 1739 1603 1688 1725 1614 1746 1636
174 58 47 0 98 40 92 433 218 163 149 0 0 0 0 6 270 146 87 102 362 766 724 525 648 1012 1096 1440 1146 1014 1319 1230 1151 1117 1211 892 702 810 1293 1665 1721 1617 1636 1638 1762 1602 1674 1076 1217
167 231 159 107 126 26 254 330 257 183 239 0 0 0 0 37 137 32 39 55 164 466 810 437 574 781 978 1169 845 788 874 1045 1031 973 711 564 840 801 1153 1149 1112 1011 360 0 413 145 704 1006 1142
0 0 170 202 137 28 28 271 340 279 270 11 0 0 0 60 62 51 59 96 203 378 666 445 484 607 599 538 657 635 696 737 769 668 249 254 506 667 765 936 557 819 703 396 582 616 535 564 954
0 0 0 20 43 19 34 328 443 330 88 0 0 0 1 51 115 177 143 186 342 356 504 489 383 379 293 218 437 392 470 628 555 603 9 425 569 619 810 589 511 587 509 527 367 553 1008 903 893
0 0 0 0 0 0 0 199 301 242 0 0 0 0 15 78 177 243 257 231 259 249 243 407 401 159 47 51 184 219 230 288 377 545 460 61 481 349 563 596 471 278 350 317 284 449 830 673 707
0 0 0 0 0 30 286 386 424 68 0 0 0 1 16 57 135 169 290 206 148 135 60 252 319 52 5 0 1 29 60 143 175 424 635 378 323 188 508 458 397 435 460 414 127 556 648 390 75
0 0 0 0 0 79 21 9 316 39 0 0 0 22 43 54 80 93 214 114 52 35 0 20 374 114 0 0 0 0 0 46 46 165 522 713 511 183 464 482 147 420 636 296 304 557 379 109 143
0 0 0 0 0 84 55 27 202 94 1 0 0 2 40 57 85 115 61 35 22 0 0 0 60 31 0 0 0 0 0 0 0 115 431 593 483 555 375 442 300 614 455 364 545 217 118 234 494
0 0 0 0 0 58 83 44 168 110 58 6 4 17 31 58 90 124 32 0 0 0 0 0 0 0 0 0 0 0 11 86 0 50 334 455 460 846 386 380 329 452 577 252 509 243 249 100 3
0 0 0 0 0 20 41 37 304 138 92 67 65 71 53 26 48 80 78 0 0 0 0 0 0 0 0 0 0 0 17 52 20 0 168 328 566 941 322 241 243 114 568 387 530 202 168 17 0
0 0 0 0 0 0 0 41 172 132 93 100 92 89 66 38 3 58 10 0 0 0 0 0 0 0 0 0 0 0 0 0 24 0 51 155 477 1040 617 419 259 0 512 308 504 234 193 50 0
0 0 0 0 0 31 78 39 0 168 115 66 41 57 46 64 8 25 7 0 0 0 0 0 0 0 0 0 0 0 0 0 0 0 0 73 272 933 930 655 411 78 304 358 436 409 104 35 0
0 0 0 0 0 5 50 0 0 2 223 203 95 33 36 65 37 0 0 0 0 0 0 0 0 0 0 0 0 64 34 0 0 0 0 18 307 544 1033 972 665 541 493 403 424 382 120 0 0
0 0 0 0 0 0 0 0 0 0 0 86 224 192 86 66 70 19 0 0 38 10 0 0 0 0 0 0 0 0 6 0 0 0 0 0 230 477 902 1058 922 776 624 685 497 553 255 0 0
0 0 0 0 0 0 0 0 0 0 6 0 9 113 216 138 84 37 0 0 0 19 0 0 0 0 0 0 0 0 0 0 0 0 0 0 0 379 618 1071 931 822 694 746 663 571 441 277 62
0 0 0 0 0 0 0 0 0 0 4 0 9 1 25 229 162 77 0 0 0 0 0 0 0 0 0 0 0 0 0 0 0 0 0 0 0 0 377 825 1014 808 757 667 680 630 558 495 560
0 0 0 0 0 0 0 0 0 0 0 0 0 1 3 65 265 157 74 2 0 0 0 0 0 0 0 0 0 0 0 0 0 0 0 0 0 0 57 432 1032 991 856 776 738 577 510 590 606
0 0 0 0 0 0 0 0 0 0 0 0 0 0 0 12 82 180 201 94 0 0 0 0 0 0 0 0 2 10 0 0 0 0 0 0 0 0 29 250 743 1077 921 950 830 774 789 717 714
0 0 0 0 0 0 0 0 0 0 0 0 0 0 0 8 26 63 75 138 101 34 21 14 0 0 0 0 4 38 43 0 0 0 0 0 0 0 118 321 498 871 1068 1104 986 1002 937 860 891
0 0 0 0 0 0 0 0 0 0 0 0 0 0 0 0 12 49 53 49 81 101 44 53 3 0 0 38 39 69 119 84 34 0 0 0 0 0 0 282 522 729 1077 1146 1070 1266 1283 1084 1154
0 0 0 0 0 0 0 0 0 0 0 0 0 0 3 8 0 5 55 71 54 31 65 118 28 22 41 114 115 121 155 170 79 46 0 0 0 0 0 34 433 689 965 1254 1228 1255 1375 1371 1429

GFSSGP_con_sbcape_069.txt.gz
CAPE
4 33 76 155 199 55 129 186 200 224 52 3 7 13 40 43 31 27 9 27 280 380 859 1151 2100 1956 2104 1969 2312 2381 2289 2295 2378 2507 2351 2133 2386 2262 2314 1877 1438 2013 1799 1589 947 1100 1240 1519 1277
35 68 85 275 165 94 145 82 279 225 46 1 43 52 72 63 1 4 46 189 304 453 1019 1152 2007 2324 1855 2044 2037 2026 2145 2247 2257 2181 2180 2092 2035 2005 1854 1528 1821 1948 1966 1411 1097 901 1103 1233 1736
36 85 297 211 312 109 46 79 163 32 0 18 57 39 45 14 1 2 19 292 367 703 1011 1518 2168 2478 2068 2008 2008 2082 2066 2103 1944 1968 2075 2232 2009 1806 1965 1883 2094 2084 1927 1681 1620 1445 1165 1369 1651
106 157 221 365 218 182 159 308 501 124 18 87 85 21 0 0 2 0 82 349 497 643 906 1746 1753 2085 2175 1925 1919 1896 1627 1510 1514 1665 1920 2063 2078 2002 2112 2124 2117 1914 1843 1695 1550 1378 1385 1245 1280
100 292 241 42 55 119 115 308 457 279 325 101 1 1 4 3 0 21 167 344 564 435 749 1291 2166 2173 1816 2132 1597 1648 2049 1832 1908 1928 1695 1842 1977 1990 2127 2147 2029 1854 1562 1776 1666 1357 1174 1278 1453
489 175 48 41 47 68 179 204 444 514 184 5 0 0 7 21 11 153 192 268 540 599 600 931 1741 2217 2295 1588 1559 1816 1973 1964 1891 2117 1976 2124 2003 2101 2105 2008 1911 1834 1776 1697 1721 1584 1482 1317 1409
555 122 100 68 77 96 129 252 460 588 202 82 0 0 16 19 81 310 332 398 507 800 765 947 923 1746 2107 1796 1573 1708 1934 2046 1987 2039 2059 2132 1803 2017 2073 2154 1960 1890 1752 1642 1582 1565 1566 1500 1578
707 511 79 66 31 71 255 187 244 527 232 0 0 0 7 25 143 307 523 651 669 989 1099 1104 1109 1249 1971 1830 1550 1826 2055 2006 1890 1985 1773 1907 2059 1937 1974 1774 1906 1856 1762 1707 1631 1547 1623 1672 1899
545 452 158 22 122 146 180 403 353 196 3 7 0 0 0 13 241 381 586 816 1175 1164 827 653 953 1345 1738 1815 1518 1776 1764 1727 1741 1772 2060 1793 1962 1960 1627 1742 1772 1866 1713 1572 1705 1644 1414 1658 1725
385 224 224 7 142 65 230 475 492 390 111 5 0 0 0 55 235 145 347 431 611 619 551 412 895 1113 1427 1245 1686 1691 1537 1422 1635 1750 1867 1446 1664 1767 1448 1536 1517 1639 1621 1719 1732 1699 1676 1493 1435
129 258 259 211 247 70 443 648 505 514 440 103 22 0 2 61 166 45 137 228 125 178 169 456 1317 1313 1350 1160 1535 1415 1459 1456 1620 1888 1918 1749 1789 1907 1591 1652 1871 1977 693 828 1053 1065 1240 1270 1526
58 137 357 275 234 125 260 542 566 569 463 307 13 0 2 46 94 35 79 178 245 415 321 891 1327 1461 1538 1347 1309 1156 1186 1306 1359 1562 1604 1738 1774 2121 2172 2513 1510 1984 1698 1314 1298 1196 1541 1612 1829
0 0 0 79 53 3 15 334 423 572 393 69 6 0 9 15 47 20 70 144 369 342 439 919 1195 1289 1535 1634 1316 964 1031 1065 1189 1411 1389 1346 1648 1891 1971 2300 1392 1683 1630 1494 1710 1728 1469 1585 1591
0 0 0 0 0 0 0 92 505 347 80 26 0 0 4 31 32 62 78 85 252 507 538 802 1000 949 1340 1262 1368 1013 951 1033 1179 1341 1222 1182 1737 1827 1781 2133 1559 1481 1487 1563 1623 1947 1833 1670 1592
0 0 0 0 0 0 32 284 397 165 94 35 15 0 4 63 35 64 92 141 385 482 530 729 731 731 1224 1119 831 783 708 658 891 1122 1639 1581 1564 1568 1878 2088 2441 1687 1634 1792 1596 1891 1784 1091 799
0 0 0 0 0 0 159 223 681 81 89 56 13 21 28 81 117 243 165 201 415 363 539 630 215 347 903 702 550 417 503 606 937 1250 1486 1799 1864 1713 1476 1735 1913 1812 1929 1435 1572 1950 1347 936 1030
0 0 0 0 0 0 358 217 643 81 138 95 54 39 43 83 174 233 304 287 302 358 452 469 282 159 418 461 332 420 522 612 847 1008 1163 1377 1838 1661 1634 1724 1811 2093 2007 1862 1663 1519 1257 1249 1426
0 0 0 0 0 0 200 232 603 144 133 250 131 93 70 86 139 218 315 353 310 287 358 366 309 313 624 345 537 427 468 566 832 1141 1348 1561 1697 1879 1875 1568 1827 2320 2454 1736 1604 1624 1409 697 120
0 0 0 0 0 0 0 165 569 482 135 160 219 157 137 96 121 182 279 357 351 345 287 298 295 505 667 373 306 516 651 906 1361 1002 1409 1595 1742 2005 2122 1568 1774 1607 1829 1699 2028 1401 1314 147 59
0 0 0 0 0 0 0 0 184 573 507 273 113 118 147 142 159 263 318 318 322 409 341 289 256 339 672 372 550 656 840 860 1313 1125 1397 1669 1884 2121 2085 1829 1533 1576 1817 1942 1801 1643 1154 786 39
0 0 0 0 0 0 0 0 80 489 550 447 305 165 98 133 172 262 345 325 281 357 405 419 473 507 566 763 615 752 770 770 1024 1121 1166 1553 1782 1895 2242 2119 1821 1625 1653 2340 2103 1865 1551 675 64
0 0 0 0 0 0 6 1 111 301 535 474 476 380 325 212 174 186 252 335 325 349 382 449 627 643 505 735 741 1197 863 712 730 1150 1149 1349 1589 1596 1797 2139 2026 1972 1425 2162 1922 1750 1559 1437 749
0 0 0 0 0 0 0 14 0 119 395 565 506 466 432 388 284 221 262 287 279 271 266 303 500 855 927 953 1144 939 1374 918 830 835 1312 1290 1505 1561 1499 1950 2212 2301 2287 1974 2046 2190 1855 1447 996
0 0 0 0 0 0 0 0 0 0 22 261 557 530 435 392 379 342 295 306 284 215 142 167 547 905 1026 943 1014 1360 1650 1130 743 771 742 903 990 1339 1687 1786 2198 2291 2489 2306 2124 2423 2155 1961 1352
0 0 0 0 0 0 0 0 0 0 0 1 198 585 590 452 437 431 377 278 371 389 267 400 719 829 924 954 1071 1168 1524 1620 1367 1353 761 973 580 769 1375 1954 2189 2104 2494 2337 2283 2299 2196 2034 1871
0 0 0 0 0 0 0 0 0 0 0 1 87 197 370 653 569 550 517 553 565 653 793 680 834 891 808 867 1091 1334 1492 671 735 1099 718 524 413 438 1050 1587 1780 2152 2302 2476 2537 2264 2139 2190 2203
0 0 0 0 0 0 0 0 0 0 0 0 0 28 117 226 658 647 591 545 647 795 829 733 971 1064 957 817 1051 1243 1275 1207 934 1469 1207 644 987 324 742 1131 1387 1670 1979 2401 2584 2326 2431 2271 2345
0 0 0 0 0 0 0 0 0 0 0 0 0 0 8 82 166 565 640 707 799 667 798 781 825 1040 1091 982 1023 1106 1222 1313 1289 1206 1313 1360 1009 810 604 1062 1183 1391 1668 1969 2361 2161 2464 2612 2434
0 0 0 0 0 0 0 0 0 0 0 0 0 0 29 120 145 297 772 917 845 628 580 741 703 920 992 1048 1111 1227 1282 1034 1099 1016 1017 1409 1201 1072 1139 1309 1403 1521 1624 1862 2165 2274 2177 2465 2658
0 0 0 0 0 0 0 0 0 0 0 0 0 0 0 101 188 304 577 769 749 955 641 761 704 511 848 967 1169 1222 1355 1422 984 1220 984 941 1224 1109 1126 1164 1320 1386 1505 1732 1994 1982 1873 2368 2545

GFSSGP_con_sbcape_072.txt.gz
CAPE
53 43 180 515 603 131 379 339 318 457 74 53 9 18 62 244 295 644 407 566 572 629 923 1339 2268 2165 1954 2150 2277 2245 2374 2498 2205 2008 2008 2256 2395 2288 2102 1655 1753 1996 1638 1039 1216 1395 1587 1366 1457
84 227 212 279 800 397 263 192 365 353 67 33 62 80 62 258 82 228 396 615 792 875 1042 1030 2419 2443 2077 2321 2300 2420 2412 2498 2378 2359 2103 2325 2239 2226 1745 1614 2097 2081 1516 1213 1063 1230 1473 1899 1555
233 146 437 602 617 492 325 450 596 417 48 25 317 259 359 332 132 266 482 584 858 746 837 1336 2367 2397 2094 1997 2091 2259 2305 2291 2171 2162 1980 2028 1796 1835 1619 1958 1642 1978 1757 1769 1476 1206 1464 1742 1842
396 540 710 668 462 403 216 612 212 157 96 64 274 429 133 51 192 244 541 602 924 810 697 1584 2222 2116 1918 2286 2162 2136 2163 2108 2107 1907 2085 1912 1812 1896 2045 2125 1938 1903 1730 1663 1567 1572 1464 1333 1239
371 634 580 565 235 308 360 733 783 149 314 402 343 278 69 24 71 390 627 603 652 473 759 1207 2517 2282 2067 2036 1649 1506 1447 1622 1616 1892 2030 1996 1971 1927 2066 2110 1929 1582 1796 1701 1452 1375 1483 1538 1508
609 690 477 225 47 414 721 782 1102 911 719 403 378 274 24 26 128 411 564 525 81 358 369 914 1923 2280 2153 1512 1808 1948 2128 2130 1983 2055 1975 1967 2007 2123 1986 1961 1823 1546 1591 1714 1603 1471 1462 1496 1597
659 677 471 302 179 431 611 731 981 968 783 590 518 601 16 25 141 316 406 177 41 122 352 778 1382 1705 1606 1542 1814 1805 1913 2055 1984 1935 1983 2045 1982 2101 2132 2030 1881 1755 1718 1720 1655 1507 1267 1511 1543
774 950 447 242 172 620 592 538 820 1111 863 531 375 457 97 163 63 194 129 74 63 118 416 564 1189 1613 1207 1248 1791 1950 1918 1867 2121 2024 1819 2103 2077 2005 1879 2072 1969 1829 1640 1568 1616 1577 1576 1720 1849
579 983 489 407 251 663 415 480 422 870 587 321 183 159 185 102 178 199 95 54 121 185 316 412 743 1609 1193 1087 1835 1756 1963 1903 1998 1912 1956 2292 1672 1677 1692 1699 1776 1736 1580 1584 1496 1417 1486 1791 1910
215 610 498 353 533 572 572 913 1014 752 505 363 182 82 215 311 191 278 117 90 152 246 211 177 486 1192 1036 909 1274 1423 1272 1277 1516 1710 1810 1515 1691 1714 1473 1490 1520 1596 1647 1565 1555 1562 1459 1780 1362
8 142 419 475 508 134 796 973 974 888 815 592 293 176 320 401 400 302 223 201 253 251 111 89 591 978 791 1315 1091 1244 1186 1305 1695 1822 1748 1566 1603 1599 1380 1484 1279 1332 1327 1355 1366 1399 1361 1377 1388
0 1 550 560 474 175 734 910 852 902 964 799 346 199 301 428 414 333 326 319 284 208 51 159 751 1052 925 1108 918 923 966 1021 1059 1532 1952 1942 1581 1789 1457 1314 1400 1803 1581 1357 1416 1464 1819 1676 1584
0 0 30 287 485 190 228 604 712 792 867 631 339 174 269 364 258 221 180 222 127 45 42 365 823 1143 1184 1259 881 761 971 1057 1074 1471 1678 1612 1806 1773 1470 1637 1678 1661 1617 1577 1592 1609 1578 1618 1531
0 0 0 1 45 84 188 406 603 855 712 626 378 241 276 310 218 184 163 200 116 92 75 455 741 1056 1171 1137 1323 1105 1299 1424 1279 1438 1633 2021 2005 2368 1523 1620 1740 1669 1572 1436 1690 1404 1650 1394 1342
0 0 0 0 0 0 81 181 653 907 703 667 469 322 256 254 247 178 153 230 184 204 154 424 621 741 1196 1071 1268 1011 1238 1262 1391 1577 2067 1769 2011 2328 1608 1490 1612 1570 1694 2045 1649 1452 1729 846 1037
0 0 0 0 0 6 220 474 794 782 758 747 562 369 318 291 266 197 195 173 136 122 236 408 241 209 940 924 833 864 1003 1013 1137 1308 1637 2094 2047 2035 1595 1297 1550 2418 1797 1348 1270 1188 1101 568 1008
0 0 0 3 4 73 323 527 1216 774 829 818 671 463 385 365 285 267 211 174 105 212 400 388 280 46 627 851 593 708 921 1056 1219 1310 1428 2001 2173 2115 2010 1436 1236 1587 1469 869 654 837 961 657 427
0 0 0 0 0 127 471 595 998 845 832 859 740 554 439 421 362 379 319 211 94 273 413 368 266 132 536 439 512 513 760 972 1136 1218 1250 1928 2053 2211 2090 1882 1422 1366 838 953 1004 880 1038 596 216
0 0 0 0 21 87 178 576 984 777 819 863 849 675 454 485 475 505 454 291 65 236 383 396 281 343 429 259 229 542 780 946 1252 1483 1742 2197 2176 2315 2360 1786 1465 1326 1338 1403 1196 1497 1268 315 567
0 0 0 0 0 0 118 200 445 1028 763 912 940 855 471 487 524 523 521 478 164 229 389 432 386 494 680 132 226 411 752 946 1196 1345 1821 1996 2191 2425 2068 2006 1911 1801 1155 1344 1246 1558 894 488 314
0 0 0 0 0 0 58 150 83 327 790 599 828 919 617 463 522 522 587 565 453 242 460 517 731 659 676 520 247 924 1165 1302 1490 1457 1525 1746 2054 2253 2198 1756 1644 2006 1886 1149 1519 1511 1489 453 450
0 0 0 0 0 1 0 78 100 62 625 684 752 833 764 538 486 583 538 609 603 395 446 608 671 815 602 1012 1221 1996 1037 877 534 973 944 1126 1824 1919 2049 1999 1616 1916 2123 1430 1335 1277 1429 1649 246
0 0 0 0 0 0 70 103 84 159 410 650 783 778 722 669 534 475 662 706 679 674 473 622 787 1212 1255 1384 1561 1262 1389 320 490 601 1307 1864 1934 1983 1767 2154 2259 2418 1842 1606 1585 1311 1593 1504 1041
0 0 0 0 0 0 0 9 22 171 359 661 716 773 829 777 694 635 570 704 784 677 523 501 1044 1613 1353 1220 866 1652 2186 1462 908 1100 859 968 1090 1383 1836 1862 2358 2188 1609 1904 1894 2159 1703 1936 1493
0 0 0 0 0 0 0 0 0 29 180 247 535 790 871 907 937 852 717 625 732 810 722 581 1710 2219 1587 1001 943 1370 1822 1937 1737 1620 1169 1309 622 657 1068 2141 2285 2155 2568 2070 2036 2201 2096 1690 1935
0 0 0 0 0 0 0 0 0 0 0 4 40 172 517 764 914 972 936 813 729 827 855 941 1847 2297 1746 1421 1950 2220 2357 1172 1305 1514 1019 931 670 487 686 1603 1902 2070 1974 2357 2487 2482 1951 2220 1946
1 0 0 0 0 0 0 0 0 0 0 0 0 6 128 561 748 852 927 957 914 861 1245 1372 2092 2524 2254 1267 2436 2443 2484 2167 1318 2585 1668 1185 1301 786 910 1055 1510 1547 1808 2123 2461 2229 2484 2478 2745
0 0 2 3 0 0 0 0 0 0 0 0 0 0 7 45 425 668 799 971 1005 974 971 1002 1681 2266 1789 1602 1812 1503 1703 1991 2054 1576 1910 1877 1386 1365 1085 1124 970 1218 1724 1987 2412 1920 2263 2785 2558
0 0 11 10 2 0 0 0 0 0 0 0 0 0 0 0 10 375 721 928 1094 1064 1080 1112 1134 1361 1456 1674 2029 2303 1799 1611 1659 1278 1521 1834 1855 1722 1880 1453 1340 1058 1507 1988 2448 2316 1901 2307 2897
0 16 11 41 24 7 6 4 0 0 0 0 0 0 0 0 18 117 562 1024 1121 1222 1149 1189 1165 1138 1330 1925 2499 2157 2147 2405 1427 1665 1560 1718 1937 2059 2073 1955 1831 1490 1379 1916 2352 2372 1695 2310 2726

GFSSGP_con_sbcape_075.txt.gz
CAPE
7 1 141 615 734 973 804 696 562 216 210 130 61 54 358 389 781 1048 648 431 669 588 630 955 2408 2039 1933 2083 2288 2220 1867 1988 2070 2092 2061 2177 2142 2383 1916 1662 2253 1863 1136 1243 1495 1587 1506 1594 1732
63 130 575 592 1140 655 483 562 456 215 149 128 81 189 344 588 531 499 547 510 572 600 797 990 2502 2439 2219 2532 2256 2335 2445 2414 2246 2180 2049 2189 2324 2028 1439 2145 2166 1634 1307 1083 1250 1676 1821 1556 2043
292 339 728 1064 1053 559 611 621 608 292 173 379 484 228 560 448 392 630 510 530 699 819 1060 1665 2397 2520 2291 2104 2459 2464 2471 2347 2189 2041 1961 1963 2144 1514 1983 1733 1945 1888 1936 1287 1166 1439 1810 1817 1942
403 647 863 1074 570 369 563 758 547 235 85 346 338 619 426 566 448 405 679 581 476 709 733 2144 2245 2129 2030 2207 2259 2197 2246 2006 2017 1882 1836 1978 1908 1847 2027 1998 2025 1812 1828 1685 1619 1568 1406 1294 1239
307 879 812 934 552 432 724 457 528 316 235 301 549 755 443 165 340 409 748 684 740 457 605 1347 2333 2427 2260 2195 1980 1868 1746 1917 1963 2030 1949 2031 1995 1991 2083 1941 1736 1818 1787 1589 1528 1560 1473 1498 1537
554 809 688 418 477 471 729 879 570 418 540 442 687 678 462 224 314 340 730 780 340 276 330 1246 1707 2285 1870 1570 1578 1559 1849 1715 2014 2002 1951 1942 1930 1751 1984 1794 1551 1587 1746 1662 1546 1484 1533 1558 1662
763 949 703 378 354 559 888 980 637 854 697 613 701 942 555 231 281 307 581 283 308 24 376 996 1324 1979 1528 1991 1842 1986 2060 2096 2075 2025 1908 1962 1960 2093 2078 1975 1852 1738 1672 1598 1483 1299 1382 1489 1713
700 837 430 188 447 450 463 1054 770 551 620 690 987 930 475 429 373 361 422 55 64 169 414 897 1013 932 981 1793 1725 1941 1999 2014 2098 2019 2007 1965 1922 1909 1963 2385 1908 1668 1664 1514 1417 1316 1481 1602 1780
13 406 757 309 530 465 569 516 644 399 885 798 758 885 533 380 374 274 138 42 44 128 376 692 920 730 1145 1365 1904 1895 2018 2087 2207 1957 2080 2083 1431 1873 1949 1975 1797 1663 1558 1458 1368 1401 1610 1693 1836
18 39 386 155 300 231 528 455 426 713 677 709 543 588 351 276 299 227 66 25 22 143 275 365 887 899 1129 1041 1877 1793 1643 1638 1844 1650 2234 2233 2435 1939 1357 1619 1669 1594 1607 1473 1374 1301 1198 1070 929
0 18 369 546 424 623 700 533 956 380 357 579 576 625 289 318 313 152 34 15 19 117 204 185 686 481 1057 1047 1460 854 1691 1384 1766 1667 2014 1207 1178 1459 1453 1403 1437 1505 1736 1292 1301 1205 1274 1325 1165
0 0 10 326 432 122 764 651 547 845 261 583 545 508 358 345 351 135 24 14 44 129 148 170 632 785 1240 719 820 855 863 1239 1154 1397 2136 1527 2363 2268 1829 1654 1554 1819 2086 1654 2266 1462 1420 1475 1243
0 1 0 652 661 496 597 686 389 753 640 546 560 556 436 385 430 210 89 56 67 154 161 330 610 1001 1241 1195 902 730 781 721 1224 1351 1585 1385 1983 1709 2036 2424 1993 2041 2007 1600 1813 1527 1829 1452 1051
0 0 0 128 387 472 235 539 454 807 770 696 573 623 498 461 497 360 246 194 122 124 138 420 645 1019 1156 1340 1095 1004 774 1900 759 1163 1612 2060 2535 1759 2471 1936 2128 1601 1559 1377 2074 1757 793 1114 1157
0 0 0 0 31 155 293 404 576 898 803 823 628 635 548 501 481 486 312 324 133 14 72 495 637 827 1208 1386 1198 1117 1868 697 1549 2214 2012 1978 2149 2131 1792 2253 2144 2007 1914 1834 1818 1487 1657 1726 708
0 0 0 0 0 3 148 372 514 1046 884 918 780 571 597 531 482 457 318 338 83 2 80 508 310 593 1050 1193 1222 1069 965 1358 1723 1912 1930 2106 1778 1922 1997 1851 1890 1630 1998 1408 1772 1151 206 1242 444
0 0 0 0 0 3 68 369 868 853 937 1075 901 566 653 547 492 426 345 350 91 24 159 421 317 277 873 1257 1092 1220 1435 1717 1499 2028 1693 1949 2674 1736 1955 1592 1780 2052 1463 2034 1014 756 512 1052 788
0 0 0 0 1 7 140 402 847 1063 899 1119 957 685 672 639 621 448 337 341 101 22 203 384 332 1044 1715 1235 1277 1128 1128 1110 1657 1369 2216 1939 2124 2027 2179 1647 1904 1797 1830 1553 1740 2366 780 155 559
0 0 0 0 23 25 85 340 809 753 853 1024 1004 890 618 762 670 565 439 335 116 39 288 409 978 2082 1171 857 662 989 737 1188 931 902 1611 1943 1895 1930 1866 1818 2008 1491 1104 1060 1191 1289 934 109 155
0 0 0 0 0 65 107 121 749 797 804 887 936 1024 675 785 619 691 529 389 223 117 370 1010 1420 2091 1347 719 1095 1033 1369 727 885 993 1794 1874 1825 2216 1769 2317 1762 1367 1528 1585 1303 1673 1549 689 541
0 0 0 0 0 3 76 127 530 921 1015 892 918 1064 762 605 796 728 659 548 359 195 438 1072 1762 2016 1598 1269 1077 1211 1415 1556 945 1675 1455 1789 1766 1964 2045 2075 1307 1807 1844 1640 1810 1634 1767 900 50
0 0 0 0 0 0 25 93 131 1010 786 737 776 1083 867 358 811 794 800 683 489 237 358 1272 1410 2083 1609 1998 890 1951 1080 774 720 1134 920 1685 1592 1705 1987 1770 2013 2242 1144 1684 1833 1869 2565 1910 419
0 0 0 0 0 0 10 15 35 153 407 670 679 816 975 628 578 788 824 773 682 386 280 494 1700 2068 1864 1836 1609 1317 1689 693 620 490 2930 3088 3026 1694 1394 1976 1961 2128 1875 2045 1817 1936 2233 1147 1194
0 0 0 0 0 0 0 12 16 54 117 509 681 718 822 918 625 719 819 838 799 683 372 452 1815 2260 2190 2193 1841 2571 2087 1835 368 861 1345 1180 1429 1684 1908 1706 2153 2697 2222 2070 2091 2017 2079 2553 2263
0 0 0 0 0 0 0 0 62 73 119 191 630 746 809 846 881 750 805 799 951 936 903 870 1905 2558 2340 2175 1746 2227 3021 2889 2702 2455 736 1100 567 640 3082 2978 2960 2513 2514 2286 2606 2728 2178 2149 1869
0 0 0 0 0 0 0 0 0 9 71 45 398 677 794 923 940 910 874 896 994 1169 1736 1632 2074 2630 2546 2070 1937 1946 2703 1016 772 2197 1001 531 492 615 3700 2454 2102 2017 2355 1857 2797 2330 2008 3115 2126
0 0 0 0 0 0 0 0 0 0 5 9 5 504 749 976 998 1025 992 956 937 1340 2038 2063 2316 2668 2683 2059 2235 2420 2343 2019 1146 2600 3065 1469 2159 709 842 1072 2149 2102 1978 2591 3712 2084 2326 2452 2543
10 9 0 1 3 2 7 0 0 0 0 14 1 114 336 777 792 901 1130 1097 1027 956 1373 2120 2334 2764 2825 2085 2531 2367 2351 2488 2621 3122 3505 2760 2679 2437 1306 1533 1327 1725 2301 2604 3631 2671 3396 2938 2232
10 0 14 29 7 7 14 18 4 0 0 1 8 2 90 170 525 616 766 1015 1174 1106 1021 1267 1972 2564 2702 2474 2332 2376 2397 2169 2538 2402 3030 2885 3047 3138 2998 2304 1969 1722 2028 2624 3737 3704 2863 3564 3757
7 45 8 69 48 17 36 48 12 2 0 1 5 44 46 57 180 301 591 807 1083 1246 1228 1277 1271 1318 2012 2302 2545 2467 2844 2652 2636 2527 2406 2947 3264 3652 3565 3363 2950 2422 2038 2962 3193 2417 2255 2272 2380

GFSSGP_con_sbcape_078.txt.gz
CAPE
0 0 30 602 744 735 580 381 486 168 99 52 32 235 189 398 488 693 223 525 549 600 840 1078 1950 1778 1995 2148 2242 2532 2301 2456 2143 1932 1893 2086 2225 1976 1776 2118 1888 1098 1361 1467 1549 1700 1542 1751 2234
0 1 493 834 579 283 202 565 178 94 52 136 184 279 430 529 312 265 535 594 474 496 629 1005 2237 2460 2187 2310 2694 2529 2033 1913 1883 2277 2430 2312 2104 1517 2100 2136 1630 1257 1181 1308 1892 1719 1700 1900 2034
252 288 344 671 792 86 365 312 116 170 242 121 553 593 391 273 344 344 356 385 482 661 1088 1661 2694 2748 2390 2251 2507 2582 2355 2276 2092 2008 2071 2179 1515 2020 1886 2038 1954 1991 1229 1221 1635 1893 1781 1818 1914
392 575 788 716 519 471 490 644 186 202 382 390 333 478 265 384 258 327 317 360 482 847 1097 1968 2780 2492 2451 2203 2362 2309 2024 2018 2128 1856 1882 1899 1705 2179 2060 2072 1837 1857 1749 1651 1633 1486 1379 1287 1622
245 781 604 942 423 692 488 537 194 96 311 491 549 413 211 285 337 318 455 363 457 476 908 1534 2639 2663 2537 2457 2254 2173 2002 1940 2265 2155 1989 1978 2013 2009 1927 1859 1814 1785 1635 1661 1416 1541 1518 1534 1509
512 808 749 661 512 267 306 344 276 260 465 584 527 263 210 253 392 403 355 368 354 273 364 1114 2218 2381 2206 1536 1508 1677 1868 1912 2145 2221 1933 2156 1931 1953 1805 1531 1555 1694 1651 1593 1515 1568 1544 1458 1608
39 684 556 445 496 545 815 592 398 588 480 666 580 502 310 286 499 338 252 270 23 40 788 1315 1531 1707 1885 1950 2061 2057 1819 1959 2099 1756 1701 1874 1761 1906 1884 1814 1631 1560 1518 1477 1388 1366 1465 1444 1601
2 128 188 417 310 208 615 640 702 305 337 510 774 563 300 191 438 454 401 34 2 289 782 1405 1840 1188 1727 1589 1865 1874 1842 1916 1836 1773 1893 1890 1991 1994 1729 2380 2016 1629 1457 1396 1281 1392 1712 1868 1664
28 24 88 347 268 268 584 820 407 57 345 639 654 603 311 139 273 594 603 19 224 127 532 324 709 1147 1733 1802 1701 1852 1828 1916 1997 1893 2016 2085 1602 1848 1687 2219 1764 1481 1450 1389 1330 1423 1502 1621 1744
11 39 297 179 86 25 37 482 0 399 791 654 716 527 331 233 255 432 47 21 14 324 532 414 283 591 1405 999 1827 2005 1569 1534 1935 2098 1867 1049 1339 2401 1181 1698 1873 1491 1448 1357 1310 1061 740 1396 1272
11 0 2 5 13 130 257 234 844 575 701 460 695 412 384 293 276 257 25 30 114 175 370 437 944 1211 860 1535 1891 2053 1399 2094 2204 2327 1778 2208 1997 1241 1315 1706 1453 1570 1586 1105 1358 700 630 1043 1336
4 0 41 20 5 220 465 406 271 286 510 510 527 366 379 231 221 51 17 15 197 253 338 310 997 1104 1613 1601 1904 859 1456 1871 1278 2036 2911 1177 2299 580 585 1197 1986 1524 1377 1264 1024 816 1063 1562 1053
0 0 0 28 11 545 102 7 56 44 501 378 438 273 303 264 159 42 21 18 127 303 279 831 1262 560 366 2997 1354 914 1184 1144 1581 1653 1039 540 1306 1649 1773 2037 786 992 933 713 492 1081 1123 961 1257
0 0 0 5 240 537 314 214 270 465 585 658 497 236 279 164 181 108 29 35 104 201 374 846 991 1932 2154 2303 2307 1954 2058 1260 1713 1645 1642 1330 1488 2446 2685 2069 1088 568 1092 946 677 423 1016 1597 1722
0 0 0 0 1 259 316 247 368 531 438 560 493 319 320 350 147 174 160 121 152 269 470 737 806 1268 2092 2008 2097 2536 217 1178 1921 2517 2314 1221 848 2608 2270 2241 2232 1128 926 1927 1969 856 1065 1014 245
0 0 0 0 0 17 175 387 444 389 238 510 574 418 420 287 298 326 325 180 143 149 608 715 247 890 1612 2744 2152 2187 710 2366 1515 1552 1935 460 1369 3290 2518 2568 2492 2720 1048 1809 1936 1131 948 1407 342
0 0 0 0 0 0 16 335 1244 329 342 640 498 502 446 366 502 562 321 318 168 299 583 728 934 848 1318 2440 1842 2196 1538 1758 2659 1118 795 2863 2910 2363 3161 1895 2763 2951 2246 2235 2111 316 203 1786 1177
0 0 0 0 0 0 0 332 298 72 48 169 629 512 507 418 449 704 360 349 50 240 589 1052 1046 1518 1904 1821 2488 2089 2240 1370 821 1550 1721 2761 3078 2577 2883 2782 2714 2953 1991 1968 1214 1317 1454 340 858
0 0 0 0 0 0 0 190 61 0 0 0 446 537 523 443 521 540 485 412 115 81 559 1341 1426 1780 1529 1462 1420 1811 1738 2403 1481 1605 2824 3083 2714 2848 2468 2498 2817 2879 480 1014 2475 2829 2483 1973 299
0 0 0 0 0 0 47 316 18 0 0 0 37 587 463 608 406 713 621 493 242 145 660 1001 1443 1757 1319 1705 1607 2031 2224 1865 2723 2783 2969 2569 2958 3271 2444 1324 2563 2566 2407 3053 1886 1331 1489 1942 1194
0 0 0 0 0 0 29 476 11 0 57 189 378 682 502 777 558 699 577 544 343 296 815 829 1751 1818 1470 1850 1540 2306 2265 2464 2317 2562 2475 2795 2866 3138 1936 2781 2680 2775 2949 2303 2808 2727 1991 2016 1136
0 0 0 0 0 0 0 0 588 348 480 642 676 179 378 423 778 574 446 689 428 403 836 1021 1620 1896 1329 2153 1346 1955 1583 1818 1991 643 2224 2585 3075 3042 3096 3293 3183 3633 2565 2100 2149 2561 898 1369 1841
0 0 0 0 0 0 0 1 19 937 609 46 15 261 321 75 716 695 716 658 551 522 698 1095 1242 1953 1135 1304 1936 1795 1904 1373 2502 1976 2572 2642 3674 3483 2336 2937 3289 3737 2795 2346 2777 2479 2292 1491 2152
0 0 0 0 0 0 0 0 2 604 104 0 33 498 470 192 340 714 883 762 761 583 541 1035 1158 1601 1464 1257 1598 2107 1536 2508 2006 2400 2094 2368 2305 2960 3388 3044 3595 3456 2368 3073 3113 3234 2680 3298 3315
0 0 0 0 0 0 0 0 0 94 704 113 7 618 761 459 426 717 767 888 829 682 510 829 1165 1229 1366 1331 1046 2295 1497 1872 3067 2566 2233 1424 1880 1769 2641 3941 3769 3320 3297 3024 3598 3461 3666 3398 3382
0 0 0 0 0 0 0 0 0 0 0 734 1000 585 889 953 351 767 987 994 995 1035 721 694 1345 1336 1325 1549 880 1252 2395 1390 1757 2724 1141 2118 1286 1558 2452 2798 3329 3548 3272 3266 3454 3261 3297 3370 3295
0 5 0 0 0 0 0 0 0 0 0 18 96 252 463 71 866 848 1099 1105 1262 1178 1179 866 1472 1576 1560 1239 1477 939 2202 2362 1140 2652 3357 1404 2270 2393 2649 2816 3219 3219 3349 3162 3637 2922 3196 3307 3390
0 0 3 3 8 8 0 2 0 0 0 81 145 70 149 22 173 944 884 1122 1235 1274 1480 1323 1552 1755 1792 1322 1461 1158 975 1770 1888 1005 3131 2614 3495 3245 2962 3006 2945 3067 3583 3556 3661 2866 3368 3507 3024
34 4 5 13 6 3 0 0 12 2 0 0 224 129 9 79 112 649 1120 1058 1241 1397 1419 1658 1549 1920 2085 1967 1392 1297 1178 1143 1125 1810 1961 2478 2511 3586 3619 3545 3135 3083 2970 3506 3689 3245 3151 3177 3415
11 6 8 47 29 14 28 13 89 30 0 0 0 205 134 95 162 119 699 1208 1284 1411 1449 1768 1713 1988 2120 2102 1803 1418 1420 1183 1117 757 2435 2481 3436 4014 4355 3443 3909 2967 2786 2985 3291 3080 2065 3114 3354

GFSSGP_con_sbcape_081.txt.gz
CAPE
5 0 0 189 565 188 164 141 221 55 26 5 8 271 436 528 313 98 0 166 342 555 1163 1398 2174 1762 1809 2287 2679 2553 2399 2330 2000 1923 2198 2384 2002 2244 2200 1580 1150 1618 1506 1423 2003 1554 1910 2210 2345
0 0 118 238 286 41 12 203 428 104 41 42 217 385 192 202 42 0 78 157 427 543 662 1086 2189 2221 1945 2274 2464 2444 2331 2241 2053 2260 2406 2236 1785 2116 2207 1675 1116 1326 1579 1824 1490 1875 2021 2190 2181
1 46 69 292 203 93 143 200 90 85 128 149 271 93 159 50 60 121 90 175 221 310 692 1195 2293 2664 2249 2375 2535 2473 2219 1992 2147 2167 2264 1690 2180 2083 2152 2078 1629 1145 1469 1805 1766 1751 1868 1794 1675
48 342 211 171 183 3 248 192 266 293 238 211 104 94 39 49 112 100 71 47 219 925 1143 2221 2578 2153 2319 2424 2370 2315 2150 2008 1962 2032 2214 1762 2211 2071 2231 1927 1917 1737 1651 1686 1570 1365 1255 1481 1601
210 236 218 275 475 341 276 262 247 198 364 180 208 184 95 26 60 25 64 222 588 574 1181 1994 2577 2732 2373 2190 2111 1945 1911 1939 2140 2144 1985 2167 2073 1976 1980 1894 1777 1779 1528 1501 1606 1467 1442 1444 1382
185 186 124 147 350 298 436 138 151 414 514 99 188 119 90 7 48 17 86 355 421 491 1322 1389 2450 2563 2575 2116 1868 1931 1890 1953 1914 2384 2135 2116 2195 2054 1651 1713 1816 1727 1601 1520 1584 1505 1438 1431 1579
37 121 144 8 208 310 220 140 100 423 186 85 75 100 59 20 33 2 33 153 186 430 738 1427 1590 1604 1365 1682 1481 1707 2014 1977 2067 2097 2071 1909 1980 1938 1761 1590 1527 1578 1577 1518 1412 1403 1380 1469 1544
34 48 65 2 151 8 57 15 263 395 403 82 124 115 61 41 39 6 20 1 135 605 659 1071 940 1193 1388 1677 1997 1807 1918 2011 1853 1778 1877 1959 1964 1903 1781 2231 1952 1402 1389 1331 1402 1443 1695 1564 1726
7 6 32 83 84 0 4 260 533 390 449 240 311 145 104 91 8 8 2 13 359 542 711 852 572 930 953 1297 1606 1986 2009 1956 1837 1858 1947 2214 990 1244 1371 1790 2063 1401 1357 1304 1452 1606 1653 1611 1289
9 1 41 205 137 0 243 322 128 361 366 553 120 141 142 196 47 0 0 7 138 310 451 683 229 705 931 1196 1294 1289 1578 1449 1415 1352 629 2 322 1039 1180 1613 2028 1403 1348 1413 1780 1192 1289 0 85
0 0 79 71 53 0 8 15 26 265 221 500 74 93 77 66 93 23 0 0 6 109 77 196 145 763 509 740 1107 1191 1121 1097 1140 846 355 209 831 350 898 1189 1283 1051 1527 950 944 500 210 254 141
0 0 16 37 15 84 104 98 348 382 397 211 66 59 48 26 118 17 2 0 0 39 13 57 162 427 308 737 1093 1075 863 1235 1118 1056 919 907 583 4 202 415 739 810 497 214 7 156 645 765 1238
0 0 19 27 59 235 157 312 82 0 68 165 162 100 55 33 47 3 0 0 0 36 126 350 532 486 628 1026 971 847 819 1299 598 949 70 382 634 147 418 521 506 298 311 467 516 515 916 1200 931
0 0 0 31 42 247 260 351 123 96 79 361 219 125 108 7 41 3 0 0 0 72 269 165 120 90 74 1322 1007 587 668 801 731 566 522 509 484 780 725 805 574 315 2 214 621 471 907 963 922
0 0 0 1 0 437 410 122 20 16 258 405 248 221 77 6 42 2 0 0 0 199 372 375 549 623 771 1049 933 344 895 1660 1285 1072 649 390 240 1150 1018 388 346 339 53 350 731 164 505 45 518
0 0 0 0 0 64 371 190 452 268 331 483 292 348 143 18 29 2 0 0 0 131 66 204 611 731 420 945 814 392 665 1243 1331 1341 580 94 6 1139 1798 1305 656 923 764 587 629 575 528 459 136
0 0 0 0 0 0 72 433 451 594 635 569 295 252 207 71 3 3 0 0 0 62 11 0 222 572 371 953 584 911 979 696 1037 1008 671 256 983 1734 1776 1530 1275 1369 754 1211 642 190 341 680 528
0 0 0 0 0 0 0 666 648 485 468 490 270 361 281 103 42 4 0 0 0 95 0 58 308 363 372 511 441 965 285 921 716 678 451 1659 1528 1477 1701 1428 1450 949 904 999 1000 352 497 227 491
0 0 0 0 0 0 0 748 756 408 59 242 358 286 201 148 120 37 7 0 0 63 15 93 212 265 854 560 652 805 799 574 318 1011 838 1644 1844 1308 1431 1613 1428 1242 79 513 1240 1437 1262 1170 155
0 0 0 0 0 0 189 423 243 143 1 126 35 57 54 184 167 303 22 0 0 1 159 122 405 412 652 431 583 550 472 989 584 977 1698 1588 1736 1394 1261 721 1509 922 703 1073 435 800 779 904 241
0 0 0 0 0 0 104 141 18 13 2 0 134 53 8 92 166 256 55 0 0 0 96 364 525 383 618 261 432 709 991 514 1274 799 1614 1148 1896 1605 1105 1313 1375 1492 1555 1043 1434 1057 867 625 633
0 0 0 0 0 0 0 66 80 26 43 58 118 87 90 42 189 210 95 1 0 0 2 556 571 414 380 322 196 431 762 759 1009 1246 1019 1672 1471 1409 1378 1031 1437 1747 1260 817 1027 1391 671 454 683
0 0 0 0 0 0 0 0 125 88 79 96 68 0 0 17 213 175 98 80 0 34 0 451 776 456 256 690 83 322 407 477 690 269 1005 1350 1434 1779 1620 1375 1447 1692 1392 1178 1395 1490 1211 837 884
0 0 0 0 0 0 0 0 44 86 46 23 314 76 113 231 283 168 122 96 12 55 30 73 818 299 199 284 760 290 283 576 994 561 989 1313 1688 1962 1244 1341 1910 1945 1568 1306 1280 1369 1316 1776 1765
0 0 0 0 0 0 0 0 0 276 339 102 385 561 156 140 394 273 136 101 45 10 193 44 578 525 138 109 212 1083 225 296 996 1228 1305 1059 1237 1252 1562 1520 1775 1728 1158 1274 1624 1843 2067 1966 1773
0 0 0 0 0 0 0 0 0 3 616 231 167 185 4 274 472 380 255 154 161 40 192 287 190 724 283 43 42 270 743 242 592 1360 919 868 848 803 977 2073 1776 1614 1628 1526 1962 1480 1889 1961 1780
0 0 0 0 0 0 0 0 0 0 0 168 15 8 105 476 29 409 358 282 202 129 76 370 244 266 424 246 0 128 1075 219 419 603 868 733 552 790 850 1703 1999 1861 1734 1615 1850 1521 1746 1847 1781
0 0 0 0 0 0 0 0 0 0 0 158 276 246 498 389 232 193 59 376 308 281 117 225 387 239 513 371 143 34 259 1041 590 381 1265 1023 293 828 1171 1309 2108 1738 1856 1467 1895 1597 1680 1652 1393
0 0 0 0 0 0 0 0 0 37 0 152 237 286 436 299 190 463 289 78 55 404 331 169 548 389 473 276 460 41 12 833 882 559 126 1236 1091 2018 1905 1705 1839 1968 1857 1965 1863 1516 1529 1987 1709
0 0 0 0 0 0 1 0 0 1 33 0 195 216 312 225 273 206 89 75 0 0 545 290 741 595 530 422 422 410 10 210 701 489 445 985 1037 1120 1880 1793 1825 1652 1504 1651 1909 1900 1763 1587 1855

GFSSGP_con_sbcape_084.txt.gz
CAPE
93 9 0 148 539 70 34 145 210 12 33 0 0 21 97 364 267 0 0 28 115 9 1056 1749 2275 1846 2106 2586 2475 2245 2385 2004 1878 2240 2384 1909 2263 2043 1213 1402 1678 1432 1815 1967 1854 2035 2296 2443 2571
3 0 39 266 204 6 19 93 125 28 4 34 216 299 215 205 47 0 84 239 240 646 971 1481 2223 2282 2220 2420 2367 2310 2163 2005 2050 2307 2228 1972 2043 2059 1404 1207 1226 1799 1559 1780 1630 2043 2234 2366 2281
0 0 93 232 37 6 73 103 35 62 338 223 152 200 79 4 5 1 119 384 440 592 771 1165 2187 2430 1654 1935 2255 2306 2124 1938 2251 2273 1768 2122 2015 2048 1680 1113 1397 1843 1720 1848 1980 1961 1814 1877 1906
18 203 173 117 2 19 45 275 117 238 55 124 93 22 33 10 37 39 255 176 304 535 775 1831 1945 1923 2233 2275 2154 2155 2151 2284 2254 2238 1649 2100 2056 2118 1937 1809 1359 1637 1784 1570 1436 1772 1623 1406 1443
67 200 161 138 173 214 42 226 277 330 176 138 114 77 87 35 35 112 68 310 588 738 1346 1948 2731 2620 2448 2361 2319 2146 2055 2079 2147 1973 1987 2179 2023 1930 1894 1781 1732 1536 1523 1585 1447 1412 1492 1278 1532
280 142 144 28 42 164 216 154 363 164 271 128 56 52 47 12 3 40 360 470 580 1017 1483 1744 2521 2521 2347 2038 2040 1993 2032 2116 2152 2189 2218 2128 1990 1738 1951 1799 1823 1643 1610 1618 1523 1583 1514 1467 1581
57 71 128 10 26 27 31 94 251 259 180 106 110 56 35 5 0 273 303 201 472 1326 1085 1411 1575 1926 2054 1916 2046 1996 2029 2091 2275 2197 2117 2033 1843 1664 1594 1730 1699 1624 1588 1539 1440 1442 1515 1661 1709
46 45 23 19 1 0 0 14 399 128 222 141 122 36 28 44 18 199 132 70 708 764 1180 1130 975 807 946 1156 1850 2094 2055 2210 2201 2167 1945 2046 1966 1894 1734 2138 2012 1579 1420 1485 1538 1483 1666 1844 2191
10 15 0 9 15 16 0 55 289 442 176 142 256 110 40 41 72 15 0 189 368 591 867 645 682 872 1052 1337 1454 1968 2152 2032 1927 1841 1939 1729 1193 1152 1367 1774 1718 1522 1399 1448 1625 1732 1688 1709 2007
0 0 0 160 154 37 5 2 45 143 280 180 308 62 57 46 54 9 60 216 221 605 653 340 498 623 956 1452 1332 1254 1621 1492 1328 1293 717 57 513 929 1263 1576 1527 1518 1464 1596 1303 1389 1096 45 435
0 0 299 204 21 3 0 139 8 220 151 208 230 80 73 70 23 6 71 162 272 473 531 234 268 519 691 1123 922 1042 1131 1141 1057 680 0 137 204 349 842 1013 1169 1095 1444 841 336 446 155 408 283
0 0 41 230 120 22 77 151 74 387 286 201 199 78 105 64 11 6 0 71 228 291 478 150 178 511 185 542 810 845 910 823 788 502 124 586 72 2 101 637 762 725 555 64 3 97 615 581 813
0 0 0 81 69 149 96 368 458 112 196 329 196 164 156 107 0 0 2 0 93 40 169 80 175 322 240 656 766 698 588 884 725 447 546 175 221 209 272 465 379 531 343 299 403 312 538 847 939
0 0 0 105 197 197 280 364 5 47 284 155 166 126 46 90 0 0 0 0 0 0 0 36 197 213 379 667 762 638 464 776 462 77 95 395 161 194 0 293 388 259 57 60 566 306 548 850 789
0 0 0 51 262 387 465 340 31 204 207 128 112 33 12 24 23 0 0 0 0 0 121 142 139 72 241 562 776 324 367 494 360 171 97 323 495 177 149 80 312 110 0 39 374 205 371 290 337
0 0 0 0 191 365 235 172 390 224 706 165 104 65 54 1 0 0 0 0 52 130 113 93 132 140 325 408 263 116 569 818 672 525 474 137 220 353 317 302 132 206 26 110 430 234 487 107 48
0 0 0 0 210 461 338 230 175 567 669 178 141 135 67 19 0 0 0 0 144 153 149 243 394 179 470 191 386 440 694 820 926 502 258 0 666 1378 762 825 185 415 163 256 364 394 130 231 51
0 0 0 0 0 350 317 476 184 353 617 498 260 218 116 11 14 0 0 0 141 101 115 73 279 68 663 88 214 588 243 698 615 474 456 751 1386 1215 1356 758 727 854 531 737 352 25 62 164 179
0 0 0 0 0 0 136 520 335 99 495 262 300 239 171 98 3 0 0 0 54 38 0 78 143 25 480 143 123 585 238 451 348 234 796 1345 1114 1256 1135 978 1015 308 371 633 483 481 290 607 24
0 0 0 0 0 0 260 534 579 281 572 16 6 259 222 128 3 0 3 2 5 0 0 46 70 19 331 181 76 252 283 376 196 616 586 1201 1375 971 906 1013 254 161 18 458 358 387 408 542 25
0 0 0 0 0 99 259 265 556 472 394 350 149 349 244 63 19 0 0 0 29 0 0 40 81 50 224 137 140 239 337 332 365 564 1161 1278 1343 1023 391 1014 871 885 730 639 592 591 531 267 375
0 0 0 0 0 0 16 16 54 93 44 53 454 286 119 32 52 41 0 0 16 25 0 106 121 163 189 32 122 227 499 177 693 463 852 909 1351 991 681 872 947 994 929 605 737 589 232 193 446
0 0 0 0 0 0 0 0 0 13 8 4 43 134 81 122 121 64 17 0 0 24 32 298 129 222 262 52 5 73 133 52 509 670 858 894 1106 898 944 621 971 1014 645 486 862 1092 834 463 531
0 0 0 0 0 0 0 0 0 29 2 0 0 104 172 150 159 160 99 0 0 0 109 360 158 155 304 85 0 8 41 139 428 272 566 797 829 1028 1001 890 930 996 866 804 767 888 774 1353 1293
0 0 0 0 0 0 0 0 0 24 67 14 0 14 97 221 222 225 195 6 0 0 0 447 231 116 159 266 34 0 30 5 410 161 409 712 964 1188 957 993 1246 1234 967 867 905 1208 1270 1238 1213
0 0 0 0 0 0 0 0 0 0 176 113 94 69 0 2 152 242 288 50 0 8 0 338 350 136 46 144 208 109 0 0 242 357 464 760 773 797 843 704 1112 1095 576 729 1002 1144 1126 1362 1403
0 0 0 0 0 0 0 0 0 0 0 60 72 137 92 343 311 298 310 111 1 3 0 0 432 171 58 13 0 17 434 9 8 605 566 605 544 391 597 1058 1184 982 865 751 1152 877 976 1350 1405
0 0 0 0 0 0 0 0 0 0 0 8 65 113 361 185 385 424 284 159 62 0 51 29 156 360 150 0 0 0 12 475 0 122 498 389 365 309 425 1021 1397 1093 984 1015 1134 917 963 1158 930
0 0 0 0 0 0 0 0 0 0 0 0 8 24 170 80 383 419 362 252 142 125 96 102 28 163 349 189 12 0 0 183 317 22 61 785 131 331 811 572 1387 1226 1235 925 1016 1218 935 1099 1035
0 0 0 0 0 0 0 0 0 0 0 0 73 111 68 321 365 418 466 278 49 37 170 229 280 66 186 298 178 0 0 0 536 454 8 103 575 1097 926 768 1224 1270 1042 1071 1005 975 1157 1143 1426

GFSSGP_con_sbcape_087.txt.gz
CAPE
127 27 0 60 263 111 6 12 7 31 0 0 0 1 72 272 249 1 0 0 0 1 916 1697 2477 2054 2199 2404 2090 2359 2034 1867 2217 2235 1957 2145 2042 1488 1548 1527 1790 2203 2147 2131 2197 2322 2511 2483 2117
31 8 17 192 207 25 4 54 164 25 0 0 0 190 277 209 103 0 89 2 0 195 1238 1718 2491 2366 2424 2456 2245 2326 2049 1935 2183 2265 2021 2157 2058 1389 1556 1602 1506 1509 2053 1615 1921 2208 2504 2177 1797
13 8 95 223 13 32 27 146 169 25 0 10 247 179 96 55 7 0 118 13 224 925 1150 1554 2017 2566 2336 2286 2290 2219 1941 2030 2060 2028 2032 2068 1925 1443 1192 1432 2065 1771 1520 1840 2047 2138 2004 1735 1736
0 147 151 153 5 3 18 213 158 157 220 133 46 70 31 12 0 115 196 265 567 785 890 1922 1756 1639 2005 2311 2443 2188 1877 2052 2092 1707 1979 1871 1985 1818 1137 1461 1942 1745 1849 1944 1847 1729 1768 1908 1593
110 84 84 109 103 51 69 56 276 253 370 125 104 97 6 30 198 245 242 331 500 572 1078 1446 2349 2175 2071 2014 2053 2080 2099 2046 1909 1908 2004 1868 1876 1757 1754 1488 1657 1663 1502 1338 1355 1489 1451 1566 1837
242 91 102 16 74 9 146 495 176 292 261 73 43 36 48 116 136 124 244 382 494 1090 1414 1904 2252 2110 2368 2151 2147 2086 2038 2142 1757 2099 1969 1842 1897 1718 1605 1663 1583 1692 1689 1528 1510 1410 1352 1601 1901
83 62 135 25 30 47 49 67 115 197 188 79 46 34 60 59 64 279 395 510 896 1221 1364 1675 1769 1909 2024 1990 2052 2111 2103 2205 2224 1822 1816 1847 1636 1840 1778 1780 1676 1658 1595 1490 1381 1437 1626 1697 2032
31 72 37 41 108 15 0 54 114 244 148 55 70 11 37 40 213 253 201 423 1036 1023 1218 1225 1272 1315 1270 1762 2103 2025 2078 2284 2156 2035 2000 1780 1691 1543 1692 2132 2057 1668 1575 1519 1397 1572 1400 1777 2433
10 25 4 12 90 66 60 13 115 286 148 193 295 49 13 91 168 91 170 585 706 1021 946 792 645 688 831 1031 1746 2009 2236 2197 2141 1766 1927 1815 1298 1339 1248 1589 1796 1640 1624 1656 1609 1565 1671 2142 1921
0 6 14 102 113 108 76 14 37 210 181 184 99 68 39 139 100 67 187 241 510 843 825 518 497 702 996 1432 1372 1453 1626 1569 1344 1310 674 377 916 1142 1389 1559 1680 1606 1669 1850 1459 1495 262 566 518
0 8 60 214 54 50 15 20 150 390 183 73 54 67 91 91 74 62 93 206 263 639 770 366 504 622 912 1192 987 1111 1217 1126 1058 757 46 247 649 960 1113 1256 1325 1062 1401 413 24 163 177 331 692
0 0 68 133 123 31 38 104 116 228 351 275 122 75 53 67 50 74 79 90 202 458 463 229 340 483 453 775 839 938 1027 951 876 158 5 432 26 305 478 684 816 952 541 26 1 142 432 501 542
0 0 7 111 95 89 217 99 62 418 464 504 144 92 38 19 12 93 79 96 233 248 335 147 210 371 214 560 637 683 681 763 655 300 160 426 6 47 280 429 434 538 369 147 164 266 439 673 886
0 0 0 60 54 118 198 217 186 271 534 379 186 75 33 8 2 58 62 88 180 184 209 55 185 285 212 409 564 565 482 758 550 447 427 230 90 188 204 295 197 339 230 47 360 258 420 712 828
0 0 0 25 173 69 309 90 64 354 458 660 326 106 74 20 1 27 32 65 99 59 74 1 168 198 275 302 503 502 441 603 468 291 90 374 81 100 1 221 272 156 0 35 241 65 297 440 319
0 0 0 0 380 375 341 142 341 353 493 305 272 168 161 80 0 7 5 0 43 0 7 3 280 238 191 207 457 497 333 403 380 218 47 325 482 71 12 63 229 43 0 48 330 92 91 29 26
0 0 0 0 345 361 287 147 217 353 368 164 186 163 122 82 0 0 0 0 5 0 16 53 150 175 156 225 258 204 406 560 349 386 340 136 256 596 335 211 95 131 25 7 238 270 62 47 18
0 0 0 0 186 363 247 224 206 226 590 207 157 62 80 117 0 0 0 0 0 0 0 0 114 139 195 142 216 320 355 586 564 446 189 0 488 1035 648 661 157 323 128 79 209 28 0 156 23
0 0 0 0 0 0 281 207 288 90 444 219 178 39 71 89 0 0 0 0 27 0 0 102 152 75 196 62 287 235 412 506 511 366 456 687 808 890 847 551 482 644 383 541 201 129 37 322 0
0 0 0 0 0 0 4 202 157 191 277 288 190 110 90 48 0 0 0 61 56 0 0 152 125 30 230 36 29 313 94 264 234 328 420 1012 976 862 808 752 560 245 193 363 395 294 284 388 0
0 0 0 0 0 288 140 235 276 46 197 452 37 214 171 96 0 0 0 74 31 11 0 91 69 2 160 50 15 153 25 188 209 460 475 921 1218 797 822 692 101 21 284 125 212 488 244 75 69
0 0 0 0 0 0 7 6 64 237 166 332 357 23 216 200 12 0 0 17 52 13 0 0 1 0 49 29 17 163 389 212 272 432 533 965 1157 889 350 821 767 380 378 444 454 377 78 43 71
0 0 0 0 0 0 0 0 0 138 306 151 237 226 139 275 80 0 0 12 80 22 0 0 0 0 19 10 14 0 134 0 157 253 543 855 971 874 632 635 623 718 651 306 669 673 505 453 271
0 0 0 0 0 0 0 0 0 130 286 149 76 52 290 171 98 21 0 0 2 3 25 12 0 0 0 0 0 0 0 34 121 369 422 592 681 838 699 546 712 679 400 431 589 705 433 738 938
0 0 0 0 0 0 0 0 0 0 0 71 55 19 87 281 65 85 19 0 0 23 38 111 50 0 18 0 0 0 0 0 58 168 407 456 699 892 800 710 711 769 692 552 561 672 657 804 902
0 0 0 0 0 0 0 0 0 0 0 0 0 3 24 66 110 130 46 3 0 30 51 174 90 35 70 24 0 0 0 0 0 85 108 444 715 775 981 707 873 966 758 671 621 945 928 1162 950
0 0 0 0 0 0 0 0 0 0 0 0 0 0 0 0 41 187 152 10 0 0 52 168 122 54 82 100 6 0 0 0 0 135 167 221 400 701 846 678 823 960 734 422 702 842 826 1017 1021
0 0 0 0 0 0 0 0 0 0 0 0 7 12 0 0 8 70 222 159 0 0 0 112 145 56 43 104 97 68 0 0 0 0 498 410 314 260 419 775 695 817 808 364 662 733 621 763 820
0 0 0 0 0 0 0 0 0 1 0 0 0 2 3 16 21 72 116 223 71 0 0 0 219 98 33 17 55 0 0 57 0 0 0 329 346 152 176 353 1068 992 823 810 726 736 676 899 917
0 0 0 0 0 0 0 0 0 0 0 0 0 0 0 0 3 80 160 100 67 50 36 0 28 186 94 25 0 0 0 0 91 0 0 0 350 181 220 374 388 1093 1034 807 751 870 1154 792 761

GFSSGP_con_sbcape_090.txt.gz
CAPE
133 1 0 77 138 93 18 24 19 2 0 0 0 0 2 81 103 0 0 0 0 25 947 1768 2302 1939 2179 2140 2256 2026 1817 1960 2423 1911 1857 1720 1557 1505 1562 2297 2360 2280 2286 2161 2222 2204 2333 2117 2166
0 14 16 283 86 11 1 63 131 30 0 0 0 135 242 132 34 0 0 0 0 389 1118 1777 2574 2276 2319 2228 2227 2003 1817 2237 2125 2010 2014 2075 1380 1553 1819 1495 2019 2125 1970 2060 2167 2293 1999 1855 1917
6 2 44 38 4 16 14 119 185 0 0 0 112 71 104 27 0 0 0 0 156 917 1244 1588 2222 2530 2382 2117 2223 2003 1814 2213 2088 1968 1974 1982 1450 1331 1284 1806 1742 1818 1900 2178 2158 2072 1919 1910 1806
0 25 79 213 17 0 7 28 44 23 22 91 109 103 4 4 0 22 0 114 598 892 1136 1900 2164 2262 2192 2142 2243 1990 1977 2024 1971 1951 1923 1897 1723 1188 1656 1595 1853 1933 1870 1993 1929 1923 1748 1739 1762
44 47 70 83 22 0 14 213 111 97 278 94 133 15 0 29 11 0 66 319 539 628 1099 1355 1975 1912 2178 2248 2105 1743 1958 2042 1705 2039 1848 1681 1810 1676 1398 1631 1788 1431 1560 1767 1777 1717 1680 1898 1954
199 96 99 49 27 6 21 115 240 258 103 46 0 19 53 76 25 35 132 314 451 785 1061 1343 1843 2027 1924 1849 1896 1796 2010 1980 1733 1895 1827 1820 1869 1807 1647 1574 1543 1583 1384 1523 1582 1502 1833 2013 2209
127 80 105 46 28 33 12 1 356 289 128 46 39 80 148 63 24 96 153 336 735 1075 1303 1524 1441 1639 1884 1705 1939 1980 2021 1804 2001 1795 1872 1865 1889 1786 1812 1735 1721 1710 1568 1413 1343 1705 1939 2192 2320
76 85 31 20 83 35 1 38 160 295 67 6 28 9 79 68 110 197 320 585 767 1036 1208 1234 1215 1306 1239 1535 1777 2068 2033 2099 2052 1826 1914 1716 1710 1721 1666 2019 2036 1553 1454 1330 1581 1581 1789 2071 2290
11 31 5 3 45 25 59 168 47 162 96 264 287 41 22 137 115 105 349 529 722 934 839 846 820 734 930 1256 1675 1918 2097 2089 2157 1832 1920 1742 1403 1334 1385 1851 1792 1754 1570 1408 1334 1281 1918 2048 2094
0 0 0 50 51 37 50 11 102 204 190 64 48 37 120 135 74 116 121 129 235 524 637 511 436 482 776 1322 1356 1346 1645 1466 1427 1232 873 833 1015 1238 1458 1797 1767 1736 1895 1487 1580 1117 1508 817 941
0 3 0 239 129 36 58 16 154 210 231 70 27 72 120 94 59 93 13 0 123 301 635 339 279 483 850 1047 954 1038 1097 1113 991 726 173 628 840 1124 1327 1393 1183 1484 971 101 466 235 474 952 1065
0 0 25 137 237 74 9 80 0 67 269 112 26 113 98 69 75 73 52 69 168 287 521 249 254 509 554 750 800 896 1009 967 945 284 3 465 514 677 896 1004 1040 1014 566 0 87 482 565 762 925
0 0 0 122 42 43 92 214 229 242 513 124 54 96 57 46 51 32 0 0 116 276 278 171 204 323 243 591 560 687 794 873 698 145 163 116 212 224 544 596 646 679 511 140 331 569 768 900 1130
0 0 0 85 62 182 181 102 166 482 529 208 53 41 37 17 16 19 0 0 48 124 171 58 140 194 128 350 446 504 483 629 604 446 292 402 36 151 410 406 296 509 277 171 613 566 676 967 973
0 0 0 25 100 160 251 185 205 417 458 140 53 0 22 43 1 11 0 0 4 48 88 7 60 129 124 174 298 300 379 519 563 361 250 327 148 169 190 400 344 298 9 90 455 403 535 697 339
0 0 0 37 170 265 198 88 235 547 708 320 86 43 0 4 0 0 0 0 3 0 0 0 132 112 110 66 207 322 294 402 464 209 72 353 277 78 0 354 417 200 6 342 374 394 199 235 157
0 0 0 69 298 366 408 126 425 466 523 648 129 87 54 29 0 0 0 0 0 0 0 0 62 102 102 30 118 239 273 291 311 174 180 269 265 342 34 98 316 205 4 218 667 511 215 255 130
0 0 0 0 118 305 406 223 328 529 534 589 306 139 119 71 0 0 0 0 0 0 0 0 2 44 55 49 39 32 150 305 321 371 265 204 36 896 381 410 245 268 172 163 451 353 175 293 96
0 0 0 0 0 281 251 154 205 348 442 343 309 208 156 113 11 0 0 0 0 0 0 0 0 0 57 29 106 96 323 362 418 380 385 0 222 664 559 549 466 545 371 421 455 373 31 425 43
0 0 0 0 0 0 0 13 187 206 418 357 290 211 167 122 30 0 0 0 0 0 0 0 0 0 91 11 41 123 66 204 218 322 287 825 943 746 396 597 592 597 493 645 566 547 447 499 19
0 0 0 0 0 179 62 71 193 146 246 373 293 241 97 86 54 0 0 0 0 0 0 0 0 0 112 0 35 15 53 119 170 353 285 616 790 924 950 725 461 194 402 460 450 478 416 192 217
0 0 0 0 0 0 0 0 9 226 194 288 409 143 195 91 9 0 0 0 31 21 0 0 0 0 83 0 45 250 200 253 193 214 384 632 1067 687 572 735 416 138 475 398 405 556 273 132 232
0 0 0 0 0 0 0 0 0 67 303 205 194 269 113 176 49 0 0 0 35 0 0 24 33 0 33 11 0 78 141 31 135 108 372 492 654 860 552 719 767 537 504 533 883 642 621 545 536
0 0 0 0 0 0 0 0 0 0 0 50 42 86 142 112 182 13 0 0 2 7 0 0 0 0 0 13 0 0 94 34 87 267 259 380 508 882 500 655 617 743 648 510 648 998 727 709 1231
0 0 0 0 0 0 0 0 0 0 0 0 0 0 40 134 141 44 0 0 24 0 0 0 14 0 0 0 0 0 0 22 92 95 278 232 562 783 939 693 630 838 749 636 736 951 812 1078 1249
0 0 0 0 0 0 0 0 0 0 0 0 0 0 0 25 182 88 4 0 17 35 0 0 9 16 0 0 0 0 0 0 0 2 143 314 483 703 944 600 637 883 863 777 685 918 940 1186 1033
0 0 0 0 0 0 0 0 0 0 0 0 0 0 0 0 140 161 85 0 0 26 30 50 3 0 20 4 0 0 0 0 0 0 0 218 355 714 860 802 585 987 1042 631 814 941 1137 1207 1280
0 0 0 0 0 0 0 0 0 0 0 0 0 0 0 0 19 172 129 23 0 2 21 26 70 21 14 29 0 0 0 0 0 0 45 151 280 407 747 888 829 750 1152 724 694 925 832 952 1028
0 0 0 0 0 0 0 0 0 0 2 0 0 0 2 0 56 36 107 80 0 0 0 0 47 60 17 75 64 14 0 0 0 0 10 293 355 282 271 588 862 901 1026 1035 716 887 906 931 1019
0 0 0 0 0 0 0 0 0 0 1 5 0 0 1 1 3 3 49 83 63 1 0 0 35 45 49 51 95 77 0 0 0 0 0 3 244 223 305 242 615 1088 1039 1045 1059 1002 1251 1082 1104

GFSSGP_con_sbcape_093.txt.gz
CAPE
87 1 0 66 103 114 34 70 62 0 0 0 0 0 0 0 55 43 0 0 1 266 880 868 1804 1849 2005 2055 1918 1806 1726 2211 1993 1732 1720 1638 1595 1804 2334 2263 2296 2474 2350 2451 2444 2294 2211 2314 2470
36 0 3 253 46 70 49 124 181 26 0 0 0 0 241 224 24 0 0 0 39 356 886 1086 2213 2217 1980 2118 1903 1680 1868 2235 2040 2073 2084 1527 1601 1700 1647 2007 2008 2000 2226 2314 2405 2099 2035 2141 2236
4 3 246 215 27 73 117 110 146 0 0 1 188 169 271 194 0 0 0 17 195 722 1087 1497 1911 2228 1990 2078 1993 1750 2034 1962 1943 1968 1932 1459 1418 1556 1485 1571 1853 1768 2061 2315 2249 2144 2064 1993 1884
3 50 258 312 128 9 6 177 7 0 11 238 207 113 0 0 0 0 0 82 412 887 1096 1848 2165 2164 2018 2079 2031 1732 2128 2000 1765 1843 1772 1769 1165 1695 1486 1595 1742 1863 2024 2120 1994 2026 1957 1922 1994
85 345 170 170 18 21 99 368 7 0 13 203 176 11 0 72 0 0 14 139 386 656 1154 1693 2477 2365 2046 1890 2025 1820 1941 1886 1717 1818 1687 1724 1353 1621 1599 1789 1735 1769 1908 1894 1901 1891 2028 1917 2021
420 325 139 228 40 21 133 138 266 184 124 64 6 0 18 108 0 0 34 177 334 668 962 1120 1823 1955 2110 2073 1689 1695 1915 1643 1969 1853 1868 1786 1736 1731 1662 1571 1527 1450 1596 1808 1773 2069 2189 2222 2121
211 259 170 81 101 39 47 100 381 386 102 81 40 35 76 12 0 15 158 366 462 766 1019 1180 1396 1742 1801 1727 1771 1687 1949 1732 1866 1801 1897 1763 1722 1741 1822 1668 1785 1517 1573 1440 1821 2066 2169 2364 2363
242 219 56 43 129 117 8 141 155 433 75 62 45 20 18 25 39 89 294 511 597 671 979 1571 1761 1778 1630 1836 1743 1734 1834 1839 1855 1815 1754 1823 1807 1823 1569 1665 1760 1515 1435 1711 1752 1895 2095 2198 2477
10 57 21 3 84 107 61 131 132 213 147 317 113 16 5 26 60 135 363 530 661 766 949 1195 1510 1588 1631 1477 1677 1709 1855 1883 1902 1692 1807 1989 1856 1785 1627 1800 1782 1567 1438 1548 1425 1822 2165 2206 2343
48 62 13 56 49 46 79 70 239 259 184 118 80 63 7 47 57 124 260 397 448 753 1138 1300 1424 1454 1618 1571 1808 1917 1944 1934 2040 1989 2100 2214 2099 1825 1677 1844 1873 1829 1407 1509 1650 1926 1404 1347 1801
50 78 12 146 95 65 61 117 168 257 223 143 103 42 1 25 42 98 167 254 485 771 1070 1195 1296 1183 1359 1516 1741 1807 1782 1809 2201 2025 1847 2002 1972 2002 1956 2183 1942 1730 1136 1389 785 869 1226 1649 1712
0 0 17 136 136 78 12 121 97 120 274 148 105 0 0 16 57 98 121 124 236 630 835 861 1029 901 1373 1851 1481 1513 1432 1511 1412 1504 1319 1971 1724 1941 2200 2022 2174 2022 792 879 1121 949 1560 1683 1907
0 0 0 60 190 63 88 153 23 170 252 91 52 0 0 24 82 82 54 50 85 202 505 715 655 1043 1346 1639 1452 1408 1283 1315 1450 971 1061 1460 1466 1753 1900 2057 1734 1699 1263 830 1254 1449 1625 1813 1885
0 0 0 112 205 68 141 185 219 289 281 127 40 1 40 140 154 135 67 48 104 249 457 692 379 1116 1345 1384 1536 1465 1282 1356 1166 883 1349 1203 1205 1307 1291 1535 1431 1516 1361 1212 1605 1698 1764 1934 1792
0 0 0 0 80 216 180 75 133 367 346 132 155 104 107 136 142 175 144 110 75 218 477 550 341 745 1148 1230 1333 1231 1156 1194 1394 1559 1430 1550 1218 1128 1399 1062 1008 1292 1190 1036 1564 1665 1750 1594 1226
0 0 0 120 76 121 296 124 261 586 629 293 232 178 161 182 182 181 183 59 20 0 407 395 163 538 913 1028 1132 1060 1213 1434 1603 1730 1519 1535 1443 1332 1129 1401 1188 1204 847 1328 1355 1520 1322 1303 1238
0 0 0 130 195 349 347 191 619 625 577 375 168 198 170 186 204 245 251 130 0 26 323 299 342 689 840 1044 831 1064 1410 1485 1676 1666 1511 1116 1391 1305 756 1098 1421 981 994 1276 1407 1481 1248 1335 1198
0 0 0 0 280 472 300 263 550 690 650 441 338 198 179 152 184 258 275 262 92 56 254 328 402 808 1084 1004 960 1082 1470 1542 1625 1677 1623 1196 1460 1521 1191 999 1384 1148 826 1143 1462 1576 1368 1338 1135
0 0 0 0 18 386 60 81 320 672 665 810 451 350 227 150 140 215 293 271 205 97 163 426 579 966 1058 1012 926 1121 1393 1601 1983 1666 1619 1356 1100 1765 1818 1395 1284 1246 1091 1133 1707 1399 1457 1282 1202
0 0 0 0 0 20 0 0 220 502 823 853 710 425 329 241 156 166 240 208 226 187 146 469 619 988 1108 1086 1283 1433 1651 1662 1727 1674 1677 1240 1484 2128 2155 1663 1627 1570 1325 2019 1759 1725 1299 1540 1047
0 0 0 0 0 129 149 125 415 446 741 836 770 621 457 396 287 190 217 150 221 271 263 429 710 843 1068 1096 1287 1386 1526 1571 1621 1685 1582 1943 1324 1766 2080 1735 1751 2031 1729 1631 2053 1815 1712 1109 1122
0 0 0 0 0 0 17 0 177 398 507 714 767 640 506 466 381 279 209 146 146 286 336 482 695 822 924 1155 1258 1568 1369 2076 1404 1691 1662 1697 2108 1943 1759 1948 1680 1747 1571 1790 1773 1616 1536 1196 880
0 0 0 0 0 0 0 0 0 542 250 47 386 762 620 329 374 382 222 223 193 227 306 419 692 815 868 1040 1343 1537 1552 1396 1418 1505 1916 1919 2346 2211 1553 2176 1853 1701 1508 1990 1878 2087 1916 1536 1253
0 0 0 0 0 0 0 0 0 0 1 4 16 62 521 531 251 351 311 210 222 243 302 330 659 1107 911 1005 1101 1433 1636 1477 1431 1469 1552 1622 2494 2184 2310 1921 2114 2191 1811 1965 1949 2376 2237 2032 2376
0 0 0 0 0 0 0 0 4 7 7 4 17 32 34 153 542 420 330 208 197 275 329 352 679 1143 993 886 1023 1058 1343 1699 1822 1947 1563 1585 1666 1870 2456 2229 2253 2205 2403 2192 1998 2370 2457 2298 2348
0 0 0 0 0 0 0 0 7 2 4 5 5 13 15 44 100 619 422 342 167 370 436 371 781 1123 831 849 1164 1331 1131 1001 1214 1716 1349 1409 1464 1703 2384 2519 2347 2160 2147 2085 2173 2086 2168 2323 2254
0 0 0 0 0 0 0 0 0 0 0 3 1 0 0 242 48 346 613 383 256 377 589 572 869 1097 889 835 1293 1056 1185 1012 1112 1572 1795 1463 1788 1690 2133 2354 2403 2154 2345 2262 2402 2004 2504 2530 2680
0 0 0 0 0 0 0 0 3 4 7 1 2 7 3 12 214 111 575 473 273 329 492 531 682 993 1196 840 1081 855 794 834 878 1268 1578 1562 1709 1862 1944 2187 2233 2288 2354 2485 2502 2222 2296 2441 2339
0 0 0 0 0 0 0 2 16 21 16 4 0 1 9 10 3 159 496 646 253 253 431 478 523 661 772 766 1055 1115 810 660 768 716 1215 1553 1781 1983 2125 2301 2323 2362 2424 2547 2573 2364 2148 2331 2444
0 0 0 0 0 0 0 1 27 15 9 16 2 0 1 4 7 6 13 8 248 233 267 432 383 503 593 893 1146 877 936 807 669 655 640 1072 1549 1945 2129 2146 2164 2180 2297 2515 2464 2215 1912 2145 2155

GFSSGP_con_sbcape_096.txt.gz
CAPE
1 1 5 180 334 103 44 237 85 93 74 2 0 0 0 17 267 549 0 26 268 476 736 1178 2309 2150 1940 1942 1868 1727 2179 2017 1775 1719 1689 1633 1877 2341 2301 2171 2124 2443 2528 2500 2309 2316 2446 2617 2350
12 0 255 483 140 76 441 305 137 100 22 0 0 0 88 486 46 0 10 77 288 473 721 851 2264 2252 2240 2027 1737 1667 2212 2097 2117 2203 1622 1641 1563 1949 2173 1980 2135 2367 2515 2480 2199 2217 2347 2464 2588
4 42 539 810 68 512 506 445 162 13 0 41 0 387 404 574 0 0 22 124 315 663 932 1468 1892 2184 2175 2044 1832 1876 2140 2064 2207 2072 1589 1647 1973 1546 1780 2089 1934 2234 2394 2354 2300 2167 2039 1983 2039
214 458 732 659 178 224 297 449 18 0 0 308 186 304 75 69 0 0 30 126 446 754 941 1542 1930 2129 2073 2165 1865 2002 2012 1963 1912 1865 1778 1243 1752 1724 2115 1893 1937 2169 2140 2085 2188 2099 2038 2115 1999
276 833 610 278 296 100 423 61 0 1 160 312 216 50 23 0 1 1 45 155 476 617 1083 1427 2341 1924 1888 1989 1828 1836 2029 1781 1737 1736 1797 1285 1821 1705 1883 1935 1982 2089 1979 2023 1981 2012 2027 2108 2280
653 730 477 199 402 362 492 487 3 6 411 188 103 8 160 29 0 0 70 231 415 627 1042 1482 1967 2034 1990 1969 1853 1815 1911 1681 1882 1861 1729 1806 1827 1710 1795 1616 1754 1794 1988 1984 2088 2110 2342 2210 2371
420 750 380 281 423 302 85 533 456 430 181 156 121 89 91 0 0 17 89 193 381 606 1029 1269 1430 1897 2004 1821 1828 1851 1688 1894 1905 1808 1814 1715 1790 1839 1728 1694 1661 1780 1753 1991 2091 2194 2347 2298 2541
558 673 275 194 263 282 32 203 312 487 296 128 159 81 46 0 3 18 108 213 392 745 1096 1103 1131 1402 1648 1673 1649 1841 1784 1868 1870 1973 1778 1853 1966 1775 1691 1951 1932 1740 1893 1930 2069 2162 2207 2504 2413
242 529 166 174 246 221 128 204 360 636 221 293 192 129 0 0 7 60 147 249 542 767 799 926 1423 1501 1411 1522 1804 1844 1836 1895 1685 1781 1807 1560 1702 1422 1546 2022 1587 1653 1775 1649 1973 2100 2263 2412 2317
414 299 149 135 207 254 196 238 367 578 487 393 254 0 0 0 13 52 135 398 564 645 480 952 899 1207 1317 1276 1733 1730 1537 1717 1680 1846 1751 1699 1740 1919 1444 1892 1748 1597 1574 1864 1939 1586 1583 2117 1489
278 306 115 270 154 122 80 131 154 339 434 240 384 95 3 6 1 37 295 453 469 367 491 703 1183 1175 1281 1993 1646 1557 1397 1392 1805 1766 1442 1493 1416 1526 1657 1762 1191 1264 1862 1291 1459 1503 1621 1833 1517
155 52 53 251 186 54 62 58 73 241 413 265 376 48 0 5 17 114 289 404 524 386 539 784 865 1264 1242 1448 1095 999 1291 1260 1243 1636 1643 1485 1401 1512 1226 1087 1254 890 967 1497 1369 1487 2023 2075 2081
19 0 0 31 229 113 94 109 115 343 301 231 131 0 0 0 26 140 216 306 378 545 522 622 714 772 1714 1426 979 991 1211 1335 1461 1443 1683 1315 1085 1430 1254 1445 1211 1099 995 1295 1335 1705 1977 1913 1677
65 3 0 8 64 188 127 69 161 628 200 183 16 8 0 0 52 178 198 159 64 147 404 563 397 858 1158 1355 1353 1230 1192 1623 1354 1300 1759 1698 1155 1213 1382 1436 1367 1346 1166 1316 1565 2060 1984 1888 1415
0 0 0 0 48 85 245 222 163 870 384 158 20 0 0 48 163 183 132 76 20 127 359 528 276 991 1227 1425 1453 1380 1436 1312 1378 2170 1778 1778 1448 1588 1359 1291 1253 1305 1422 1696 1874 1992 1934 1301 1191
0 0 0 0 17 158 248 148 202 304 449 335 20 0 35 178 217 180 45 4 0 79 384 416 172 804 1168 1209 1235 1163 1353 1549 1466 2339 1415 1867 2091 1907 1863 1682 1319 1504 1216 1519 1506 1508 1465 965 721
4 59 1 17 12 288 466 190 341 937 690 839 262 48 121 261 219 145 32 31 0 72 318 376 375 523 972 1451 1417 1430 1773 1359 1198 1960 1589 1869 2080 1906 1253 1476 1907 1581 1391 1436 1393 1447 1438 1057 813
47 32 0 15 153 498 322 275 733 823 954 739 880 474 299 247 217 108 298 179 0 23 210 362 535 824 1140 1315 1395 1363 1754 2390 1559 1310 1778 1871 1996 2049 1409 1454 1789 1301 1327 1377 1466 1590 1164 968 1044
29 9 0 0 296 422 245 124 695 946 884 802 716 704 503 339 124 212 504 461 143 0 213 354 683 1348 1329 1274 1133 1405 1542 2703 1482 1463 1634 1999 1680 1984 2019 1385 1762 1400 1214 1443 1940 1533 1465 979 1163
0 0 0 0 86 163 0 0 12 688 593 955 881 539 439 416 174 241 604 615 394 123 309 524 847 1618 1689 1506 1638 1421 1548 1598 1521 1830 2033 1587 1618 1709 1489 1568 1340 1372 1412 2185 1916 1735 770 874 1203
2 6 0 0 0 0 1 168 436 289 588 704 886 711 690 444 349 150 399 715 563 279 306 650 943 1544 1765 1544 1976 2370 2108 2369 2122 2334 1517 1563 1602 1440 1401 1493 1512 1993 1970 1303 2005 1900 2028 795 1052
0 1 0 0 0 19 16 7 117 501 706 881 967 659 814 543 426 323 462 667 678 572 403 493 1149 1500 1724 2003 1762 1977 1127 1036 1255 1721 1736 1374 1263 1586 1363 1394 1660 1775 1603 1686 1899 1708 1568 1966 878
18 0 0 0 0 0 0 20 189 372 268 283 967 985 961 1086 723 561 445 628 623 711 613 607 1086 1439 1473 1886 1917 2111 1702 749 930 1495 2940 1936 1592 1500 1451 1519 1721 2263 1904 2017 1969 2377 2172 1121 1118
0 0 0 0 0 0 6 1 66 99 140 235 302 353 917 726 765 640 624 599 660 661 728 684 1155 1614 1744 1787 2101 2160 1659 1403 1309 1449 3385 2527 1645 1530 1721 2140 2257 2547 2028 2374 2250 2514 2519 2167 1839
0 0 0 0 0 0 0 0 86 43 91 127 201 234 268 452 724 660 889 672 694 754 845 905 1124 1791 1914 1773 1802 2007 2154 2156 1884 2074 894 1731 1470 1459 2629 2278 2332 2083 2403 2569 2259 2545 2149 2482 2145
0 0 0 1 0 0 0 15 16 15 63 103 27 57 186 312 330 539 564 904 768 801 1033 1102 1299 1749 1932 1903 1922 2059 2197 1918 1703 1616 865 1341 1264 1489 2596 1730 2146 2012 1812 2352 2593 2332 1770 2088 2291
0 0 0 0 3 1 0 27 13 16 39 56 4 8 75 404 391 372 1093 1009 909 862 1013 1246 1453 1842 2012 1791 2017 2131 2254 2074 1396 1249 1457 1317 1526 1363 2395 2129 1385 1557 1800 2177 2502 2059 2324 2283 2459
0 0 0 0 1 1 0 7 106 14 13 13 4 9 19 83 525 509 648 985 1015 1003 966 1215 1757 1972 2039 1732 1727 1931 2110 2126 1938 1507 1641 1577 1530 1862 1914 2506 2226 1808 1678 2048 2189 2018 2360 2590 2145
0 0 0 0 0 1 22 42 11 23 21 9 5 8 12 15 46 134 16 353 1127 1000 831 1068 1386 1505 1632 1635 1651 1819 1967 1887 1898 1487 1509 1710 2122 2098 2209 2590 2480 2247 2150 2378 2688 2207 1743 2414 2129
0 0 0 2 0 0 25 73 26 5 8 9 5 4 3 6 7 5 5 5 63 635 915 1022 1110 1190 1302 1470 1501 1656 1705 2154 1625 1612 1394 1409 1884 2320 2206 2177 2749 2643 2583 2656 2437 1704 1669 2206 2170

GFSSGP_con_sbcape_099.txt.gz
CAPE
1 0 17 237 643 341 482 301 310 120 65 37 29 61 292 518 476 357 113 371 510 404 727 1422 2330 1797 1913 1869 1745 1847 1880 1768 1729 1650 1636 2061 2315 2261 2188 2281 2589 2599 2575 2334 2432 2300 2550 2508 2315
1 0 188 896 694 467 644 444 168 185 31 6 11 30 331 521 82 40 143 377 372 317 482 1276 2576 2308 2052 1844 1679 2124 1954 2016 1983 1670 1627 1473 2148 2152 2083 2295 2473 2583 2576 2338 2418 2415 2510 2560 2530
556 7 652 1192 746 645 663 260 153 24 0 4 104 280 770 45 4 90 229 335 396 525 658 1908 2335 2357 2069 1817 1852 2070 2049 1963 1990 1635 1778 2167 1645 2054 2159 2101 2350 2432 2439 2535 2237 2187 2168 2425 2037
40 398 756 1139 408 619 663 147 16 6 82 9 234 299 275 6 3 149 234 398 566 754 969 1827 2153 1957 2073 1911 1790 1918 1965 1965 1979 1674 1408 1680 1975 2113 2008 2028 2238 2300 2246 2357 2243 2160 2063 2228 2179
294 1042 1009 465 457 659 441 47 0 60 224 165 273 285 6 3 8 139 270 397 498 805 895 1303 2563 2014 1962 1906 2007 1928 1853 1801 1875 1855 1445 1941 1789 1912 1902 2021 2184 2128 2171 2196 2107 2056 2114 2307 2312
731 1109 581 378 513 663 414 36 3 313 410 298 316 174 153 83 8 138 225 377 410 622 961 1282 1979 1967 2011 1767 1633 1952 1878 1961 1973 1894 1831 2044 1886 1822 1891 1961 1982 2084 2160 2151 2325 2318 2377 2396 2467
502 1205 470 312 571 678 778 155 25 325 422 334 259 309 160 2 45 93 284 440 416 870 859 1169 1534 1883 1966 1834 1834 1940 2006 1954 2039 1961 1894 1908 1799 1886 1761 1688 1951 1990 2151 2167 2336 2296 2393 2566 2342
834 669 365 392 536 649 438 758 737 541 402 230 364 146 55 45 62 148 265 335 397 577 680 998 944 1366 1654 1738 1851 1924 1890 1962 2004 1956 1865 2038 1902 1798 1766 2319 1998 2074 2065 2151 2153 2260 2452 2344 1973
694 651 267 207 228 601 265 402 627 853 350 346 577 84 20 36 90 175 224 322 409 450 489 771 1312 1436 1865 1583 1877 1863 1944 1915 1990 1721 1649 1696 1715 1622 1464 1989 1883 1899 1845 2038 2092 2136 2372 2433 2206
498 276 356 275 264 496 412 512 724 594 540 532 422 10 0 59 122 170 169 277 305 465 623 1000 1174 1269 1535 1130 1751 1892 1465 1777 1803 1674 2081 1694 2254 1803 984 1602 1814 1750 1948 1899 1761 1877 2304 2604 1892
483 213 353 335 227 200 369 504 157 586 637 493 110 22 0 81 154 121 156 189 404 346 719 1037 1407 1713 1544 1629 1516 1504 1851 1430 1873 1567 1996 2263 1193 1547 933 1395 1422 1483 1859 1443 1532 1533 1648 1704 806
215 305 249 240 123 251 191 126 115 439 376 373 119 37 4 81 78 111 175 236 320 343 682 1087 1440 1973 1639 1160 1287 1497 1430 1504 1340 1083 1287 1548 2125 2177 2703 1074 906 1278 1927 1486 1895 1614 1833 1233 987
226 113 51 335 246 193 52 9 126 389 325 522 507 34 2 17 53 105 135 236 254 440 498 528 1019 1726 1284 1651 1068 1034 1207 1586 1043 1334 1685 1873 1403 1306 1348 1287 1032 1087 1268 1472 1765 2116 1886 1720 1159
149 85 32 158 307 208 119 55 163 546 432 581 311 27 4 7 31 98 140 239 269 369 369 549 573 1529 1467 1352 1353 1391 1595 1370 1797 1503 1483 1218 1212 1352 1135 1362 1023 1043 1091 1619 2265 2367 2142 1454 1126
206 197 1 84 249 216 202 136 217 516 371 227 125 44 11 14 47 88 136 173 169 269 355 483 532 844 1311 1191 1227 1930 1186 1508 2214 1625 1826 1640 1367 1365 1327 1817 2094 1109 1654 1725 1789 2352 2012 2299 658
141 114 60 19 27 230 277 209 769 486 516 168 109 53 18 19 49 63 80 75 97 178 369 375 363 806 1053 1340 1388 1677 2131 1620 1625 1317 1531 1821 1878 1749 2142 1434 1102 1543 1382 1276 1757 2571 1565 622 543
174 157 76 33 104 243 112 179 358 236 633 179 80 57 54 89 116 59 8 1 65 238 385 336 478 795 1006 1279 1231 1225 2013 1335 1416 1889 2031 2027 2018 1838 2381 2086 2229 1811 1451 1781 1776 1844 1589 958 616
163 122 132 144 79 380 218 87 502 303 616 291 102 67 106 218 188 61 5 9 2 198 347 490 489 1045 1335 1394 1747 1766 1303 1519 1653 1533 1580 1867 2242 1998 2044 2186 2071 1878 2210 1224 2017 2857 1000 1491 824
117 50 27 144 175 224 113 181 574 1063 807 894 302 109 109 163 219 85 45 25 6 120 275 567 744 1422 1484 1240 1018 1630 1877 2115 2239 1548 1719 1853 1857 1867 2101 1650 1764 2110 1997 2136 1775 1135 1602 890 519
93 118 80 223 365 169 110 36 247 589 632 771 963 551 290 356 236 135 264 156 10 61 217 576 1106 1554 1439 1070 1926 2416 1811 1861 2599 1590 1831 2305 1554 1659 1673 1987 1518 2589 1889 1941 1767 1760 1755 874 665
101 98 36 22 356 10 7 90 210 283 452 863 832 700 644 389 235 190 287 275 182 75 303 615 1320 1748 1842 2522 2437 1592 2251 1824 1838 1869 1740 1715 1664 1504 1767 1600 2666 1825 1599 1646 1707 1753 2544 1804 530
11 38 40 56 6 115 7 20 218 282 913 1097 981 887 706 517 524 217 273 393 251 151 254 663 1276 1858 1835 1760 2364 1966 1444 1289 1637 2398 1424 1608 1663 2357 1668 1776 1816 1861 2292 2923 1861 1202 2673 2434 815
29 63 20 1 0 204 56 113 53 200 410 965 1108 1106 914 561 598 207 256 536 333 309 238 655 1203 1955 2033 2036 2403 1935 2381 1510 2061 2029 2372 1826 2055 1692 1715 1689 1834 2043 2122 2869 2539 2133 2995 1208 2025
39 45 26 3 2 74 221 44 94 256 230 724 950 1058 998 848 629 563 448 631 411 358 362 475 1336 2528 2170 2181 2016 2209 1225 2447 1635 1949 1955 1781 1393 1750 1739 2014 1832 2053 1820 2180 2165 2259 2382 3146 3300
32 33 18 2 1 19 129 125 202 161 132 147 201 246 756 1041 1229 964 699 648 769 403 385 622 2335 2889 2306 1993 2166 2281 2133 1877 2069 1814 1793 1471 1412 1144 2651 2620 2396 2384 2346 2109 2304 2618 2555 2418 2528
21 10 10 1 0 3 53 252 209 188 31 7 2 32 228 447 1090 1073 900 877 884 650 508 655 2606 2971 2332 2235 2633 3198 2688 1836 1319 1867 1348 1576 1084 1362 2729 2001 1896 2195 2106 2177 2352 2264 1871 2935 2312
19 1 3 40 37 27 157 190 159 154 154 31 8 9 63 478 1076 1049 872 921 797 1033 768 1032 2306 3383 2586 2339 3387 3073 3223 2924 1875 1825 2124 1560 1365 2361 2583 1592 2180 1982 1861 2087 2595 2599 2197 2399 2459
0 2 14 6 68 53 227 226 302 55 17 7 5 9 20 205 717 837 539 726 989 986 1068 1125 1619 2463 2526 2511 2438 2402 2488 2671 2505 1664 1727 2157 2210 1452 1245 2244 1592 1668 1916 2077 2500 2719 2588 2637 2345
0 0 2 44 31 118 140 390 138 43 0 12 6 8 10 18 58 223 322 196 676 413 318 1298 1507 2007 2334 2522 2455 2983 2519 2472 2615 2145 1828 1822 2229 1889 2119 2340 2040 2048 1783 2024 2736 2930 2520 2574 2648
0 3 6 7 27 10 54 85 11 23 10 3 4 2 3 3 7 14 6 1 4 1 3 1044 130 1575 1917 2000 2346 2224 2337 2337 2341 2373 1957 1914 2380 2441 2136 2495 2701 2400 2243 3004 2278 2079 1371 1906 1942

GFSSGP_con_sbcape_102.txt.gz
CAPE
6 0 35 269 125 412 320 313 173 31 49 28 89 231 224 156 240 294 426 488 347 652 1081 1301 2282 2260 1994 1803 1688 1661 1666 1650 1599 1773 2202 2424 2342 2685 2871 2965 2953 3016 2920 2409 2473 2455 2362 2366 1842
0 0 362 490 309 406 562 171 147 33 6 25 124 201 39 33 32 132 420 420 202 286 582 862 2249 2335 1934 1659 2214 1859 1961 1856 1649 1556 1579 2221 2062 2380 2419 2504 2601 2978 2691 2619 2378 2498 2513 2404 2171
37 148 341 286 439 591 446 109 42 23 3 50 271 132 6 0 14 161 259 167 92 463 1067 1777 2311 2455 1890 1958 2007 1981 1983 1982 1599 2026 2131 1706 2201 2107 2255 2389 2459 2615 2483 2344 2152 2295 2034 1856 1614
248 454 400 639 466 501 293 91 2 11 59 107 182 0 9 40 84 54 121 123 379 935 1163 2290 2537 2079 1839 1970 1764 1914 1936 1724 1557 1737 1632 1963 1798 2004 2148 2263 2311 2353 2403 2259 2176 2130 2198 2014 1829
184 800 695 354 736 330 125 0 60 47 61 158 0 11 15 109 40 85 216 407 513 693 1116 1588 2519 2374 1843 1853 1837 1887 1825 1810 1837 1732 1852 1888 1954 1921 2050 2265 2165 2245 2207 2108 2308 2303 2335 2146 1809
493 909 604 582 681 94 54 35 276 185 230 93 0 3 32 87 81 162 247 600 607 405 895 1316 2151 2103 1755 1646 1887 1806 1801 1936 1876 1978 2049 1883 2181 2035 2189 2114 2170 2164 2278 2409 2355 2417 2453 2285 1849
434 872 446 346 693 430 57 127 420 291 231 65 0 18 25 48 102 133 309 525 495 658 989 1328 1376 1703 1825 1707 1980 1918 1980 1950 1874 1970 2211 2211 2061 2005 1929 2129 2177 2154 2321 2359 2296 2448 2518 2068 1685
649 897 357 411 680 613 645 379 788 648 285 142 123 43 5 72 56 115 122 579 431 406 774 1425 1593 1607 1493 1617 1833 1941 1962 1858 1890 1713 1976 2026 1979 1798 1920 2625 2587 2218 2200 2136 2259 2443 2378 1878 1611
366 99 191 229 507 834 618 613 756 888 315 356 265 17 7 30 73 149 274 372 386 594 632 723 1193 1588 1751 1596 1710 1874 1976 1909 1782 1518 1746 2006 1757 1720 1841 2595 2458 2041 2109 2140 2189 2307 2344 1966 1710
373 70 110 286 470 525 353 234 593 616 400 489 13 10 2 32 126 198 217 158 204 537 614 1006 1069 1192 1639 869 1956 1872 1612 1859 2378 1701 1943 1227 1585 1417 1451 2001 2164 1861 1928 1857 2064 2252 2404 2281 1536
194 210 345 508 438 248 526 723 619 619 554 259 28 0 32 18 103 88 152 321 236 667 854 825 1316 1556 1460 1309 1376 1655 1738 1756 1961 1161 2275 2115 1864 1108 966 1842 1601 1964 1886 1737 1656 2225 2237 2566 2118
105 229 331 475 310 204 498 417 608 550 418 76 29 19 26 45 72 82 81 280 502 879 901 1291 1616 2375 2054 237 976 1568 1522 1952 1458 1785 2736 2426 1948 1875 2166 1903 2062 1553 2797 1125 2323 698 1025 1799 1034
186 181 427 192 342 249 148 162 430 565 392 197 50 37 21 39 65 99 122 96 826 477 1149 1378 1784 1816 1844 463 694 366 1048 1389 1043 2128 1914 2485 966 2723 2101 2154 1694 1402 2609 1768 2284 1545 2695 2172 1229
67 117 185 321 270 77 38 69 55 430 380 450 79 57 16 35 67 176 263 116 250 544 479 978 1561 1277 2118 1755 826 340 692 843 1322 1777 2340 2052 1904 1489 2074 2628 1963 2472 1975 2098 1634 1176 1805 1088 1692
102 84 82 327 142 149 82 119 130 714 530 615 114 48 22 34 78 154 246 205 118 214 560 554 878 1472 2060 2078 1667 848 663 775 1747 1493 2768 2497 2308 2762 852 1978 1902 2564 2878 2629 3183 2424 3263 1626 1474
37 133 104 406 357 231 114 156 123 394 482 368 82 43 30 45 53 86 189 223 232 255 740 598 225 922 1865 2645 2190 663 918 90 116 1672 1871 2533 2863 2873 2834 2647 1872 2682 2683 1175 2533 2128 1965 2640 1755
68 95 87 80 270 271 233 270 118 212 570 172 75 46 33 62 67 71 28 57 37 457 771 550 968 802 1666 2124 2043 1584 783 1047 1586 1968 2282 2345 2643 2370 2723 2517 2748 2583 2307 2386 1201 793 2011 2649 1037
23 66 96 116 227 337 244 158 123 102 303 169 105 65 67 91 56 61 22 20 71 446 819 1087 1080 1850 2748 1971 2865 2064 2589 1685 1462 863 1793 2020 2294 2248 1572 2400 2745 2812 2570 1570 831 2282 2176 2357 516
10 102 87 70 553 330 169 152 68 103 614 186 94 65 73 113 99 17 14 15 68 375 713 1203 2112 2476 2163 2072 2072 2676 2373 2927 2189 973 1903 1824 2635 2347 1892 1868 2656 3011 1139 2165 2852 2439 2366 2781 2166
0 24 106 173 235 192 133 43 97 186 224 512 123 77 122 115 48 47 19 28 90 418 772 1293 2171 2354 2585 2072 2102 1978 764 2111 2331 2173 2685 2678 2512 2550 2361 2547 2501 2541 2460 3098 2860 3358 2562 2336 2057
0 8 0 260 59 0 12 53 2 26 8 115 415 229 163 213 118 36 67 30 21 357 737 1228 2269 2114 2546 2643 2126 517 1025 2071 2344 1807 2421 2425 2466 2350 2780 2543 2960 1594 2711 2781 3287 3147 3044 2625 1670
0 104 0 364 46 60 152 159 107 133 142 148 504 793 350 211 133 34 75 40 7 200 462 1359 2459 2169 2138 1397 2658 3065 2295 1025 2546 2283 2317 2361 2214 2683 2739 2538 2965 2632 2830 3165 3369 2080 2915 3677 2813
2 51 23 28 33 77 101 90 121 58 11 265 467 833 718 279 126 109 114 70 41 115 336 1103 2180 2480 2699 2776 2361 2546 390 0 822 387 2905 2347 2737 2029 2246 3162 2796 2905 758 1596 3394 3113 3772 3141 2574
0 0 47 8 0 86 84 136 164 51 163 510 782 817 769 540 243 189 71 88 54 108 236 971 1845 2589 2649 2963 2355 2543 966 299 931 1122 2787 2444 2413 2669 2635 2535 3327 3072 1308 2656 3104 3144 3386 3380 3259
2 17 53 49 0 3 155 157 228 151 14 48 283 237 361 743 379 380 303 307 163 211 234 1026 1781 2676 2822 2632 2679 2343 2258 518 682 2126 2160 1475 1774 1958 2579 2972 3513 3170 3392 3133 3147 3660 3423 3371 3636
41 49 82 37 18 5 230 244 154 113 35 41 48 93 229 733 698 625 527 377 363 339 422 1125 2100 2660 2707 2757 3030 3237 2665 2157 1534 1983 1673 400 788 481 2026 2714 2954 3226 2584 2665 3166 3478 3112 3410 3165
31 26 34 57 4 39 441 231 174 41 56 31 1 4 62 223 729 396 669 503 299 620 386 1390 2164 2650 2762 2591 3007 3423 3437 3274 2519 3105 3317 2263 572 897 2843 2427 2896 3061 2803 2872 2946 3105 3270 3164 3734
1 19 6 14 48 128 432 293 347 111 63 39 4 0 0 15 120 552 292 210 800 871 788 1088 2606 2979 3085 2916 3073 3028 3226 3361 3244 3757 2894 3231 1698 990 670 4 2541 3226 3200 3067 2882 2920 3059 3188 3409
0 0 0 1 36 62 330 271 175 120 32 8 2 0 0 1 3 15 64 53 266 206 47 43 534 2641 2810 3055 3084 3033 2990 3135 3413 3065 2930 2674 3115 838 0 0 204 2750 2930 3016 3348 2815 2563 2356 2692
0 0 6 14 4 29 259 129 61 64 88 0 0 0 0 0 1 4 3 6 10 55 23 0 1 132 437 1118 2532 2805 3311 3223 3151 3177 3025 3021 3071 2814 1513 408 1918 2256 2932 2864 3411 2698 2494 2627 3059

GFSSGP_con_sbcape_105.txt.gz
CAPE
13 1 0 93 81 129 100 407 2 60 93 66 63 115 125 157 164 121 304 345 402 1010 1572 1914 2444 2020 1943 1688 1712 1564 1539 1686 2118 2520 2656 2481 2349 2882 3040 2772 2557 2657 3045 2562 2394 2368 1835 1962 1857
0 0 105 183 87 105 130 194 32 166 255 90 0 27 77 93 167 260 221 241 526 796 839 1572 2318 2227 1668 2156 2065 1802 1648 1565 1536 2046 2295 2109 2336 2883 2629 2471 2439 2894 2874 2497 2543 2395 2262 1852 1816
9 36 71 192 148 91 35 83 7 134 115 20 5 0 12 112 185 94 86 301 436 413 710 1442 2333 2180 2064 1921 2077 2004 2024 1530 1929 1671 1933 2169 2048 2471 2389 2629 2456 2428 2298 2335 2187 1768 1571 1476 1664
59 298 234 463 55 403 224 14 13 38 0 8 6 0 0 23 60 6 1 47 480 846 1377 2107 2215 1689 2040 1870 2020 1921 1890 1471 1615 1596 1792 1814 2017 2173 2277 2349 2541 2352 2293 2183 2174 2028 1789 1776 1827
68 355 232 310 367 282 20 9 78 16 2 9 0 15 0 1 25 0 43 692 716 1188 1447 1591 2434 2140 1972 1861 1838 1845 1696 1431 1930 1783 1852 1856 1948 2138 2305 2087 2274 2175 2168 2256 2207 2196 1888 1761 1707
162 413 229 127 387 241 295 187 85 31 0 0 0 1 10 1 0 12 204 443 764 890 1229 1368 2111 2228 1900 1912 1706 1647 1648 1563 1929 2174 1845 2260 2162 2145 2600 2076 2118 2329 2335 2305 2245 2250 2003 1658 1531
80 415 175 283 334 450 561 529 433 4 0 0 0 0 5 7 33 179 245 321 433 788 954 1317 1489 1479 1668 1891 1806 1827 1722 1813 1885 1838 1882 2282 1980 1982 2318 2120 2200 2397 2270 2211 2194 2230 1916 1643 1427
257 221 211 235 243 379 790 595 436 89 17 0 0 0 0 30 166 162 110 193 501 684 785 1093 1197 1217 1310 1520 1836 1847 1793 1824 1776 1699 1810 1989 1818 1915 2065 2659 2731 2188 2170 2186 2309 2200 1755 1476 1437
71 82 149 188 304 467 700 782 823 471 43 20 0 0 0 32 99 167 112 268 256 696 897 953 1016 897 1036 1233 1592 1731 1798 1833 1737 1812 1488 2075 1133 1279 1695 2181 2400 2168 2119 2119 2189 2205 1918 1628 1486
88 16 19 168 524 732 672 706 713 375 228 206 2 0 0 32 142 100 176 147 237 390 684 836 934 944 1009 1176 1209 1208 1482 1124 1076 972 1014 932 1032 1075 1559 1887 1997 2023 2046 2086 2082 2139 2141 2159 1214
18 27 0 0 280 383 227 630 720 492 22 0 0 0 0 16 86 39 30 163 273 489 627 700 659 789 614 1125 1098 1066 1066 1099 963 921 730 844 700 1325 1358 1537 1449 1327 1886 1381 2082 2190 2122 1958 1752
514 191 110 578 388 295 566 339 415 303 151 31 0 0 0 23 52 65 36 148 507 470 373 612 861 37 1 30 559 688 1075 807 911 705 1139 601 735 693 862 1220 1040 1178 1441 459 1098 315 506 581 1352
179 116 153 429 365 263 412 407 443 168 355 16 1 0 4 41 55 53 89 265 541 569 684 845 27 119 0 0 51 352 479 821 821 952 1126 866 1146 581 892 1026 1170 784 729 612 605 1073 430 538 575
102 302 148 337 300 153 340 368 156 410 530 14 2 0 0 36 57 48 167 175 143 460 745 812 0 9 0 0 73 5 367 433 792 834 1236 1392 712 1023 900 1131 1037 1245 1362 1444 343 523 825 1113 492
103 62 95 203 98 118 94 44 120 615 583 201 24 2 5 25 62 22 151 230 294 592 703 777 116 18 0 13 261 36 91 319 640 1151 1523 981 926 1070 698 1204 1473 1655 1090 706 349 543 1752 1411 753
0 39 38 132 121 115 68 59 105 451 444 484 206 43 11 33 78 25 12 23 84 112 182 466 895 336 267 258 80 0 10 80 0 1366 1149 1515 1475 1394 1270 1428 1222 902 1048 591 1382 562 173 944 1390
0 0 90 258 195 132 96 19 80 167 231 325 137 60 9 29 57 26 10 21 122 141 120 122 563 572 785 177 51 0 0 116 115 1255 1436 1334 1211 1612 1296 1549 1656 1302 1487 1099 598 920 586 1049 420
0 0 230 352 317 192 145 112 14 80 152 166 95 50 14 23 36 12 0 0 166 112 39 285 307 829 526 763 323 231 269 404 551 792 1214 1167 1577 1434 832 1797 1301 1559 860 708 481 775 1581 1123 302
0 4 88 176 402 171 112 37 0 37 173 200 135 34 20 14 4 0 0 0 160 145 50 827 580 1167 550 966 897 909 858 951 500 169 1275 1302 1347 1037 519 904 1395 1060 1200 1189 477 1414 1517 1527 1226
0 2 246 425 432 97 170 93 24 75 157 138 159 21 23 20 12 0 0 26 85 150 227 709 1222 737 447 1008 1247 1272 445 1015 1010 993 1135 1264 1283 1200 1010 1100 1194 1615 1089 1275 1383 1731 1500 1505 504
0 0 115 265 13 162 39 57 14 9 47 68 40 172 33 12 0 0 0 9 73 164 469 931 947 1162 1258 728 407 209 128 892 1023 1206 1240 1343 1284 1363 1558 1635 1452 1092 1567 1306 1503 1385 1381 1215 781
0 11 226 85 73 107 125 11 0 1 14 13 20 180 46 20 0 0 0 0 68 174 419 1008 944 780 1205 1388 558 1 359 668 660 1082 1208 1504 1341 1499 1118 1613 1413 1531 936 1372 1518 2010 2003 1859 1666
0 411 294 38 4 73 44 109 61 9 6 7 40 0 11 22 15 30 0 0 57 188 337 1129 954 777 887 1388 1081 667 50 0 30 517 1167 1497 1380 1620 1273 1387 1461 1311 639 874 980 1881 1724 1991 2079
0 0 93 140 29 83 199 152 123 66 19 6 6 0 51 47 60 65 23 0 70 137 364 933 1189 1151 1299 1080 1007 673 0 0 64 601 1187 1207 1156 1155 1651 1390 1288 1170 1096 995 1583 1680 1918 1833 2034
0 0 0 1 25 12 155 116 46 36 0 0 0 1 309 306 88 70 105 49 85 152 375 521 1528 1457 1310 1584 1139 625 156 273 497 582 807 1180 1107 1181 1226 1713 1764 1474 1133 1179 1772 1911 1749 1901 2140
0 0 3 19 0 0 48 136 111 22 67 132 213 48 160 304 191 319 353 65 13 106 339 563 1202 1543 1464 1441 1414 934 520 179 40 324 1031 766 817 540 494 1720 1593 1533 1637 1708 1500 1319 1727 2064 1726
0 0 0 0 1 1 262 259 255 79 51 63 61 118 37 35 106 631 158 418 246 82 307 577 931 1486 1872 1540 1812 1334 952 402 186 205 869 423 364 948 1124 1314 1554 1663 1437 1449 1680 1581 1494 1547 1928
0 0 0 0 0 13 209 308 235 77 43 3 0 6 6 27 63 103 103 285 454 297 294 228 276 258 1345 1699 1937 1728 1594 1539 1665 1649 1600 755 797 304 127 371 983 1491 1570 1638 1103 1195 1633 1990 1373
0 0 0 0 0 0 203 126 266 43 7 2 0 0 2 17 46 3 2 11 59 24 8 6 0 0 0 0 242 1822 1658 1664 1816 1655 1450 734 547 373 42 22 64 340 1542 1586 1598 1496 1213 1429 1680
0 0 0 0 0 17 246 101 61 0 0 0 0 0 0 5 18 5 7 4 4 5 1 0 0 0 0 0 43 807 1868 1650 1761 1809 2042 930 652 477 84 0 0 230 1354 1488 1413 1135 1286 1382 1317

GFSSGP_con_sbcape_108.txt.gz
CAPE
15 3 4 48 62 54 64 97 156 76 64 31 0 29 43 111 104 7 240 315 811 1106 1584 2054 2488 2337 2236 2073 1986 2103 2346 2208 2154 2558 2651 2759 2444 2511 2645 2505 2283 2479 2531 2143 1994 2013 1938 1698 1568
0 5 150 201 62 72 76 157 107 83 32 27 29 84 107 134 190 232 188 485 911 1287 1459 1777 2407 2218 1833 1733 1628 1590 1630 2092 2371 2252 2486 2682 2594 2704 2533 2482 2479 2451 2690 2400 2040 1961 1769 1419 1234
0 1 136 145 1 79 46 128 29 30 35 43 10 63 154 274 276 183 184 732 824 859 1323 1523 2195 2161 2047 1947 2192 1855 1566 1498 2010 2266 2196 2305 2608 2510 2484 2423 2346 2388 2758 1964 1938 1873 1808 1480 1205
7 213 207 179 7 79 91 56 4 0 18 81 106 138 177 73 93 182 336 452 410 784 1188 2050 1884 1930 2045 2109 2053 1924 1779 2060 1746 2051 2144 2353 2508 2537 2528 2499 2364 2336 2297 2048 1698 1683 1858 1971 1963
104 162 23 204 81 36 59 11 0 0 11 85 97 95 50 0 153 212 204 256 586 1113 1390 1420 2403 2055 1982 1927 1918 1853 1338 1649 1791 1844 1924 2184 2209 2405 2339 2354 2312 2363 2284 2195 1938 1891 1983 1918 1915
113 272 70 99 170 299 220 10 0 4 27 23 38 43 0 0 42 131 365 677 868 1170 1331 1516 1985 2026 2104 1851 1842 1754 1595 2121 1933 1907 2156 2086 2299 2444 2343 2277 2366 2453 2307 2238 2039 1863 1731 1768 2102
179 196 215 140 259 282 495 38 4 28 6 0 0 24 0 0 104 382 615 824 1039 1169 1138 1328 1435 1632 1756 1829 1799 1771 1798 1937 1874 1909 2068 2319 2261 2232 2260 2466 2548 2400 2326 2159 1982 1756 1608 1567 1774
341 136 16 126 165 452 292 38 0 21 20 0 0 0 0 0 261 362 445 597 677 959 1196 1145 1045 1104 1230 1541 1829 1832 1942 1892 1788 1845 2013 2017 2355 2135 2264 2930 2955 2239 2164 2141 1952 1821 1643 1461 1562
194 51 23 2 153 272 521 161 301 467 24 1 0 0 6 133 174 127 345 503 565 729 947 1011 903 1009 1030 1258 1532 1739 1889 1777 1646 1849 1786 1866 1234 1717 1785 2356 2675 2152 2167 2203 2170 1917 1574 1529 1536
139 0 20 32 119 257 515 304 167 102 5 19 0 19 108 142 87 215 351 394 469 627 848 829 783 777 1017 1432 1257 1136 1488 1007 954 1045 1180 947 911 1338 1664 2066 2398 2246 2208 2145 2038 1938 1876 1946 1281
5 0 27 8 7 1 527 388 514 62 83 3 9 43 22 83 106 280 140 339 481 704 672 748 659 694 725 1081 877 1000 905 797 783 756 636 773 809 1396 1303 1548 1569 1428 1995 1506 1965 1765 1664 1642 1494
4 140 143 486 401 107 417 406 193 143 92 19 1 36 94 169 128 121 102 188 249 454 690 549 456 207 109 487 569 580 688 804 788 752 527 416 680 864 1067 1031 935 850 978 531 1181 524 686 568 602
169 220 166 310 421 521 490 369 171 114 77 44 10 99 150 47 15 108 153 262 337 324 517 386 117 0 0 6 120 261 574 644 642 528 946 377 735 477 643 850 924 793 373 433 455 639 296 323 78
0 373 580 376 377 477 390 156 129 65 67 64 9 6 49 47 47 107 279 325 257 389 358 94 54 0 0 0 54 1 202 453 541 656 623 631 732 384 598 606 771 568 1073 887 225 491 990 661 85
437 247 57 387 202 363 150 63 75 502 574 16 16 14 11 47 135 182 322 242 486 555 315 71 2 0 0 0 54 7 430 271 645 745 996 768 431 641 747 757 807 825 669 51 186 1016 481 680 614
116 200 322 373 64 286 17 58 183 391 371 9 42 24 18 123 221 235 235 183 508 524 457 258 167 0 0 3 153 10 21 102 166 727 772 649 502 361 1197 1066 883 682 716 486 1216 255 179 936 851
0 11 47 37 126 117 89 42 83 290 438 264 108 37 20 92 162 256 310 341 468 456 468 305 140 203 89 268 54 0 0 0 63 827 1105 1038 1276 1310 1063 1195 918 1004 1080 695 410 642 543 598 277
0 2 240 348 252 152 92 29 148 301 305 103 105 150 57 57 48 137 227 302 210 257 49 544 317 397 273 258 26 20 69 120 511 835 907 1163 1238 859 946 1343 1120 979 559 518 283 545 1108 821 385
0 0 283 269 183 239 64 67 116 190 117 3 147 179 46 70 52 19 157 134 85 0 141 251 284 383 363 327 243 257 324 512 463 373 1018 978 1165 675 684 1012 1041 829 738 554 997 1322 1005 983 667
0 0 138 273 64 144 83 47 72 166 132 79 141 166 30 86 38 52 182 143 83 40 238 238 481 253 290 794 700 677 736 693 483 272 1082 1106 1172 609 455 728 897 1091 782 980 985 1175 1301 707 196
0 0 150 355 267 136 60 48 84 122 95 113 177 111 135 47 22 33 176 183 97 190 384 512 593 167 324 706 458 262 357 675 846 856 789 1018 1056 1024 1110 975 794 980 934 958 937 1231 1564 1343 829
0 0 179 146 76 2 73 5 30 55 123 169 181 115 145 20 17 34 123 179 106 260 377 574 564 525 719 415 235 264 541 603 645 644 807 1026 949 1081 1192 1161 873 1071 875 1004 1272 1574 1451 1242 1663
0 322 279 124 29 10 15 15 0 3 75 77 101 78 113 63 7 0 128 163 156 288 481 460 522 502 990 928 290 153 271 225 300 611 1032 989 972 1038 922 1111 1178 682 445 652 1082 1565 1228 1656 1832
286 252 154 82 53 47 42 24 64 10 12 107 127 73 179 16 138 6 160 159 160 282 600 434 370 382 618 814 584 258 3 30 205 576 858 860 825 1064 969 971 977 884 776 590 1354 1338 1347 1331 1801
28 199 30 62 7 2 4 31 3 19 29 67 124 70 27 2 45 182 62 122 146 278 562 736 460 564 825 680 768 220 0 0 374 528 801 803 771 864 1035 1058 952 790 705 831 1324 1348 1260 1319 1438
0 0 2 1 5 0 0 2 237 13 4 0 19 131 86 217 127 344 277 115 151 227 407 980 585 705 893 772 784 188 50 287 399 364 509 669 716 530 691 1095 1214 1167 911 939 1162 950 1172 1220 1354
0 2 0 0 0 16 162 170 111 62 30 136 52 170 122 106 264 224 409 470 178 143 318 738 936 806 705 1145 802 550 316 151 31 76 557 795 442 311 1055 1142 1230 1191 1206 1163 1192 1197 1143 1105 1292
0 0 0 0 0 2 81 173 116 109 143 64 9 14 67 140 198 198 136 236 241 202 440 488 404 266 0 74 276 826 537 319 25 0 257 514 303 621 669 713 1126 1231 1078 989 1187 862 1114 1267 1208
0 0 0 0 0 0 84 102 147 52 2 0 0 3 44 116 46 13 13 84 87 89 59 0 0 0 0 0 60 170 572 1114 977 1177 894 784 371 241 16 453 296 826 1166 1188 1043 654 1276 971 1092
0 0 0 0 0 0 40 179 4 0 0 0 0 0 14 51 58 6 3 8 46 13 2 4 0 0 0 0 11 150 530 754 1239 1247 808 613 456 178 0 33 1 6 479 960 1160 1111 1275 808 1024

GFSSGP_con_sbcape_111.txt.gz
CAPE
49 16 21 61 29 23 67 96 158 1 0 13 0 3 88 126 150 4 213 372 939 1318 1507 1776 2439 2168 2113 2152 2373 2234 2146 2028 2162 2141 2543 2433 2552 2601 2518 2502 2359 2437 2478 2020 1877 1812 1624 1528 1376
11 26 253 126 34 41 70 96 45 34 6 0 32 129 192 249 344 440 390 773 996 1389 1664 1822 2279 2319 1895 1817 2003 2103 2269 2266 2193 2438 2444 2439 2555 2647 2545 2544 2570 2458 2401 2103 1900 1610 1450 1482 1324
1 41 39 21 6 51 103 82 32 15 12 3 190 218 315 426 251 245 417 827 1198 1301 1467 1757 1879 1952 1534 1457 1512 1555 1974 2220 2180 2446 2253 2416 2487 2642 2596 2512 2645 2553 2599 1972 1806 1410 1196 1186 1262
75 26 58 53 1 101 129 30 32 23 56 146 271 232 224 283 225 258 709 899 991 1167 1210 1760 2124 2013 1971 1906 1796 1516 1429 1826 2248 2049 2058 2553 2544 2471 2430 2248 2426 2091 1965 2004 1918 1869 1462 1367 1654
195 137 15 88 66 45 62 32 29 26 37 127 97 102 121 172 266 517 551 572 796 1008 1285 1491 2156 1781 2010 1815 1778 1921 1899 1731 1995 2159 2040 2356 2571 2595 2547 2384 2369 2305 1978 1845 1944 1882 1979 1756 1621
188 123 79 59 68 235 22 16 51 102 118 66 85 80 81 200 281 267 293 395 988 1159 1164 1546 1752 1942 1911 1759 1829 1505 1940 1851 1974 2018 2088 2373 2486 2396 2372 2320 2481 2302 2119 2021 2044 1983 1861 2082 2130
198 161 14 105 102 52 8 7 75 81 75 75 51 38 98 133 108 195 347 671 1036 1205 1236 1222 1490 1714 1757 1671 1706 1881 2165 2000 1840 1773 2155 2280 2264 2302 2367 2510 2518 2238 2105 1985 1887 1753 1788 2083 2178
307 58 2 13 93 130 34 51 42 47 49 26 0 37 44 19 280 615 711 875 976 1074 1135 1061 1149 1226 1365 1508 1768 1917 2084 2009 1861 2076 2156 2316 2205 2322 2532 2938 2793 2218 2001 1788 1762 1770 1763 1608 1878
176 21 1 11 129 98 168 115 329 125 43 53 0 5 0 253 476 438 559 627 823 1071 947 833 924 1012 1089 1354 1610 1879 1859 1853 2027 1815 2032 1884 1412 1780 1909 2464 2394 2189 2018 1918 1891 1612 1621 1613 1622
87 0 25 41 177 141 215 264 114 16 28 83 0 0 202 321 279 365 367 510 608 835 900 744 777 865 1067 1565 1222 1260 1380 989 1239 1250 1039 919 1129 1424 1829 2089 2209 2172 2143 2030 1954 1784 1718 1806 798
11 0 30 45 217 151 170 220 162 12 27 12 48 82 203 201 171 272 407 392 407 744 857 705 674 748 904 1122 860 912 717 686 742 887 786 872 953 1266 1356 1333 1200 1276 1856 1233 1490 1344 1329 1480 1316
0 1 14 291 47 0 244 166 77 33 34 27 142 185 140 67 178 296 306 299 459 673 684 611 595 580 746 813 698 659 722 622 606 599 549 673 689 994 1081 1080 920 825 843 680 907 315 448 392 850
0 125 241 409 144 190 362 267 160 61 33 89 137 173 100 73 179 147 164 292 422 501 633 504 380 160 272 368 390 404 685 763 623 630 554 431 609 578 661 679 648 703 286 325 429 355 788 53 0
0 264 490 493 530 345 110 75 14 54 161 66 87 120 97 83 90 129 144 202 325 433 547 295 123 0 0 44 192 88 303 462 561 352 731 402 544 180 302 601 605 470 594 585 160 463 888 71 0
226 133 331 433 417 333 185 106 12 23 1 48 100 103 85 9 66 174 219 248 199 408 317 213 1 0 0 0 104 0 434 434 496 746 726 368 450 427 349 535 551 505 516 43 404 712 50 347 190
177 96 163 366 199 187 1 51 60 527 224 22 75 99 30 32 98 219 300 210 292 288 165 101 127 0 0 0 76 35 97 184 412 718 801 548 465 443 689 711 712 766 465 444 532 177 181 486 593
0 0 74 23 223 298 42 16 44 266 70 37 7 33 31 28 115 245 274 350 383 285 155 124 0 0 0 16 0 0 16 58 138 701 579 710 654 855 787 773 641 712 792 461 367 499 661 409 201
0 1 65 58 91 209 95 17 141 229 8 12 99 16 34 100 135 197 211 401 358 323 163 113 25 15 65 38 0 0 0 15 204 709 729 694 1182 807 1248 830 1017 627 336 308 187 554 804 703 437
0 0 21 311 244 237 87 42 173 187 92 111 67 128 97 102 159 184 213 418 251 221 142 186 168 129 137 104 8 0 47 118 466 453 703 904 1038 625 1054 921 787 685 720 430 1038 1081 852 724 219
0 0 102 200 131 169 83 106 83 129 76 96 41 106 68 133 186 186 176 305 125 133 175 130 182 182 195 324 362 307 288 429 312 278 783 799 979 491 564 722 634 540 707 732 715 1057 884 419 152
0 0 17 288 247 195 135 80 87 84 79 48 32 87 111 36 34 142 160 190 42 70 163 109 186 177 212 556 376 238 413 517 572 367 659 750 945 589 578 714 662 955 776 705 864 1183 1202 1224 836
0 0 0 355 124 62 59 8 65 83 63 18 49 51 138 40 27 159 144 114 36 55 163 164 205 76 233 381 305 326 420 373 422 387 551 744 802 901 1035 1062 801 1077 875 851 1081 1470 1152 1065 1414
0 16 0 194 22 12 22 0 0 45 40 20 6 10 135 49 18 159 120 89 36 144 194 282 196 159 319 304 167 139 286 205 348 522 664 710 713 738 953 883 818 572 407 683 1133 1072 1184 1396 1518
222 173 74 0 9 2 5 1 22 51 41 11 26 95 131 65 62 21 95 135 44 236 277 323 248 356 466 499 107 87 179 161 267 430 685 620 636 734 595 845 926 586 306 380 1131 1130 1013 1209 1245
224 37 39 32 32 1 8 22 21 36 48 93 74 135 166 73 32 243 50 105 88 268 285 290 199 258 460 556 323 51 5 53 185 372 550 592 549 650 797 671 644 536 634 444 1144 980 944 1157 1012
196 1 1 5 10 0 24 21 52 17 12 28 84 138 162 116 127 149 168 113 100 237 419 320 188 178 395 442 555 156 1 0 84 248 400 492 455 599 660 777 721 688 633 555 875 904 913 1018 1058
0 0 0 0 0 5 37 175 145 50 35 44 96 56 82 178 241 149 311 263 55 128 417 450 293 278 493 490 504 167 2 39 90 165 252 371 400 389 382 727 1077 874 870 906 728 816 1035 887 836
0 0 0 0 0 0 38 102 188 38 33 31 12 21 9 55 366 242 251 319 229 139 226 826 430 361 260 417 443 515 204 143 0 19 113 475 326 222 460 726 1038 935 807 865 872 908 702 922 922
0 0 0 0 0 0 24 37 40 74 1 4 21 17 48 86 162 138 185 191 126 103 115 120 23 0 12 71 84 182 449 599 177 28 0 130 215 168 442 431 765 907 912 783 834 648 551 817 678
0 0 0 0 0 0 0 29 7 9 0 0 3 29 12 47 67 26 28 39 73 67 23 2 0 0 0 3 54 69 105 256 695 751 857 687 417 118 73 63 107 335 492 822 1050 948 924 923 669

GFSSGP_con_sbcape_114.txt.gz
CAPE
45 18 20 47 37 18 67 135 30 0 0 0 0 0 56 216 175 0 165 360 730 1057 1434 1767 2444 2108 2009 1966 1880 1864 1887 1779 2182 2617 2541 2439 2428 2448 2334 2319 2363 2495 2175 1776 1894 1735 1569 1606 1882
0 23 293 117 20 44 91 109 0 0 0 0 27 192 264 315 308 366 338 739 1054 1199 1393 1621 2248 2160 1978 2098 2136 2169 2037 1977 2394 2490 2525 2331 2424 2431 2432 2256 2215 2227 2085 2005 1837 1690 1542 1233 1419
14 29 1 0 8 47 61 58 58 9 0 0 194 277 312 173 174 261 438 893 1207 1337 1466 1639 1989 1891 1742 1801 2025 2075 2165 2182 2398 2391 2432 2417 2529 2699 2616 2405 2426 2214 2301 1836 1660 1496 1437 1536 1436
14 47 26 27 13 105 59 14 26 0 0 184 214 206 227 121 188 406 734 1051 1081 1199 1272 1734 1708 1466 1552 1534 1508 1754 2210 1985 2298 2245 2398 2339 2536 2409 2479 2496 2321 2129 1964 1783 1639 1551 1502 1465 1459
59 130 21 109 84 87 19 27 26 13 53 160 104 98 182 246 342 627 805 859 905 920 1127 1651 2144 1906 1931 1945 1500 1532 1618 2212 2025 2211 2376 2374 2141 2112 2339 2383 2089 1981 2028 1861 1904 1953 1694 1581 1661
156 54 63 60 108 149 26 36 78 88 55 4 0 27 130 327 420 515 559 634 834 947 1049 1555 1739 1939 1867 1764 1690 1740 1861 1852 2182 2160 2299 2569 2367 2492 2229 2444 2237 1930 1926 1904 1950 1819 1995 1722 1655
191 86 23 74 105 86 21 59 70 39 8 0 0 48 121 190 213 179 291 797 966 997 1076 1235 1335 1591 1708 1684 1452 1811 1659 2064 2003 2190 2411 2516 2322 2448 2571 2447 2309 2106 1986 1824 1738 1857 2080 2208 2085
74 21 12 79 92 109 93 96 40 45 9 0 0 19 94 125 138 314 589 795 913 1041 903 1127 1228 1220 1195 1373 1778 1662 1866 1871 1938 2191 2286 2186 2279 2515 2603 2703 2336 2061 1887 1831 1828 1879 1752 1892 1988
30 17 45 63 67 104 152 91 175 13 0 0 0 0 41 236 399 439 661 749 965 1065 812 771 892 974 1235 1293 1569 1711 1862 1918 2063 2147 2303 1731 1472 1773 2002 2606 2263 2040 1840 1815 1750 1668 1621 1676 1866
73 0 38 40 99 45 336 137 43 21 0 0 0 21 198 407 300 246 305 406 676 890 842 619 754 880 1131 1652 1154 1125 1341 1102 1217 1205 990 1078 1217 1508 2022 2220 2224 2092 1993 1825 1711 1612 1653 1567 788
5 0 70 55 141 53 303 164 31 37 17 0 13 133 269 288 256 280 324 354 537 729 827 551 681 738 1028 935 823 783 573 639 788 774 804 913 923 1168 1224 1207 1265 1212 1555 1055 1157 961 954 1222 1401
0 0 4 18 357 52 188 97 19 34 62 0 32 171 215 186 228 179 231 296 375 683 709 525 563 617 770 784 667 528 518 460 566 595 613 721 713 909 954 783 661 812 773 566 896 368 591 453 654
0 0 112 326 199 82 173 159 103 1 47 22 130 190 153 120 161 183 228 217 385 538 579 470 435 391 515 470 401 441 623 557 487 507 447 465 603 597 634 674 716 637 434 446 469 335 804 53 16
0 138 551 299 60 225 109 94 48 45 36 118 144 116 89 85 186 158 160 250 374 406 504 369 300 88 189 225 269 231 409 519 436 458 645 425 372 257 446 560 586 612 610 561 281 797 671 200 103
209 392 556 460 278 131 46 69 8 131 41 132 126 113 80 105 141 100 161 201 281 353 382 271 77 0 13 55 114 64 410 432 473 453 567 282 418 341 235 439 544 671 617 318 876 316 349 673 239
207 29 181 342 186 149 47 122 92 90 119 149 150 133 98 86 82 67 157 179 189 323 266 183 111 0 0 0 50 98 263 258 474 735 663 509 422 506 451 733 749 854 673 485 353 574 596 650 699
0 22 75 209 186 147 49 19 19 130 57 95 141 141 115 6 30 108 195 183 258 249 142 122 29 0 0 0 0 0 61 121 175 579 626 561 506 580 825 762 702 840 893 730 440 610 923 678 288
0 0 9 0 114 200 83 33 40 53 44 89 108 160 87 26 100 206 202 249 264 160 80 71 1 0 0 0 0 0 0 0 98 648 671 792 937 943 928 767 1113 626 641 363 495 1004 901 897 589
0 0 0 321 207 219 49 46 49 47 30 30 61 28 86 84 112 217 201 350 290 157 87 35 0 0 20 0 0 0 11 0 307 493 758 726 931 842 897 713 862 644 900 816 1096 1186 1033 913 297
0 0 55 269 253 136 110 138 108 95 39 13 96 63 45 70 102 156 173 303 252 142 78 43 52 28 84 45 16 13 31 193 313 319 704 777 847 559 802 714 734 511 930 768 916 1252 1199 984 506
0 0 66 244 264 202 210 142 74 102 64 49 103 84 95 118 160 220 164 242 151 90 72 71 106 89 98 185 200 219 345 408 429 292 604 888 917 556 615 676 619 1013 861 754 988 1301 1298 1503 1233
0 0 1 294 69 35 17 3 28 121 46 79 33 52 92 131 94 151 166 208 93 90 76 77 96 116 114 279 243 297 399 467 395 263 473 645 845 826 679 871 754 1045 950 844 1328 1531 1405 1398 1584
0 0 0 243 10 0 0 0 0 90 88 38 16 47 110 53 42 109 146 177 71 99 105 117 83 75 180 352 224 239 278 202 268 356 519 582 630 661 1008 872 783 756 731 819 1293 1103 1491 1711 1714
112 76 3 0 0 0 0 0 0 47 46 53 21 11 46 90 6 28 63 19 22 18 119 152 90 73 171 254 148 96 153 152 330 366 490 567 626 668 443 794 810 598 478 596 1189 1215 1252 1557 1345
31 27 20 36 42 9 0 0 0 0 23 60 11 4 26 148 32 17 2 57 44 107 171 197 148 164 214 288 108 54 76 102 237 342 515 476 544 673 745 736 652 612 648 501 1192 1140 1262 1528 1335
16 0 1 0 0 0 7 5 0 5 3 38 21 0 29 131 71 22 63 18 58 129 214 222 165 165 337 404 393 53 4 42 99 220 442 548 508 653 770 799 620 679 723 782 1111 1168 1167 1289 1294
0 3 0 0 0 5 8 103 83 10 41 83 50 32 29 118 162 78 51 230 50 75 259 218 127 119 289 349 372 83 0 0 21 155 282 473 467 544 598 771 1048 929 988 870 972 1092 1274 1137 1130
0 0 0 0 0 0 13 68 49 103 56 126 93 89 99 121 227 219 165 327 153 84 129 359 161 122 240 291 308 153 21 31 107 113 167 469 446 465 479 693 928 1066 1012 989 951 1021 963 1083 1159
0 0 0 0 0 0 0 0 80 66 40 8 7 11 34 148 206 134 170 233 136 148 259 597 265 97 243 330 302 296 284 255 93 7 26 153 451 369 402 355 578 785 867 780 930 963 813 1016 1030
0 0 0 0 0 0 0 0 9 85 24 2 1 22 5 10 41 133 139 230 120 74 70 19 0 2 0 0 24 3 53 170 515 502 245 95 194 195 365 333 297 713 808 913 936 1071 1160 1060 1021

GFSSGP_con_sbcape_117.txt.gz
CAPE
45 17 7 110 112 148 241 82 0 0 0 0 0 0 111 427 253 32 326 557 512 766 1322 1503 2007 2011 2037 1985 1900 1874 1796 2267 2609 2529 2525 2585 2397 2380 2076 2029 2194 2091 2176 1840 1728 1731 1873 1905 1614
7 37 316 444 204 157 226 53 0 0 0 0 69 202 352 434 316 323 494 545 612 878 1398 1529 1868 2236 2016 1992 1970 1863 1934 2442 2521 2459 2352 2405 2338 2386 2105 2250 2077 2242 2278 1813 1746 1485 1582 1533 1555
5 50 58 49 75 202 173 14 0 0 0 12 321 368 439 248 203 354 491 694 745 1102 1385 1789 2044 2118 2089 2081 2165 2193 2201 2392 2478 2494 2236 2260 2387 2325 2095 2288 2277 2119 2035 1843 1712 1710 1631 1726 2015
2 68 128 176 230 199 135 8 0 0 5 276 287 344 230 164 250 483 666 823 930 1238 1408 2030 1776 1621 1592 1739 2094 2197 2030 2281 2333 2409 2329 2222 2528 2285 2180 2259 2152 2025 1789 1616 1768 1757 1680 1592 1738
138 165 70 189 169 54 44 16 7 0 2 284 218 184 209 412 589 593 802 810 964 1274 1153 1501 1756 1701 1561 1470 1424 1781 2127 2062 2234 2338 2309 2214 2280 2397 2251 2104 2173 2050 2012 1892 1955 1858 1714 1850 1959
298 205 120 155 96 34 26 15 0 41 176 100 99 102 287 561 509 702 790 970 952 631 1264 1461 1784 1915 1856 1573 1832 1514 1820 2181 2192 2195 2394 2214 2131 2267 2586 2137 1988 2014 1905 1857 1942 2060 1701 1731 1797
224 238 51 84 61 20 42 92 103 119 120 32 1 65 192 302 507 676 835 799 529 782 1534 1472 1544 1840 1763 1557 1789 1851 1604 1871 2145 2473 2487 2372 2275 2084 2400 2429 2043 1804 1727 1812 1942 2155 2203 1929 1981
40 102 65 99 77 106 72 83 53 74 27 0 0 56 107 221 418 604 494 490 548 1009 1213 1280 1544 1610 1631 1439 1749 1962 1999 1871 2271 2327 2327 2432 2186 2307 2331 2689 2537 1964 1876 1877 1904 1901 1898 1937 1879
7 124 71 71 113 114 79 29 36 25 1 7 27 10 76 259 382 290 451 723 639 1032 1207 1261 1199 1461 1658 1699 1781 1763 1905 2010 2171 2385 2480 2483 2530 2216 1788 2530 2102 1880 1886 1826 1659 1600 1546 1798 2111
109 42 102 101 142 110 89 96 30 0 7 35 41 128 182 302 200 82 368 517 536 855 1012 1322 1146 1378 1509 1652 1875 2105 2096 2163 2571 2488 2473 2384 2516 2353 2034 2289 2110 1985 1827 1727 1673 1815 1801 1324 1041
99 19 122 107 145 64 64 41 0 13 15 20 68 174 274 153 20 33 334 402 742 725 951 1260 1376 1528 1681 1974 2027 1699 1856 1748 2093 2192 2209 2097 2078 2322 2335 2258 1976 1982 1670 1338 1369 1265 1204 1396 1685
0 1 91 130 198 103 66 0 0 59 82 0 55 131 102 46 0 41 279 391 789 846 846 1229 1274 1564 1857 1820 1396 1438 1448 1422 1296 1631 1900 1819 1743 2035 1865 1736 2102 2065 1609 1904 1898 1744 1825 1302 1435
0 0 14 142 269 87 91 13 11 18 3 32 91 129 118 136 172 182 294 347 628 760 827 1130 1297 1581 1669 1528 1375 1370 1474 1284 1253 1431 1525 1539 1574 1743 1616 2067 1745 1726 1858 1643 1859 1889 1489 1035 905
0 103 471 336 291 139 53 13 43 21 37 117 147 168 252 320 340 313 257 275 466 600 733 933 1086 1330 1362 1273 1502 1496 1683 1476 1350 1408 1475 1584 1306 1565 1781 1922 1761 1966 1785 1460 1767 1891 1852 1449 1181
248 443 599 345 334 207 2 46 53 50 106 188 217 271 293 346 318 261 258 281 468 620 684 779 885 850 1019 1324 1315 1385 1585 1400 1329 1343 1525 1441 1585 1657 1606 1666 1786 1933 1854 1993 1785 1527 1877 1505 1021
408 407 612 553 353 240 95 4 7 88 126 151 211 256 286 363 367 356 339 407 585 664 842 779 634 500 805 1128 1132 1252 1527 1557 1540 1625 1157 1218 1600 1818 1732 1787 1843 2044 1899 1864 1886 2012 1873 1603 1653
0 254 275 703 393 209 153 226 141 127 114 145 138 222 270 371 415 429 355 493 687 853 905 904 851 393 541 713 992 1152 1462 1492 1661 1803 1676 1758 1658 1693 2159 1887 1993 2199 2116 1830 1886 2261 2324 1966 1502
135 0 21 189 483 332 198 219 255 208 102 140 179 213 289 346 410 444 399 495 728 878 993 998 819 266 144 630 689 831 1242 1260 1404 1940 1755 1926 1682 1958 2053 1838 2183 1889 1911 1884 2527 2739 2119 1789 1540
0 0 0 343 452 426 275 273 305 305 153 157 165 98 298 269 368 434 411 535 772 846 925 957 888 481 150 484 553 742 1143 1314 1480 1747 1839 2102 2004 2056 2286 1881 2073 1938 2038 2468 2646 2431 2468 2102 2179
0 0 387 485 470 401 323 265 273 303 223 183 115 71 164 219 269 453 498 621 782 909 925 877 825 586 334 367 478 547 1088 1068 1338 1662 1817 1956 2002 1918 2086 2007 1930 2086 2021 2513 2894 3090 2401 2409 2302
0 0 271 348 501 399 367 419 320 268 195 101 87 102 103 172 260 446 542 722 770 908 889 871 797 382 375 613 565 885 1088 1345 1286 1500 1738 1819 1960 1787 1853 1993 1807 2310 2253 1862 2699 2914 3169 2523 2371
0 0 10 513 256 91 220 97 277 263 254 107 110 114 80 174 240 331 473 709 749 818 774 761 745 395 737 1053 680 1045 875 1126 1743 1877 1810 2019 1947 1981 1592 1833 1975 2505 2093 2296 2757 2655 3010 2968 2583
0 0 0 54 177 88 221 63 55 155 319 195 101 123 114 97 98 330 417 563 629 712 695 658 783 873 820 1150 1047 1120 1563 1817 1167 1670 1719 2091 2225 2062 1741 1975 2128 2506 2180 2276 2838 2603 3147 2762 2400
47 4 69 149 122 0 24 36 63 231 350 300 228 151 175 121 115 190 290 416 520 590 613 626 818 989 984 1084 1245 1537 1485 1846 2042 1570 1444 2035 1758 1865 2011 2127 2175 2316 2092 2253 2679 2516 2743 2726 2700
207 47 154 152 82 4 17 39 49 99 87 340 310 169 185 151 183 183 267 363 419 429 543 594 905 1040 1054 1195 1302 1170 1265 1409 1437 1904 2374 2126 1598 1896 1966 2261 2249 2234 2232 2007 2706 2666 2610 2600 2310
19 0 0 0 26 5 100 93 85 120 84 111 327 250 138 142 231 261 221 338 359 305 546 654 898 1126 1089 1160 1435 1274 1249 1085 1324 1598 1321 1477 1687 2845 2065 2073 2292 2128 2181 2089 2473 2443 2148 2632 2311
0 0 0 25 0 68 147 146 266 153 197 179 310 190 99 223 260 217 263 269 361 331 507 691 877 1022 1126 1164 1759 1627 1116 892 1066 1350 1618 1624 1857 2141 1903 2040 2062 2043 2036 2064 2289 2212 2511 2487 2395
0 0 0 10 60 1 145 222 243 204 283 355 311 246 115 227 319 306 338 471 468 386 571 728 931 1040 1160 1323 1626 1772 1139 862 697 905 1435 1657 1673 1854 2007 1898 2000 2172 2222 2242 2279 2125 2378 2408 2027
0 0 0 5 0 6 71 227 426 405 279 452 326 217 213 236 310 420 299 529 659 608 467 950 1034 1025 1053 1223 1543 1626 1206 931 1047 994 1156 1391 1650 1775 1774 1909 2039 2167 2275 2243 2373 2406 2260 2271 2295
0 0 0 20 0 4 83 41 198 318 287 283 279 320 309 255 357 420 356 410 392 504 643 1025 1254 1153 1143 1055 1384 1214 1137 1310 1386 1183 802 970 1260 1473 1651 1799 1673 1704 1984 1993 2083 1960 1602 2193 2116